Osage River (Missouri), Saint Thomas (06926510)

StateMissouriLatestUnknown (0 cfs)
RiverOsage RiverRatingObservedEstimated
Updated2021-01-19 23:45 (10 minutes ago)Flood - The river is flooding. Obstacles can be treacherous or deadly. The river should be avoided at this stage for casual trips and definitely for the inexperienced. Trips should be attempted only with protective gear and equipment.Flood(none)(none)
Discharge(none) (median: 9060 cfs)High - The river is high and potentially dangerous, especially for the young and / or inexperienced. Normal stream obstacles are sometimes difficult to navigate. Extended distances can be attempted, but canoe travel may not be advisable.High(none)(none)
Height6.28 feetGood - Conditions are ideal for a canoe or kayak. Boats typically will drag on fewer than one-quarter of riffles, if at all, and portages are unnecessary or rare. Normal float lengths can be attempted without a problem.Good(none)(none)
TrendFalling (falling over 24 hours)Low - River is low but can still be floated. Some riffles are okay but most come with significant dragging and might need a portage. Float lengths should be reduced to accommodate low flow, dragging, and portages.Low(none)(none)
USGSExternal icon USGS Site (External icon Google Maps)Poor - River is too low to float comfortably. Most or all riffles will drag or must be portaged and some obstacles (such as slick shelf rock) cause undue problems. Avoid the river at this stage for casual paddling trips.Poor(none)(none)

Trending Data

Plot Image

Trips for Osage River (Missouri), Saint Thomas (06926510)

DateStartEndDistanceConditionDischargeHeightFishingDetails

A total of 0 rows are displayed.

Condition Descriptions

Fishing Conditions

Fish Species

Notes

Classic Trip List

The classic River Trips application is still available for use. It is updated with the new system using a data retrofit. It is no longer maintained. The original River Trips application is no longer updated (as of 1 Dec 2016) but can be checked for errors or for the condition of the data before it was converted to the new system.

Gauge Data Table

ObservationHeightDischargeMaximum
Discharge
Minimum
Discharge
Mean
Discharge
P05P10P20P25P50
(Median)
P75P80P90P95
2021-01-19 23:45 6.28 49500 (2005) 683 (2006) 12200 784 1190 1760 1900 9060 15800 18900 42500 48300
2021-01-19 22:45 6.25 10200 49500 (2005) 683 (2006) 12200 784 1190 1760 1900 9060 15800 18900 42500 48300
2021-01-19 21:45 6.21 10100 49500 (2005) 683 (2006) 12200 784 1190 1760 1900 9060 15800 18900 42500 48300
2021-01-19 20:45 6.13 9850 49500 (2005) 683 (2006) 12200 784 1190 1760 1900 9060 15800 18900 42500 48300
2021-01-19 19:45 5.95 9340 49500 (2005) 683 (2006) 12200 784 1190 1760 1900 9060 15800 18900 42500 48300
2021-01-19 18:45 5.70 8630 49500 (2005) 683 (2006) 12200 784 1190 1760 1900 9060 15800 18900 42500 48300
2021-01-19 17:45 5.35 7620 49500 (2005) 683 (2006) 12200 784 1190 1760 1900 9060 15800 18900 42500 48300
2021-01-19 16:45 4.99 6640 49500 (2005) 683 (2006) 12200 784 1190 1760 1900 9060 15800 18900 42500 48300
2021-01-19 15:45 4.69 5820 49500 (2005) 683 (2006) 12200 784 1190 1760 1900 9060 15800 18900 42500 48300
2021-01-19 14:45 4.48 5240 49500 (2005) 683 (2006) 12200 784 1190 1760 1900 9060 15800 18900 42500 48300
2021-01-19 13:45 4.39 5000 49500 (2005) 683 (2006) 12200 784 1190 1760 1900 9060 15800 18900 42500 48300
2021-01-19 12:45 4.37 4950 49500 (2005) 683 (2006) 12200 784 1190 1760 1900 9060 15800 18900 42500 48300
2021-01-19 11:45 4.40 5030 49500 (2005) 683 (2006) 12200 784 1190 1760 1900 9060 15800 18900 42500 48300
2021-01-19 10:45 4.44 5130 49500 (2005) 683 (2006) 12200 784 1190 1760 1900 9060 15800 18900 42500 48300
2021-01-19 09:45 4.47 5210 49500 (2005) 683 (2006) 12200 784 1190 1760 1900 9060 15800 18900 42500 48300
2021-01-19 08:45 4.49 5270 49500 (2005) 683 (2006) 12200 784 1190 1760 1900 9060 15800 18900 42500 48300
2021-01-19 07:45 4.49 5270 49500 (2005) 683 (2006) 12200 784 1190 1760 1900 9060 15800 18900 42500 48300
2021-01-19 06:45 4.47 5210 49500 (2005) 683 (2006) 12200 784 1190 1760 1900 9060 15800 18900 42500 48300
2021-01-19 05:45 4.42 5080 49500 (2005) 683 (2006) 12200 784 1190 1760 1900 9060 15800 18900 42500 48300
2021-01-19 04:45 4.32 4810 49500 (2005) 683 (2006) 12200 784 1190 1760 1900 9060 15800 18900 42500 48300
2021-01-19 03:45 4.18 4430 49500 (2005) 683 (2006) 12200 784 1190 1760 1900 9060 15800 18900 42500 48300
2021-01-19 02:45 4.02 4020 49500 (2005) 683 (2006) 12200 784 1190 1760 1900 9060 15800 18900 42500 48300
2021-01-19 01:45 3.84 3550 49500 (2005) 683 (2006) 12200 784 1190 1760 1900 9060 15800 18900 42500 48300
2021-01-19 00:45 3.67 3110 49500 (2005) 683 (2006) 12200 784 1190 1760 1900 9060 15800 18900 42500 48300
2021-01-18 23:45 3.50 2700 49400 (2005) 581 (2003) 12400 586 640 1250 1430 6400 14100 18700 45600 49100
2021-01-18 22:45 3.31 2300 49400 (2005) 581 (2003) 12400 586 640 1250 1430 6400 14100 18700 45600 49100
2021-01-18 21:45 3.11 1930 49400 (2005) 581 (2003) 12400 586 640 1250 1430 6400 14100 18700 45600 49100
2021-01-18 20:45 2.94 1650 49400 (2005) 581 (2003) 12400 586 640 1250 1430 6400 14100 18700 45600 49100
2021-01-18 19:45 2.82 1470 49400 (2005) 581 (2003) 12400 586 640 1250 1430 6400 14100 18700 45600 49100
2021-01-18 18:45 2.76 1390 49400 (2005) 581 (2003) 12400 586 640 1250 1430 6400 14100 18700 45600 49100
2021-01-18 17:45 2.75 1380 49400 (2005) 581 (2003) 12400 586 640 1250 1430 6400 14100 18700 45600 49100
2021-01-18 16:45 2.75 1380 49400 (2005) 581 (2003) 12400 586 640 1250 1430 6400 14100 18700 45600 49100
2021-01-18 15:45 2.74 1360 49400 (2005) 581 (2003) 12400 586 640 1250 1430 6400 14100 18700 45600 49100
2021-01-18 14:45 2.74 1360 49400 (2005) 581 (2003) 12400 586 640 1250 1430 6400 14100 18700 45600 49100
2021-01-18 13:45 2.73 1350 49400 (2005) 581 (2003) 12400 586 640 1250 1430 6400 14100 18700 45600 49100
2021-01-18 12:45 2.72 1340 49400 (2005) 581 (2003) 12400 586 640 1250 1430 6400 14100 18700 45600 49100
2021-01-18 11:45 2.71 1320 49400 (2005) 581 (2003) 12400 586 640 1250 1430 6400 14100 18700 45600 49100
2021-01-18 10:45 2.70 1310 49400 (2005) 581 (2003) 12400 586 640 1250 1430 6400 14100 18700 45600 49100
2021-01-18 09:45 2.68 1290 49400 (2005) 581 (2003) 12400 586 640 1250 1430 6400 14100 18700 45600 49100
2021-01-18 08:45 2.67 1270 49400 (2005) 581 (2003) 12400 586 640 1250 1430 6400 14100 18700 45600 49100
2021-01-18 07:45 2.66 1260 49400 (2005) 581 (2003) 12400 586 640 1250 1430 6400 14100 18700 45600 49100
2021-01-18 06:45 2.65 1250 49400 (2005) 581 (2003) 12400 586 640 1250 1430 6400 14100 18700 45600 49100
2021-01-18 05:45 2.64 1240 49400 (2005) 581 (2003) 12400 586 640 1250 1430 6400 14100 18700 45600 49100
2021-01-18 04:45 2.64 1240 49400 (2005) 581 (2003) 12400 586 640 1250 1430 6400 14100 18700 45600 49100
2021-01-18 03:45 2.65 1250 49400 (2005) 581 (2003) 12400 586 640 1250 1430 6400 14100 18700 45600 49100
2021-01-18 02:45 2.65 1250 49400 (2005) 581 (2003) 12400 586 640 1250 1430 6400 14100 18700 45600 49100
2021-01-18 01:45 2.65 1250 49400 (2005) 581 (2003) 12400 586 640 1250 1430 6400 14100 18700 45600 49100
2021-01-18 00:45 2.66 1260 49400 (2005) 581 (2003) 12400 586 640 1250 1430 6400 14100 18700 45600 49100
2021-01-17 23:45 2.66 1260 49300 (2005) 575 (2003) 11800 581 641 1240 1280 6340 15600 18800 40800 48200
2021-01-17 22:45 2.67 1270 49300 (2005) 575 (2003) 11800 581 641 1240 1280 6340 15600 18800 40800 48200
2021-01-17 21:45 2.68 1290 49300 (2005) 575 (2003) 11800 581 641 1240 1280 6340 15600 18800 40800 48200
2021-01-17 20:45 2.69 1300 49300 (2005) 575 (2003) 11800 581 641 1240 1280 6340 15600 18800 40800 48200
2021-01-17 19:45 2.69 1300 49300 (2005) 575 (2003) 11800 581 641 1240 1280 6340 15600 18800 40800 48200
2021-01-17 18:45 2.71 1320 49300 (2005) 575 (2003) 11800 581 641 1240 1280 6340 15600 18800 40800 48200
2021-01-17 17:45 2.72 1340 49300 (2005) 575 (2003) 11800 581 641 1240 1280 6340 15600 18800 40800 48200
2021-01-17 16:45 2.73 1350 49300 (2005) 575 (2003) 11800 581 641 1240 1280 6340 15600 18800 40800 48200
2021-01-17 15:45 2.74 1360 49300 (2005) 575 (2003) 11800 581 641 1240 1280 6340 15600 18800 40800 48200
2021-01-17 14:45 2.76 1390 49300 (2005) 575 (2003) 11800 581 641 1240 1280 6340 15600 18800 40800 48200
2021-01-17 13:45 2.78 1420 49300 (2005) 575 (2003) 11800 581 641 1240 1280 6340 15600 18800 40800 48200
2021-01-17 12:45 2.79 1430 49300 (2005) 575 (2003) 11800 581 641 1240 1280 6340 15600 18800 40800 48200
2021-01-17 11:45 2.82 1470 49300 (2005) 575 (2003) 11800 581 641 1240 1280 6340 15600 18800 40800 48200
2021-01-17 10:45 2.84 1500 49300 (2005) 575 (2003) 11800 581 641 1240 1280 6340 15600 18800 40800 48200
2021-01-17 09:45 2.87 1540 49300 (2005) 575 (2003) 11800 581 641 1240 1280 6340 15600 18800 40800 48200
2021-01-17 08:45 2.89 1570 49300 (2005) 575 (2003) 11800 581 641 1240 1280 6340 15600 18800 40800 48200
2021-01-17 07:45 2.92 1620 49300 (2005) 575 (2003) 11800 581 641 1240 1280 6340 15600 18800 40800 48200
2021-01-17 06:45 2.95 1660 49300 (2005) 575 (2003) 11800 581 641 1240 1280 6340 15600 18800 40800 48200
2021-01-17 05:45 2.99 1730 49300 (2005) 575 (2003) 11800 581 641 1240 1280 6340 15600 18800 40800 48200
2021-01-17 04:45 3.02 1780 49300 (2005) 575 (2003) 11800 581 641 1240 1280 6340 15600 18800 40800 48200
2021-01-17 03:45 3.07 1860 49300 (2005) 575 (2003) 11800 581 641 1240 1280 6340 15600 18800 40800 48200
2021-01-17 02:45 3.13 1960 49300 (2005) 575 (2003) 11800 581 641 1240 1280 6340 15600 18800 40800 48200
2021-01-17 01:45 3.18 2050 49300 (2005) 575 (2003) 11800 581 641 1240 1280 6340 15600 18800 40800 48200
2021-01-17 00:45 2160 49300 (2005) 575 (2003) 11800 581 641 1240 1280 6340 15600 18800 40800 48200
2021-01-16 22:45 3.36 2400 51000 (2016) 565 (2003) 11600 576 657 1210 1290 5940 18200 19700 44800 50900
2021-01-16 21:45 3.43 2540 51000 (2016) 565 (2003) 11600 576 657 1210 1290 5940 18200 19700 44800 50900
2021-01-16 20:45 3.51 2720 51000 (2016) 565 (2003) 11600 576 657 1210 1290 5940 18200 19700 44800 50900
2021-01-16 19:45 3.59 2910 51000 (2016) 565 (2003) 11600 576 657 1210 1290 5940 18200 19700 44800 50900
2021-01-16 18:45 3.67 3110 51000 (2016) 565 (2003) 11600 576 657 1210 1290 5940 18200 19700 44800 50900
2021-01-16 17:45 3.77 3370 51000 (2016) 565 (2003) 11600 576 657 1210 1290 5940 18200 19700 44800 50900
2021-01-16 16:45 3.87 3630 51000 (2016) 565 (2003) 11600 576 657 1210 1290 5940 18200 19700 44800 50900
2021-01-16 15:45 3.98 3910 51000 (2016) 565 (2003) 11600 576 657 1210 1290 5940 18200 19700 44800 50900
2021-01-16 14:45 4.11 4250 51000 (2016) 565 (2003) 11600 576 657 1210 1290 5940 18200 19700 44800 50900
2021-01-16 13:45 4.24 4590 51000 (2016) 565 (2003) 11600 576 657 1210 1290 5940 18200 19700 44800 50900
2021-01-16 12:45 4.39 5000 51000 (2016) 565 (2003) 11600 576 657 1210 1290 5940 18200 19700 44800 50900
2021-01-16 11:45 4.54 5400 51000 (2016) 565 (2003) 11600 576 657 1210 1290 5940 18200 19700 44800 50900
2021-01-16 10:45 4.70 5840 51000 (2016) 565 (2003) 11600 576 657 1210 1290 5940 18200 19700 44800 50900
2021-01-16 09:45 4.87 6310 51000 (2016) 565 (2003) 11600 576 657 1210 1290 5940 18200 19700 44800 50900
2021-01-16 08:45 5.05 6810 51000 (2016) 565 (2003) 11600 576 657 1210 1290 5940 18200 19700 44800 50900
2021-01-16 07:45 5.21 7240 51000 (2016) 565 (2003) 11600 576 657 1210 1290 5940 18200 19700 44800 50900
2021-01-16 06:45 5.39 7740 51000 (2016) 565 (2003) 11600 576 657 1210 1290 5940 18200 19700 44800 50900
2021-01-16 05:45 5.56 8230 51000 (2016) 565 (2003) 11600 576 657 1210 1290 5940 18200 19700 44800 50900
2021-01-16 04:45 5.72 8690 51000 (2016) 565 (2003) 11600 576 657 1210 1290 5940 18200 19700 44800 50900
2021-01-16 03:45 5.87 9110 51000 (2016) 565 (2003) 11600 576 657 1210 1290 5940 18200 19700 44800 50900
2021-01-16 02:45 6.01 9510 51000 (2016) 565 (2003) 11600 576 657 1210 1290 5940 18200 19700 44800 50900
2021-01-16 01:45 6.13 9850 51000 (2016) 565 (2003) 11600 576 657 1210 1290 5940 18200 19700 44800 50900
2021-01-16 00:45 6.25 10200 51000 (2016) 565 (2003) 11600 576 657 1210 1290 5940 18200 19700 44800 50900
2021-01-15 23:45 6.34 10500 52500 (2016) 559 (2003) 11800 575 679 1550 1980 6130 13500 20200 44900 52400
2021-01-15 22:45 6.43 10700 52500 (2016) 559 (2003) 11800 575 679 1550 1980 6130 13500 20200 44900 52400
2021-01-15 21:45 6.49 10900 52500 (2016) 559 (2003) 11800 575 679 1550 1980 6130 13500 20200 44900 52400
2021-01-15 20:45 6.56 11100 52500 (2016) 559 (2003) 11800 575 679 1550 1980 6130 13500 20200 44900 52400
2021-01-15 19:45 6.58 11200 52500 (2016) 559 (2003) 11800 575 679 1550 1980 6130 13500 20200 44900 52400
2021-01-15 18:45 6.57 11100 52500 (2016) 559 (2003) 11800 575 679 1550 1980 6130 13500 20200 44900 52400
2021-01-15 17:45 6.50 10900 52500 (2016) 559 (2003) 11800 575 679 1550 1980 6130 13500 20200 44900 52400
2021-01-15 16:45 6.40 10600 52500 (2016) 559 (2003) 11800 575 679 1550 1980 6130 13500 20200 44900 52400
2021-01-15 15:45 6.21 10100 52500 (2016) 559 (2003) 11800 575 679 1550 1980 6130 13500 20200 44900 52400
2021-01-15 14:45 5.92 9260 52500 (2016) 559 (2003) 11800 575 679 1550 1980 6130 13500 20200 44900 52400
2021-01-15 13:45 5.55 8200 52500 (2016) 559 (2003) 11800 575 679 1550 1980 6130 13500 20200 44900 52400
2021-01-15 12:45 5.06 6840 52500 (2016) 559 (2003) 11800 575 679 1550 1980 6130 13500 20200 44900 52400
2021-01-15 11:45 4.39 5000 52500 (2016) 559 (2003) 11800 575 679 1550 1980 6130 13500 20200 44900 52400
2021-01-15 10:45 3.61 2960 52500 (2016) 559 (2003) 11800 575 679 1550 1980 6130 13500 20200 44900 52400
2021-01-15 09:45 3.06 1840 52500 (2016) 559 (2003) 11800 575 679 1550 1980 6130 13500 20200 44900 52400
2021-01-15 08:45 2.87 1540 52500 (2016) 559 (2003) 11800 575 679 1550 1980 6130 13500 20200 44900 52400
2021-01-15 07:45 2.85 1520 52500 (2016) 559 (2003) 11800 575 679 1550 1980 6130 13500 20200 44900 52400
2021-01-15 06:45 2.84 1500 52500 (2016) 559 (2003) 11800 575 679 1550 1980 6130 13500 20200 44900 52400
2021-01-15 05:45 2.86 1530 52500 (2016) 559 (2003) 11800 575 679 1550 1980 6130 13500 20200 44900 52400
2021-01-15 04:45 2.87 1540 52500 (2016) 559 (2003) 11800 575 679 1550 1980 6130 13500 20200 44900 52400
2021-01-15 03:45 2.88 1560 52500 (2016) 559 (2003) 11800 575 679 1550 1980 6130 13500 20200 44900 52400
2021-01-15 02:45 2.89 1570 52500 (2016) 559 (2003) 11800 575 679 1550 1980 6130 13500 20200 44900 52400
2021-01-15 01:45 2.90 1590 52500 (2016) 559 (2003) 11800 575 679 1550 1980 6130 13500 20200 44900 52400
2021-01-15 00:45 2.92 1620 52500 (2016) 559 (2003) 11800 575 679 1550 1980 6130 13500 20200 44900 52400
2021-01-14 23:45 2.94 1650 56400 (2005) 561 (2003) 12500 570 628 1190 1590 8050 14300 18300 43900 55600
2021-01-14 22:45 2.96 1680 56400 (2005) 561 (2003) 12500 570 628 1190 1590 8050 14300 18300 43900 55600
2021-01-14 21:45 2.99 1730 56400 (2005) 561 (2003) 12500 570 628 1190 1590 8050 14300 18300 43900 55600
2021-01-14 20:45 3.01 1760 56400 (2005) 561 (2003) 12500 570 628 1190 1590 8050 14300 18300 43900 55600
2021-01-14 19:45 3.05 1820 56400 (2005) 561 (2003) 12500 570 628 1190 1590 8050 14300 18300 43900 55600
2021-01-14 18:45 3.07 1860 56400 (2005) 561 (2003) 12500 570 628 1190 1590 8050 14300 18300 43900 55600
2021-01-14 17:45 3.11 1930 56400 (2005) 561 (2003) 12500 570 628 1190 1590 8050 14300 18300 43900 55600
2021-01-14 16:45 3.16 2010 56400 (2005) 561 (2003) 12500 570 628 1190 1590 8050 14300 18300 43900 55600
2021-01-14 15:45 3.20 2090 56400 (2005) 561 (2003) 12500 570 628 1190 1590 8050 14300 18300 43900 55600
2021-01-14 14:45 3.25 2180 56400 (2005) 561 (2003) 12500 570 628 1190 1590 8050 14300 18300 43900 55600
2021-01-14 13:45 3.29 2260 56400 (2005) 561 (2003) 12500 570 628 1190 1590 8050 14300 18300 43900 55600
2021-01-14 12:45 3.35 2380 56400 (2005) 561 (2003) 12500 570 628 1190 1590 8050 14300 18300 43900 55600
2021-01-14 11:45 3.40 2480 56400 (2005) 561 (2003) 12500 570 628 1190 1590 8050 14300 18300 43900 55600
2021-01-14 10:45 3.45 2590 56400 (2005) 561 (2003) 12500 570 628 1190 1590 8050 14300 18300 43900 55600
2021-01-14 09:45 3.53 2770 56400 (2005) 561 (2003) 12500 570 628 1190 1590 8050 14300 18300 43900 55600
2021-01-14 08:45 3.59 2910 56400 (2005) 561 (2003) 12500 570 628 1190 1590 8050 14300 18300 43900 55600
2021-01-14 07:45 3.66 3080 56400 (2005) 561 (2003) 12500 570 628 1190 1590 8050 14300 18300 43900 55600
2021-01-14 06:45 3.73 3260 56400 (2005) 561 (2003) 12500 570 628 1190 1590 8050 14300 18300 43900 55600
2021-01-14 05:45 3.81 3480 56400 (2005) 561 (2003) 12500 570 628 1190 1590 8050 14300 18300 43900 55600
2021-01-14 04:45 3.88 3650 56400 (2005) 561 (2003) 12500 570 628 1190 1590 8050 14300 18300 43900 55600
2021-01-14 03:45 3.97 3890 56400 (2005) 561 (2003) 12500 570 628 1190 1590 8050 14300 18300 43900 55600
2021-01-14 02:45 4.05 4100 56400 (2005) 561 (2003) 12500 570 628 1190 1590 8050 14300 18300 43900 55600
2021-01-14 01:45 4.13 4300 56400 (2005) 561 (2003) 12500 570 628 1190 1590 8050 14300 18300 43900 55600
2021-01-14 00:45 4.21 4510 56400 (2005) 561 (2003) 12500 570 628 1190 1590 8050 14300 18300 43900 55600
2021-01-13 23:45 4.27 4670 58900 (2005) 570 (2003) 12800 578 646 1230 1550 8360 19400 20800 42700 57700
2021-01-13 22:45 4.34 4860 58900 (2005) 570 (2003) 12800 578 646 1230 1550 8360 19400 20800 42700 57700
2021-01-13 21:45 4.40 5030 58900 (2005) 570 (2003) 12800 578 646 1230 1550 8360 19400 20800 42700 57700
2021-01-13 20:45 4.44 5130 58900 (2005) 570 (2003) 12800 578 646 1230 1550 8360 19400 20800 42700 57700
2021-01-13 19:45 4.48 5240 58900 (2005) 570 (2003) 12800 578 646 1230 1550 8360 19400 20800 42700 57700
2021-01-13 18:45 4.51 5320 58900 (2005) 570 (2003) 12800 578 646 1230 1550 8360 19400 20800 42700 57700
2021-01-13 17:45 4.55 5430 58900 (2005) 570 (2003) 12800 578 646 1230 1550 8360 19400 20800 42700 57700
2021-01-13 16:45 4.60 5560 58900 (2005) 570 (2003) 12800 578 646 1230 1550 8360 19400 20800 42700 57700
2021-01-13 15:45 4.68 5790 58900 (2005) 570 (2003) 12800 578 646 1230 1550 8360 19400 20800 42700 57700
2021-01-13 14:45 4.76 6010 58900 (2005) 570 (2003) 12800 578 646 1230 1550 8360 19400 20800 42700 57700
2021-01-13 13:45 4.87 6310 58900 (2005) 570 (2003) 12800 578 646 1230 1550 8360 19400 20800 42700 57700
2021-01-13 12:45 4.96 6560 58900 (2005) 570 (2003) 12800 578 646 1230 1550 8360 19400 20800 42700 57700
2021-01-13 11:45 5.05 6810 58900 (2005) 570 (2003) 12800 578 646 1230 1550 8360 19400 20800 42700 57700
2021-01-13 10:45 5.11 6970 58900 (2005) 570 (2003) 12800 578 646 1230 1550 8360 19400 20800 42700 57700
2021-01-13 09:45 5.13 7020 58900 (2005) 570 (2003) 12800 578 646 1230 1550 8360 19400 20800 42700 57700
2021-01-13 08:45 5.10 6940 58900 (2005) 570 (2003) 12800 578 646 1230 1550 8360 19400 20800 42700 57700
2021-01-13 07:45 5.02 6730 58900 (2005) 570 (2003) 12800 578 646 1230 1550 8360 19400 20800 42700 57700
2021-01-13 06:45 4.88 6330 58900 (2005) 570 (2003) 12800 578 646 1230 1550 8360 19400 20800 42700 57700
2021-01-13 05:45 4.70 5840 58900 (2005) 570 (2003) 12800 578 646 1230 1550 8360 19400 20800 42700 57700
2021-01-13 04:45 4.51 5320 58900 (2005) 570 (2003) 12800 578 646 1230 1550 8360 19400 20800 42700 57700
2021-01-13 03:45 4.37 4950 58900 (2005) 570 (2003) 12800 578 646 1230 1550 8360 19400 20800 42700 57700
2021-01-13 02:45 4.35 4890 58900 (2005) 570 (2003) 12800 578 646 1230 1550 8360 19400 20800 42700 57700
2021-01-13 01:45 4.42 5080 58900 (2005) 570 (2003) 12800 578 646 1230 1550 8360 19400 20800 42700 57700
2021-01-13 00:45 4.53 5370 58900 (2005) 570 (2003) 12800 578 646 1230 1550 8360 19400 20800 42700 57700
2021-01-12 23:45 4.67 5760 54800 (2020) 617 (2007) 12500 621 709 1140 1300 2780 18800 23800 51000 54500
2021-01-12 22:45 4.81 6140 54800 (2020) 617 (2007) 12500 621 709 1140 1300 2780 18800 23800 51000 54500
2021-01-12 21:45 4.96 6560 54800 (2020) 617 (2007) 12500 621 709 1140 1300 2780 18800 23800 51000 54500
2021-01-12 20:45 5.10 6940 54800 (2020) 617 (2007) 12500 621 709 1140 1300 2780 18800 23800 51000 54500
2021-01-12 19:45 5.24 7320 54800 (2020) 617 (2007) 12500 621 709 1140 1300 2780 18800 23800 51000 54500
2021-01-12 18:45 5.36 7650 54800 (2020) 617 (2007) 12500 621 709 1140 1300 2780 18800 23800 51000 54500
2021-01-12 17:45 5.49 8020 54800 (2020) 617 (2007) 12500 621 709 1140 1300 2780 18800 23800 51000 54500
2021-01-12 16:45 5.59 8320 54800 (2020) 617 (2007) 12500 621 709 1140 1300 2780 18800 23800 51000 54500
2021-01-12 15:45 5.68 8580 54800 (2020) 617 (2007) 12500 621 709 1140 1300 2780 18800 23800 51000 54500
2021-01-12 14:45 5.76 8800 54800 (2020) 617 (2007) 12500 621 709 1140 1300 2780 18800 23800 51000 54500
2021-01-12 13:45 5.81 8940 54800 (2020) 617 (2007) 12500 621 709 1140 1300 2780 18800 23800 51000 54500
2021-01-12 12:45 5.84 9030 54800 (2020) 617 (2007) 12500 621 709 1140 1300 2780 18800 23800 51000 54500
2021-01-12 11:45 5.80 8910 54800 (2020) 617 (2007) 12500 621 709 1140 1300 2780 18800 23800 51000 54500
2021-01-12 10:45 5.68 8580 54800 (2020) 617 (2007) 12500 621 709 1140 1300 2780 18800 23800 51000 54500
2021-01-12 09:45 5.47 7970 54800 (2020) 617 (2007) 12500 621 709 1140 1300 2780 18800 23800 51000 54500
2021-01-12 08:45 5.14 7050 54800 (2020) 617 (2007) 12500 621 709 1140 1300 2780 18800 23800 51000 54500
2021-01-12 07:45 4.71 5870 54800 (2020) 617 (2007) 12500 621 709 1140 1300 2780 18800 23800 51000 54500
2021-01-12 06:45 4.31 4780 54800 (2020) 617 (2007) 12500 621 709 1140 1300 2780 18800 23800 51000 54500
2021-01-12 05:45 4.09 4200 54800 (2020) 617 (2007) 12500 621 709 1140 1300 2780 18800 23800 51000 54500
2021-01-12 04:45 4.07 4150 54800 (2020) 617 (2007) 12500 621 709 1140 1300 2780 18800 23800 51000 54500
2021-01-12 03:45 4.12 4280 54800 (2020) 617 (2007) 12500 621 709 1140 1300 2780 18800 23800 51000 54500
2021-01-12 02:45 4.18 4430 54800 (2020) 617 (2007) 12500 621 709 1140 1300 2780 18800 23800 51000 54500
2021-01-12 01:45 4.23 4560 54800 (2020) 617 (2007) 12500 621 709 1140 1300 2780 18800 23800 51000 54500
2021-01-12 00:45 4.26 4640 54800 (2020) 617 (2007) 12500 621 709 1140 1300 2780 18800 23800 51000 54500
2021-01-11 23:45 4.26 4640 72500 (2020) 626 (2007) 13200 626 688 1250 1400 2860 17700 25700 51000 68700
2021-01-11 22:45 4.22 4540 72500 (2020) 626 (2007) 13200 626 688 1250 1400 2860 17700 25700 51000 68700
2021-01-11 21:45 4.12 4280 72500 (2020) 626 (2007) 13200 626 688 1250 1400 2860 17700 25700 51000 68700
2021-01-11 20:45 3.97 3890 72500 (2020) 626 (2007) 13200 626 688 1250 1400 2860 17700 25700 51000 68700
2021-01-11 19:45 3.72 3240 72500 (2020) 626 (2007) 13200 626 688 1250 1400 2860 17700 25700 51000 68700
2021-01-11 18:45 3.39 2460 72500 (2020) 626 (2007) 13200 626 688 1250 1400 2860 17700 25700 51000 68700
2021-01-11 17:45 3.08 1880 72500 (2020) 626 (2007) 13200 626 688 1250 1400 2860 17700 25700 51000 68700
2021-01-11 16:45 2.88 1560 72500 (2020) 626 (2007) 13200 626 688 1250 1400 2860 17700 25700 51000 68700
2021-01-11 15:45 2.80 1450 72500 (2020) 626 (2007) 13200 626 688 1250 1400 2860 17700 25700 51000 68700
2021-01-11 14:45 2.78 1420 72500 (2020) 626 (2007) 13200 626 688 1250 1400 2860 17700 25700 51000 68700
2021-01-11 13:45 2.78 1420 72500 (2020) 626 (2007) 13200 626 688 1250 1400 2860 17700 25700 51000 68700
2021-01-11 12:45 2.78 1420 72500 (2020) 626 (2007) 13200 626 688 1250 1400 2860 17700 25700 51000 68700
2021-01-11 11:45 2.78 1420 72500 (2020) 626 (2007) 13200 626 688 1250 1400 2860 17700 25700 51000 68700
2021-01-11 10:45 2.78 1420 72500 (2020) 626 (2007) 13200 626 688 1250 1400 2860 17700 25700 51000 68700
2021-01-11 09:45 2.79 1430 72500 (2020) 626 (2007) 13200 626 688 1250 1400 2860 17700 25700 51000 68700
2021-01-11 08:45 2.79 1430 72500 (2020) 626 (2007) 13200 626 688 1250 1400 2860 17700 25700 51000 68700
2021-01-11 07:45 2.80 1450 72500 (2020) 626 (2007) 13200 626 688 1250 1400 2860 17700 25700 51000 68700
2021-01-11 06:45 2.80 1450 72500 (2020) 626 (2007) 13200 626 688 1250 1400 2860 17700 25700 51000 68700
2021-01-11 05:45 2.81 1460 72500 (2020) 626 (2007) 13200 626 688 1250 1400 2860 17700 25700 51000 68700
2021-01-11 04:45 2.81 1460 72500 (2020) 626 (2007) 13200 626 688 1250 1400 2860 17700 25700 51000 68700
2021-01-11 03:45 2.82 1470 72500 (2020) 626 (2007) 13200 626 688 1250 1400 2860 17700 25700 51000 68700
2021-01-11 02:45 2.82 1470 72500 (2020) 626 (2007) 13200 626 688 1250 1400 2860 17700 25700 51000 68700
2021-01-11 01:45 2.83 1490 72500 (2020) 626 (2007) 13200 626 688 1250 1400 2860 17700 25700 51000 68700
2021-01-11 00:45 2.83 1490 72500 (2020) 626 (2007) 13200 626 688 1250 1400 2860 17700 25700 51000 68700
2021-01-10 23:45 2.84 1500 53400 (2016) 588 (2003) 12600 598 647 1240 1330 6280 19400 27900 41100 52200
2021-01-10 22:45 2.85 1520 53400 (2016) 588 (2003) 12600 598 647 1240 1330 6280 19400 27900 41100 52200
2021-01-10 21:45 2.85 1520 53400 (2016) 588 (2003) 12600 598 647 1240 1330 6280 19400 27900 41100 52200
2021-01-10 20:45 2.86 1530 53400 (2016) 588 (2003) 12600 598 647 1240 1330 6280 19400 27900 41100 52200
2021-01-10 19:45 2.87 1540 53400 (2016) 588 (2003) 12600 598 647 1240 1330 6280 19400 27900 41100 52200
2021-01-10 18:45 2.88 1560 53400 (2016) 588 (2003) 12600 598 647 1240 1330 6280 19400 27900 41100 52200
2021-01-10 17:45 2.89 1570 53400 (2016) 588 (2003) 12600 598 647 1240 1330 6280 19400 27900 41100 52200
2021-01-10 16:45 2.90 1590 53400 (2016) 588 (2003) 12600 598 647 1240 1330 6280 19400 27900 41100 52200
2021-01-10 15:45 2.91 1600 53400 (2016) 588 (2003) 12600 598 647 1240 1330 6280 19400 27900 41100 52200
2021-01-10 14:45 2.92 1620 53400 (2016) 588 (2003) 12600 598 647 1240 1330 6280 19400 27900 41100 52200
2021-01-10 13:45 2.95 1660 53400 (2016) 588 (2003) 12600 598 647 1240 1330 6280 19400 27900 41100 52200
2021-01-10 12:45 2.96 1680 53400 (2016) 588 (2003) 12600 598 647 1240 1330 6280 19400 27900 41100 52200
2021-01-10 11:45 2.97 1700 53400 (2016) 588 (2003) 12600 598 647 1240 1330 6280 19400 27900 41100 52200
2021-01-10 10:45 2.99 1730 53400 (2016) 588 (2003) 12600 598 647 1240 1330 6280 19400 27900 41100 52200
2021-01-10 09:45 3.01 1760 53400 (2016) 588 (2003) 12600 598 647 1240 1330 6280 19400 27900 41100 52200
2021-01-10 08:45 3.04 1810 53400 (2016) 588 (2003) 12600 598 647 1240 1330 6280 19400 27900 41100 52200
2021-01-10 07:45 3.07 1860 53400 (2016) 588 (2003) 12600 598 647 1240 1330 6280 19400 27900 41100 52200
2021-01-10 06:45 3.10 1910 53400 (2016) 588 (2003) 12600 598 647 1240 1330 6280 19400 27900 41100 52200
2021-01-10 05:45 3.13 1960 53400 (2016) 588 (2003) 12600 598 647 1240 1330 6280 19400 27900 41100 52200
2021-01-10 04:45 3.16 2010 53400 (2016) 588 (2003) 12600 598 647 1240 1330 6280 19400 27900 41100 52200
2021-01-10 03:45 3.20 2090 53400 (2016) 588 (2003) 12600 598 647 1240 1330 6280 19400 27900 41100 52200
2021-01-10 02:45 3.24 2160 53400 (2016) 588 (2003) 12600 598 647 1240 1330 6280 19400 27900 41100 52200
2021-01-10 01:45 3.29 2260 53400 (2016) 588 (2003) 12600 598 647 1240 1330 6280 19400 27900 41100 52200
2021-01-09 23:45 3.39 2460 52200 (2016) 621 (2006) 12800 630 690 1520 1650 7070 19900 23900 39100 51400
2021-01-09 22:45 3.45 2590 52200 (2016) 621 (2006) 12800 630 690 1520 1650 7070 19900 23900 39100 51400
2021-01-09 20:45 3.58 2880 52200 (2016) 621 (2006) 12800 630 690 1520 1650 7070 19900 23900 39100 51400
2021-01-09 19:45 3.65 3060 52200 (2016) 621 (2006) 12800 630 690 1520 1650 7070 19900 23900 39100 51400
2021-01-09 18:45 3.73 3260 52200 (2016) 621 (2006) 12800 630 690 1520 1650 7070 19900 23900 39100 51400
2021-01-09 17:45 3.82 3510 52200 (2016) 621 (2006) 12800 630 690 1520 1650 7070 19900 23900 39100 51400
2021-01-09 16:45 3.91 3730 52200 (2016) 621 (2006) 12800 630 690 1520 1650 7070 19900 23900 39100 51400
2021-01-09 15:45 4.02 4020 52200 (2016) 621 (2006) 12800 630 690 1520 1650 7070 19900 23900 39100 51400
2021-01-09 14:45 4.13 4300 52200 (2016) 621 (2006) 12800 630 690 1520 1650 7070 19900 23900 39100 51400
2021-01-09 13:45 4.24 4590 52200 (2016) 621 (2006) 12800 630 690 1520 1650 7070 19900 23900 39100 51400
2021-01-09 12:45 4.36 4920 52200 (2016) 621 (2006) 12800 630 690 1520 1650 7070 19900 23900 39100 51400
2021-01-09 11:45 4.49 5270 52200 (2016) 621 (2006) 12800 630 690 1520 1650 7070 19900 23900 39100 51400
2021-01-09 10:45 4.60 5560 52200 (2016) 621 (2006) 12800 630 690 1520 1650 7070 19900 23900 39100 51400
2021-01-09 09:45 4.74 5950 52200 (2016) 621 (2006) 12800 630 690 1520 1650 7070 19900 23900 39100 51400
2021-01-09 08:45 4.86 6280 52200 (2016) 621 (2006) 12800 630 690 1520 1650 7070 19900 23900 39100 51400
2021-01-09 07:45 4.97 6590 52200 (2016) 621 (2006) 12800 630 690 1520 1650 7070 19900 23900 39100 51400
2021-01-09 06:45 5.08 6890 52200 (2016) 621 (2006) 12800 630 690 1520 1650 7070 19900 23900 39100 51400
2021-01-09 05:45 5.17 7130 52200 (2016) 621 (2006) 12800 630 690 1520 1650 7070 19900 23900 39100 51400
2021-01-09 04:45 5.25 7350 52200 (2016) 621 (2006) 12800 630 690 1520 1650 7070 19900 23900 39100 51400
2021-01-09 03:45 5.30 7480 52200 (2016) 621 (2006) 12800 630 690 1520 1650 7070 19900 23900 39100 51400
2021-01-09 02:45 5.33 7570 52200 (2016) 621 (2006) 12800 630 690 1520 1650 7070 19900 23900 39100 51400
2021-01-09 01:45 5.35 7620 52200 (2016) 621 (2006) 12800 630 690 1520 1650 7070 19900 23900 39100 51400
2021-01-09 00:45 5.34 7600 52200 (2016) 621 (2006) 12800 630 690 1520 1650 7070 19900 23900 39100 51400
2021-01-08 23:45 5.32 7540 51300 (2005) 670 (2006) 13600 678 730 1560 2140 8350 20100 24200 41800 51300
2021-01-08 22:45 5.28 7430 51300 (2005) 670 (2006) 13600 678 730 1560 2140 8350 20100 24200 41800 51300
2021-01-08 21:45 5.20 7210 51300 (2005) 670 (2006) 13600 678 730 1560 2140 8350 20100 24200 41800 51300
2021-01-08 20:45 5.08 6890 51300 (2005) 670 (2006) 13600 678 730 1560 2140 8350 20100 24200 41800 51300
2021-01-08 19:45 4.87 6310 51300 (2005) 670 (2006) 13600 678 730 1560 2140 8350 20100 24200 41800 51300
2021-01-08 18:45 4.60 5560 51300 (2005) 670 (2006) 13600 678 730 1560 2140 8350 20100 24200 41800 51300
2021-01-08 17:45 4.33 4840 51300 (2005) 670 (2006) 13600 678 730 1560 2140 8350 20100 24200 41800 51300
2021-01-08 16:45 4.15 4350 51300 (2005) 670 (2006) 13600 678 730 1560 2140 8350 20100 24200 41800 51300
2021-01-08 15:45 4.11 4250 51300 (2005) 670 (2006) 13600 678 730 1560 2140 8350 20100 24200 41800 51300
2021-01-08 14:45 4.18 4430 51300 (2005) 670 (2006) 13600 678 730 1560 2140 8350 20100 24200 41800 51300
2021-01-08 13:45 4.29 4730 51300 (2005) 670 (2006) 13600 678 730 1560 2140 8350 20100 24200 41800 51300
2021-01-08 12:45 4.41 5060 51300 (2005) 670 (2006) 13600 678 730 1560 2140 8350 20100 24200 41800 51300
2021-01-08 11:45 4.52 5350 51300 (2005) 670 (2006) 13600 678 730 1560 2140 8350 20100 24200 41800 51300
2021-01-08 10:45 4.63 5650 51300 (2005) 670 (2006) 13600 678 730 1560 2140 8350 20100 24200 41800 51300
2021-01-08 09:45 4.73 5930 51300 (2005) 670 (2006) 13600 678 730 1560 2140 8350 20100 24200 41800 51300
2021-01-08 08:45 4.82 6170 51300 (2005) 670 (2006) 13600 678 730 1560 2140 8350 20100 24200 41800 51300
2021-01-08 07:45 4.91 6420 51300 (2005) 670 (2006) 13600 678 730 1560 2140 8350 20100 24200 41800 51300
2021-01-08 06:45 4.97 6590 51300 (2005) 670 (2006) 13600 678 730 1560 2140 8350 20100 24200 41800 51300
2021-01-08 05:45 5.02 6730 51300 (2005) 670 (2006) 13600 678 730 1560 2140 8350 20100 24200 41800 51300
2021-01-08 04:45 5.04 6780 51300 (2005) 670 (2006) 13600 678 730 1560 2140 8350 20100 24200 41800 51300
2021-01-08 03:45 5.05 6810 51300 (2005) 670 (2006) 13600 678 730 1560 2140 8350 20100 24200 41800 51300
2021-01-08 02:45 5.04 6780 51300 (2005) 670 (2006) 13600 678 730 1560 2140 8350 20100 24200 41800 51300
2021-01-08 01:45 5.04 6780 51300 (2005) 670 (2006) 13600 678 730 1560 2140 8350 20100 24200 41800 51300
2021-01-08 00:45 5.05 6810 51300 (2005) 670 (2006) 13600 678 730 1560 2140 8350 20100 24200 41800 51300
2021-01-07 23:45 5.05 6810 62100 (2005) 572 (2003) 12600 608 784 1480 1570 5080 20900 21700 41000 59900
2021-01-07 22:45 5.08 6890 62100 (2005) 572 (2003) 12600 608 784 1480 1570 5080 20900 21700 41000 59900
2021-01-07 21:45 5.06 6840 62100 (2005) 572 (2003) 12600 608 784 1480 1570 5080 20900 21700 41000 59900
2021-01-07 20:45 4.99 6640 62100 (2005) 572 (2003) 12600 608 784 1480 1570 5080 20900 21700 41000 59900
2021-01-07 19:45 4.86 6280 62100 (2005) 572 (2003) 12600 608 784 1480 1570 5080 20900 21700 41000 59900
2021-01-07 18:45 4.67 5760 62100 (2005) 572 (2003) 12600 608 784 1480 1570 5080 20900 21700 41000 59900
2021-01-07 17:45 4.42 5080 62100 (2005) 572 (2003) 12600 608 784 1480 1570 5080 20900 21700 41000 59900
2021-01-07 16:45 4.16 4380 62100 (2005) 572 (2003) 12600 608 784 1480 1570 5080 20900 21700 41000 59900
2021-01-07 15:45 3.98 3910 62100 (2005) 572 (2003) 12600 608 784 1480 1570 5080 20900 21700 41000 59900
2021-01-07 14:45 3.90 3700 62100 (2005) 572 (2003) 12600 608 784 1480 1570 5080 20900 21700 41000 59900
2021-01-07 13:45 3.88 3650 62100 (2005) 572 (2003) 12600 608 784 1480 1570 5080 20900 21700 41000 59900
2021-01-07 12:45 3.87 3630 62100 (2005) 572 (2003) 12600 608 784 1480 1570 5080 20900 21700 41000 59900
2021-01-07 11:45 3.83 3530 62100 (2005) 572 (2003) 12600 608 784 1480 1570 5080 20900 21700 41000 59900
2021-01-07 10:45 3.76 3340 62100 (2005) 572 (2003) 12600 608 784 1480 1570 5080 20900 21700 41000 59900
2021-01-07 09:45 3.68 3130 62100 (2005) 572 (2003) 12600 608 784 1480 1570 5080 20900 21700 41000 59900
2021-01-07 08:45 3.57 2860 62100 (2005) 572 (2003) 12600 608 784 1480 1570 5080 20900 21700 41000 59900
2021-01-07 07:45 3.46 2610 62100 (2005) 572 (2003) 12600 608 784 1480 1570 5080 20900 21700 41000 59900
2021-01-07 06:45 3.38 2440 62100 (2005) 572 (2003) 12600 608 784 1480 1570 5080 20900 21700 41000 59900
2021-01-07 05:45 3.32 2320 62100 (2005) 572 (2003) 12600 608 784 1480 1570 5080 20900 21700 41000 59900
2021-01-07 04:45 3.29 2260 62100 (2005) 572 (2003) 12600 608 784 1480 1570 5080 20900 21700 41000 59900
2021-01-07 03:45 3.27 2220 62100 (2005) 572 (2003) 12600 608 784 1480 1570 5080 20900 21700 41000 59900
2021-01-07 02:45 3.26 2200 62100 (2005) 572 (2003) 12600 608 784 1480 1570 5080 20900 21700 41000 59900
2021-01-07 01:45 3.25 2180 62100 (2005) 572 (2003) 12600 608 784 1480 1570 5080 20900 21700 41000 59900
2021-01-07 00:45 3.22 2120 62100 (2005) 572 (2003) 12600 608 784 1480 1570 5080 20900 21700 41000 59900
2021-01-06 23:45 3.17 2030 79600 (2005) 568 (2003) 12500 616 834 1540 1690 5120 15500 21200 40100 73500
2021-01-06 22:45 3.12 1940 79600 (2005) 568 (2003) 12500 616 834 1540 1690 5120 15500 21200 40100 73500
2021-01-06 21:45 3.06 1840 79600 (2005) 568 (2003) 12500 616 834 1540 1690 5120 15500 21200 40100 73500
2021-01-06 20:45 3.01 1760 79600 (2005) 568 (2003) 12500 616 834 1540 1690 5120 15500 21200 40100 73500
2021-01-06 19:45 2.97 1700 79600 (2005) 568 (2003) 12500 616 834 1540 1690 5120 15500 21200 40100 73500
2021-01-06 18:45 2.94 1650 79600 (2005) 568 (2003) 12500 616 834 1540 1690 5120 15500 21200 40100 73500
2021-01-06 17:45 2.93 1630 79600 (2005) 568 (2003) 12500 616 834 1540 1690 5120 15500 21200 40100 73500
2021-01-06 16:45 2.92 1620 79600 (2005) 568 (2003) 12500 616 834 1540 1690 5120 15500 21200 40100 73500
2021-01-06 15:45 2.93 1630 79600 (2005) 568 (2003) 12500 616 834 1540 1690 5120 15500 21200 40100 73500
2021-01-06 14:45 2.93 1630 79600 (2005) 568 (2003) 12500 616 834 1540 1690 5120 15500 21200 40100 73500
2021-01-06 13:45 2.94 1650 79600 (2005) 568 (2003) 12500 616 834 1540 1690 5120 15500 21200 40100 73500
2021-01-06 12:45 2.94 1650 79600 (2005) 568 (2003) 12500 616 834 1540 1690 5120 15500 21200 40100 73500
2021-01-06 11:45 2.94 1650 79600 (2005) 568 (2003) 12500 616 834 1540 1690 5120 15500 21200 40100 73500
2021-01-06 10:45 2.95 1660 79600 (2005) 568 (2003) 12500 616 834 1540 1690 5120 15500 21200 40100 73500
2021-01-06 09:45 2.95 1660 79600 (2005) 568 (2003) 12500 616 834 1540 1690 5120 15500 21200 40100 73500
2021-01-06 08:45 2.95 1660 79600 (2005) 568 (2003) 12500 616 834 1540 1690 5120 15500 21200 40100 73500
2021-01-06 07:45 2.96 1680 79600 (2005) 568 (2003) 12500 616 834 1540 1690 5120 15500 21200 40100 73500
2021-01-06 06:45 2.96 1680 79600 (2005) 568 (2003) 12500 616 834 1540 1690 5120 15500 21200 40100 73500
2021-01-06 05:45 2.97 1700 79600 (2005) 568 (2003) 12500 616 834 1540 1690 5120 15500 21200 40100 73500
2021-01-06 04:45 2.97 1700 79600 (2005) 568 (2003) 12500 616 834 1540 1690 5120 15500 21200 40100 73500
2021-01-06 03:45 2.98 1710 79600 (2005) 568 (2003) 12500 616 834 1540 1690 5120 15500 21200 40100 73500
2021-01-06 02:45 2.98 1710 79600 (2005) 568 (2003) 12500 616 834 1540 1690 5120 15500 21200 40100 73500
2021-01-06 01:45 2.98 1710 79600 (2005) 568 (2003) 12500 616 834 1540 1690 5120 15500 21200 40100 73500
2021-01-06 00:45 2.99 1730 79600 (2005) 568 (2003) 12500 616 834 1540 1690 5120 15500 21200 40100 73500
2021-01-05 23:45 3.00 1740 67700 (2005) 577 (2003) 11400 589 882 1410 1730 3620 19100 20900 34900 62700
2021-01-05 22:45 3.00 1740 67700 (2005) 577 (2003) 11400 589 882 1410 1730 3620 19100 20900 34900 62700
2021-01-05 21:45 3.00 1740 67700 (2005) 577 (2003) 11400 589 882 1410 1730 3620 19100 20900 34900 62700
2021-01-05 20:45 3.01 1760 67700 (2005) 577 (2003) 11400 589 882 1410 1730 3620 19100 20900 34900 62700
2021-01-05 19:45 3.01 1760 67700 (2005) 577 (2003) 11400 589 882 1410 1730 3620 19100 20900 34900 62700
2021-01-05 18:45 3.02 1780 67700 (2005) 577 (2003) 11400 589 882 1410 1730 3620 19100 20900 34900 62700
2021-01-05 17:45 3.02 1780 67700 (2005) 577 (2003) 11400 589 882 1410 1730 3620 19100 20900 34900 62700
2021-01-05 16:45 3.02 1780 67700 (2005) 577 (2003) 11400 589 882 1410 1730 3620 19100 20900 34900 62700
2021-01-05 15:45 3.03 1790 67700 (2005) 577 (2003) 11400 589 882 1410 1730 3620 19100 20900 34900 62700
2021-01-05 14:45 3.03 1790 67700 (2005) 577 (2003) 11400 589 882 1410 1730 3620 19100 20900 34900 62700
2021-01-05 13:45 3.04 1810 67700 (2005) 577 (2003) 11400 589 882 1410 1730 3620 19100 20900 34900 62700
2021-01-05 12:45 3.04 1810 67700 (2005) 577 (2003) 11400 589 882 1410 1730 3620 19100 20900 34900 62700
2021-01-05 11:45 3.04 1810 67700 (2005) 577 (2003) 11400 589 882 1410 1730 3620 19100 20900 34900 62700
2021-01-05 10:45 3.04 1810 67700 (2005) 577 (2003) 11400 589 882 1410 1730 3620 19100 20900 34900 62700
2021-01-05 09:45 3.04 1810 67700 (2005) 577 (2003) 11400 589 882 1410 1730 3620 19100 20900 34900 62700
2021-01-05 08:45 3.04 1810 67700 (2005) 577 (2003) 11400 589 882 1410 1730 3620 19100 20900 34900 62700
2021-01-05 07:45 3.04 1810 67700 (2005) 577 (2003) 11400 589 882 1410 1730 3620 19100 20900 34900 62700
2021-01-05 06:45 3.04 1810 67700 (2005) 577 (2003) 11400 589 882 1410 1730 3620 19100 20900 34900 62700
2021-01-05 05:45 3.04 1810 67700 (2005) 577 (2003) 11400 589 882 1410 1730 3620 19100 20900 34900 62700
2021-01-05 04:45 3.05 1820 67700 (2005) 577 (2003) 11400 589 882 1410 1730 3620 19100 20900 34900 62700
2021-01-05 03:45 3.05 1820 67700 (2005) 577 (2003) 11400 589 882 1410 1730 3620 19100 20900 34900 62700
2021-01-05 02:45 3.05 1820 67700 (2005) 577 (2003) 11400 589 882 1410 1730 3620 19100 20900 34900 62700
2021-01-05 01:45 3.05 1820 67700 (2005) 577 (2003) 11400 589 882 1410 1730 3620 19100 20900 34900 62700
2021-01-05 00:45 3.05 1820 67700 (2005) 577 (2003) 11400 589 882 1410 1730 3620 19100 20900 34900 62700
2021-01-04 23:45 3.05 1820 41700 (2016) 586 (2003) 9410 597 690 1240 1650 2910 17400 20400 32900 40500
2021-01-04 22:45 3.05 1820 41700 (2016) 586 (2003) 9410 597 690 1240 1650 2910 17400 20400 32900 40500
2021-01-04 21:45 3.05 1820 41700 (2016) 586 (2003) 9410 597 690 1240 1650 2910 17400 20400 32900 40500
2021-01-04 20:45 3.05 1820 41700 (2016) 586 (2003) 9410 597 690 1240 1650 2910 17400 20400 32900 40500
2021-01-04 19:45 3.05 1820 41700 (2016) 586 (2003) 9410 597 690 1240 1650 2910 17400 20400 32900 40500
2021-01-04 18:45 3.05 1820 41700 (2016) 586 (2003) 9410 597 690 1240 1650 2910 17400 20400 32900 40500
2021-01-04 17:45 3.05 1820 41700 (2016) 586 (2003) 9410 597 690 1240 1650 2910 17400 20400 32900 40500
2021-01-04 16:45 3.05 1820 41700 (2016) 586 (2003) 9410 597 690 1240 1650 2910 17400 20400 32900 40500
2021-01-04 15:45 3.05 1820 41700 (2016) 586 (2003) 9410 597 690 1240 1650 2910 17400 20400 32900 40500
2021-01-04 14:45 3.05 1820 41700 (2016) 586 (2003) 9410 597 690 1240 1650 2910 17400 20400 32900 40500
2021-01-04 13:45 3.05 1820 41700 (2016) 586 (2003) 9410 597 690 1240 1650 2910 17400 20400 32900 40500
2021-01-04 12:45 3.05 1820 41700 (2016) 586 (2003) 9410 597 690 1240 1650 2910 17400 20400 32900 40500
2021-01-04 11:45 3.05 1820 41700 (2016) 586 (2003) 9410 597 690 1240 1650 2910 17400 20400 32900 40500
2021-01-04 10:45 3.05 1820 41700 (2016) 586 (2003) 9410 597 690 1240 1650 2910 17400 20400 32900 40500
2021-01-04 09:45 3.05 1820 41700 (2016) 586 (2003) 9410 597 690 1240 1650 2910 17400 20400 32900 40500
2021-01-04 08:45 3.05 1820 41700 (2016) 586 (2003) 9410 597 690 1240 1650 2910 17400 20400 32900 40500
2021-01-04 07:45 3.06 1840 41700 (2016) 586 (2003) 9410 597 690 1240 1650 2910 17400 20400 32900 40500
2021-01-04 06:45 3.06 1840 41700 (2016) 586 (2003) 9410 597 690 1240 1650 2910 17400 20400 32900 40500
2021-01-04 05:45 3.06 1840 41700 (2016) 586 (2003) 9410 597 690 1240 1650 2910 17400 20400 32900 40500
2021-01-04 04:45 3.06 1840 41700 (2016) 586 (2003) 9410 597 690 1240 1650 2910 17400 20400 32900 40500
2021-01-04 03:45 3.07 1860 41700 (2016) 586 (2003) 9410 597 690 1240 1650 2910 17400 20400 32900 40500
2021-01-04 02:45 3.07 1860 41700 (2016) 586 (2003) 9410 597 690 1240 1650 2910 17400 20400 32900 40500
2021-01-04 01:45 3.08 1880 41700 (2016) 586 (2003) 9410 597 690 1240 1650 2910 17400 20400 32900 40500
2021-01-04 00:45 3.08 1880 41700 (2016) 586 (2003) 9410 597 690 1240 1650 2910 17400 20400 32900 40500
2021-01-03 23:45 3.09 1890 37500 (2016) 594 (2003) 8490 604 655 1250 1390 3600 11600 14600 28600 36400
2021-01-03 22:45 3.10 1910 37500 (2016) 594 (2003) 8490 604 655 1250 1390 3600 11600 14600 28600 36400
2021-01-03 21:45 3.10 1910 37500 (2016) 594 (2003) 8490 604 655 1250 1390 3600 11600 14600 28600 36400
2021-01-03 20:45 3.12 1940 37500 (2016) 594 (2003) 8490 604 655 1250 1390 3600 11600 14600 28600 36400
2021-01-03 19:45 3.12 1940 37500 (2016) 594 (2003) 8490 604 655 1250 1390 3600 11600 14600 28600 36400
2021-01-03 18:45 3.13 1960 37500 (2016) 594 (2003) 8490 604 655 1250 1390 3600 11600 14600 28600 36400
2021-01-03 17:45 3.14 1980 37500 (2016) 594 (2003) 8490 604 655 1250 1390 3600 11600 14600 28600 36400
2021-01-03 16:45 3.15 2000 37500 (2016) 594 (2003) 8490 604 655 1250 1390 3600 11600 14600 28600 36400
2021-01-03 15:45 3.16 2010 37500 (2016) 594 (2003) 8490 604 655 1250 1390 3600 11600 14600 28600 36400
2021-01-03 14:45 3.18 2050 37500 (2016) 594 (2003) 8490 604 655 1250 1390 3600 11600 14600 28600 36400
2021-01-03 13:45 3.18 2050 37500 (2016) 594 (2003) 8490 604 655 1250 1390 3600 11600 14600 28600 36400
2021-01-03 12:45 3.20 2090 37500 (2016) 594 (2003) 8490 604 655 1250 1390 3600 11600 14600 28600 36400
2021-01-03 11:45 3.21 2110 37500 (2016) 594 (2003) 8490 604 655 1250 1390 3600 11600 14600 28600 36400
2021-01-03 10:45 3.22 2120 37500 (2016) 594 (2003) 8490 604 655 1250 1390 3600 11600 14600 28600 36400
2021-01-03 09:45 3.23 2140 37500 (2016) 594 (2003) 8490 604 655 1250 1390 3600 11600 14600 28600 36400
2021-01-03 08:45 3.24 2160 37500 (2016) 594 (2003) 8490 604 655 1250 1390 3600 11600 14600 28600 36400
2021-01-03 07:45 3.26 2200 37500 (2016) 594 (2003) 8490 604 655 1250 1390 3600 11600 14600 28600 36400
2021-01-03 06:45 3.27 2220 37500 (2016) 594 (2003) 8490 604 655 1250 1390 3600 11600 14600 28600 36400
2021-01-03 05:45 3.29 2260 37500 (2016) 594 (2003) 8490 604 655 1250 1390 3600 11600 14600 28600 36400
2021-01-03 04:45 3.30 2280 37500 (2016) 594 (2003) 8490 604 655 1250 1390 3600 11600 14600 28600 36400
2021-01-03 03:45 3.32 2320 37500 (2016) 594 (2003) 8490 604 655 1250 1390 3600 11600 14600 28600 36400
2021-01-03 02:45 3.33 2340 37500 (2016) 594 (2003) 8490 604 655 1250 1390 3600 11600 14600 28600 36400
2021-01-03 01:45 3.35 2380 37500 (2016) 594 (2003) 8490 604 655 1250 1390 3600 11600 14600 28600 36400
2021-01-03 00:45 3.36 2400 37500 (2016) 594 (2003) 8490 604 655 1250 1390 3600 11600 14600 28600 36400
2021-01-02 23:45 3.38 2440 35200 (2016) 588 (2003) 7750 596 640 1250 1300 2320 15000 16800 28100 34400
2021-01-02 22:45 3.41 2500 35200 (2016) 588 (2003) 7750 596 640 1250 1300 2320 15000 16800 28100 34400
2021-01-02 21:45 3.43 2540 35200 (2016) 588 (2003) 7750 596 640 1250 1300 2320 15000 16800 28100 34400
2021-01-02 20:45 3.44 2570 35200 (2016) 588 (2003) 7750 596 640 1250 1300 2320 15000 16800 28100 34400
2021-01-02 19:45 3.47 2630 35200 (2016) 588 (2003) 7750 596 640 1250 1300 2320 15000 16800 28100 34400
2021-01-02 18:45 3.49 2670 35200 (2016) 588 (2003) 7750 596 640 1250 1300 2320 15000 16800 28100 34400
2021-01-02 17:45 3.51 2720 35200 (2016) 588 (2003) 7750 596 640 1250 1300 2320 15000 16800 28100 34400
2021-01-02 16:45 3.53 2770 35200 (2016) 588 (2003) 7750 596 640 1250 1300 2320 15000 16800 28100 34400
2021-01-02 15:45 3.55 2810 35200 (2016) 588 (2003) 7750 596 640 1250 1300 2320 15000 16800 28100 34400
2021-01-02 14:45 3.57 2860 35200 (2016) 588 (2003) 7750 596 640 1250 1300 2320 15000 16800 28100 34400
2021-01-02 13:45 3.60 2930 35200 (2016) 588 (2003) 7750 596 640 1250 1300 2320 15000 16800 28100 34400
2021-01-02 12:45 3.62 2980 35200 (2016) 588 (2003) 7750 596 640 1250 1300 2320 15000 16800 28100 34400
2021-01-02 11:45 3.64 3030 35200 (2016) 588 (2003) 7750 596 640 1250 1300 2320 15000 16800 28100 34400
2021-01-02 10:45 3.66 3080 35200 (2016) 588 (2003) 7750 596 640 1250 1300 2320 15000 16800 28100 34400
2021-01-02 09:45 3.68 3130 35200 (2016) 588 (2003) 7750 596 640 1250 1300 2320 15000 16800 28100 34400
2021-01-02 08:45 3.70 3180 35200 (2016) 588 (2003) 7750 596 640 1250 1300 2320 15000 16800 28100 34400
2021-01-02 07:45 3.72 3240 35200 (2016) 588 (2003) 7750 596 640 1250 1300 2320 15000 16800 28100 34400
2021-01-02 06:45 3.73 3260 35200 (2016) 588 (2003) 7750 596 640 1250 1300 2320 15000 16800 28100 34400
2021-01-02 05:45 3.74 3290 35200 (2016) 588 (2003) 7750 596 640 1250 1300 2320 15000 16800 28100 34400
2021-01-02 04:45 3.75 3320 35200 (2016) 588 (2003) 7750 596 640 1250 1300 2320 15000 16800 28100 34400
2021-01-02 03:45 3.75 3320 35200 (2016) 588 (2003) 7750 596 640 1250 1300 2320 15000 16800 28100 34400
2021-01-02 02:45 3.74 3290 35200 (2016) 588 (2003) 7750 596 640 1250 1300 2320 15000 16800 28100 34400
2021-01-02 01:45 3.72 3240 35200 (2016) 588 (2003) 7750 596 640 1250 1300 2320 15000 16800 28100 34400
2021-01-02 00:45 3.69 3160 35200 (2016) 588 (2003) 7750 596 640 1250 1300 2320 15000 16800 28100 34400
2021-01-01 23:45 3.64 3030 45200 (2016) 553 (2003) 9000 566 630 1130 1170 2570 14100 18400 32700 43300
2021-01-01 22:45 3.59 2910 45200 (2016) 553 (2003) 9000 566 630 1130 1170 2570 14100 18400 32700 43300
2021-01-01 21:45 3.54 2790 45200 (2016) 553 (2003) 9000 566 630 1130 1170 2570 14100 18400 32700 43300
2021-01-01 20:45 3.49 2670 45200 (2016) 553 (2003) 9000 566 630 1130 1170 2570 14100 18400 32700 43300
2021-01-01 19:45 3.45 2590 45200 (2016) 553 (2003) 9000 566 630 1130 1170 2570 14100 18400 32700 43300
2021-01-01 18:45 3.42 2520 45200 (2016) 553 (2003) 9000 566 630 1130 1170 2570 14100 18400 32700 43300
2021-01-01 17:45 3.39 2460 45200 (2016) 553 (2003) 9000 566 630 1130 1170 2570 14100 18400 32700 43300
2021-01-01 16:45 3.34 2360 45200 (2016) 553 (2003) 9000 566 630 1130 1170 2570 14100 18400 32700 43300
2021-01-01 15:45 3.30 2280 45200 (2016) 553 (2003) 9000 566 630 1130 1170 2570 14100 18400 32700 43300
2021-01-01 14:45 3.24 2160 45200 (2016) 553 (2003) 9000 566 630 1130 1170 2570 14100 18400 32700 43300
2021-01-01 13:45 3.18 2050 45200 (2016) 553 (2003) 9000 566 630 1130 1170 2570 14100 18400 32700 43300
2021-01-01 12:45 3.12 1940 45200 (2016) 553 (2003) 9000 566 630 1130 1170 2570 14100 18400 32700 43300
2021-01-01 11:45 3.05 1820 45200 (2016) 553 (2003) 9000 566 630 1130 1170 2570 14100 18400 32700 43300
2021-01-01 10:45 2.97 1700 45200 (2016) 553 (2003) 9000 566 630 1130 1170 2570 14100 18400 32700 43300
2021-01-01 09:45 2.89 1570 45200 (2016) 553 (2003) 9000 566 630 1130 1170 2570 14100 18400 32700 43300
2021-01-01 08:45 2.84 1500 45200 (2016) 553 (2003) 9000 566 630 1130 1170 2570 14100 18400 32700 43300
2021-01-01 07:45 2.80 1450 45200 (2016) 553 (2003) 9000 566 630 1130 1170 2570 14100 18400 32700 43300
2021-01-01 06:45 2.75 1380 45200 (2016) 553 (2003) 9000 566 630 1130 1170 2570 14100 18400 32700 43300
2021-01-01 05:45 2.74 1360 45200 (2016) 553 (2003) 9000 566 630 1130 1170 2570 14100 18400 32700 43300
2021-01-01 03:45 2.62 1210 45200 (2016) 553 (2003) 9000 566 630 1130 1170 2570 14100 18400 32700 43300
2021-01-01 02:45 2.62 1210 45200 (2016) 553 (2003) 9000 566 630 1130 1170 2570 14100 18400 32700 43300
2021-01-01 01:45 2.60 1190 45200 (2016) 553 (2003) 9000 566 630 1130 1170 2570 14100 18400 32700 43300
2021-01-01 00:45 2.60 1190 45200 (2016) 553 (2003) 9000 566 630 1130 1170 2570 14100 18400 32700 43300
2020-12-31 23:45 2.59 1180 71600 (2016) 542 (2003) 10500 563 648 1030 1150 2350 14200 21200 28400 63100
2020-12-31 22:45 2.59 1180 71600 (2016) 542 (2003) 10500 563 648 1030 1150 2350 14200 21200 28400 63100
2020-12-31 21:45 2.59 1180 71600 (2016) 542 (2003) 10500 563 648 1030 1150 2350 14200 21200 28400 63100
2020-12-31 20:45 2.59 1180 71600 (2016) 542 (2003) 10500 563 648 1030 1150 2350 14200 21200 28400 63100
2020-12-31 19:45 2.59 1180 71600 (2016) 542 (2003) 10500 563 648 1030 1150 2350 14200 21200 28400 63100
2020-12-31 18:45 2.59 1180 71600 (2016) 542 (2003) 10500 563 648 1030 1150 2350 14200 21200 28400 63100
2020-12-31 17:45 2.59 1180 71600 (2016) 542 (2003) 10500 563 648 1030 1150 2350 14200 21200 28400 63100
2020-12-31 16:45 2.59 1180 71600 (2016) 542 (2003) 10500 563 648 1030 1150 2350 14200 21200 28400 63100
2020-12-31 15:45 2.59 1180 71600 (2016) 542 (2003) 10500 563 648 1030 1150 2350 14200 21200 28400 63100
2020-12-31 14:45 2.59 1180 71600 (2016) 542 (2003) 10500 563 648 1030 1150 2350 14200 21200 28400 63100
2020-12-31 13:45 2.59 1180 71600 (2016) 542 (2003) 10500 563 648 1030 1150 2350 14200 21200 28400 63100
2020-12-31 12:45 2.59 1180 71600 (2016) 542 (2003) 10500 563 648 1030 1150 2350 14200 21200 28400 63100
2020-12-31 11:45 2.59 1180 71600 (2016) 542 (2003) 10500 563 648 1030 1150 2350 14200 21200 28400 63100
2020-12-31 10:45 2.59 1180 71600 (2016) 542 (2003) 10500 563 648 1030 1150 2350 14200 21200 28400 63100
2020-12-31 09:45 2.58 1160 71600 (2016) 542 (2003) 10500 563 648 1030 1150 2350 14200 21200 28400 63100
2020-12-31 08:45 2.59 1180 71600 (2016) 542 (2003) 10500 563 648 1030 1150 2350 14200 21200 28400 63100
2020-12-31 07:45 2.59 1180 71600 (2016) 542 (2003) 10500 563 648 1030 1150 2350 14200 21200 28400 63100
2020-12-31 06:45 2.59 1180 71600 (2016) 542 (2003) 10500 563 648 1030 1150 2350 14200 21200 28400 63100
2020-12-31 05:45 2.59 1180 71600 (2016) 542 (2003) 10500 563 648 1030 1150 2350 14200 21200 28400 63100
2020-12-31 04:45 2.59 1180 71600 (2016) 542 (2003) 10500 563 648 1030 1150 2350 14200 21200 28400 63100
2020-12-31 03:45 2.60 1190 71600 (2016) 542 (2003) 10500 563 648 1030 1150 2350 14200 21200 28400 63100
2020-12-31 02:45 2.60 1190 71600 (2016) 542 (2003) 10500 563 648 1030 1150 2350 14200 21200 28400 63100
2020-12-31 01:45 2.60 1190 71600 (2016) 542 (2003) 10500 563 648 1030 1150 2350 14200 21200 28400 63100
2020-12-31 00:45 2.60 1190 71600 (2016) 542 (2003) 10500 563 648 1030 1150 2350 14200 21200 28400 63100
2020-12-30 23:45 2.60 1190 101000 (2016) 547 (2003) 11100 566 645 1020 1150 3640 14200 16400 24500 86600
2020-12-30 22:45 2.60 1190 101000 (2016) 547 (2003) 11100 566 645 1020 1150 3640 14200 16400 24500 86600
2020-12-30 21:45 2.60 1190 101000 (2016) 547 (2003) 11100 566 645 1020 1150 3640 14200 16400 24500 86600
2020-12-30 20:45 2.61 1200 101000 (2016) 547 (2003) 11100 566 645 1020 1150 3640 14200 16400 24500 86600
2020-12-30 19:45 2.61 1200 101000 (2016) 547 (2003) 11100 566 645 1020 1150 3640 14200 16400 24500 86600
2020-12-30 18:45 2.61 1200 101000 (2016) 547 (2003) 11100 566 645 1020 1150 3640 14200 16400 24500 86600
2020-12-30 17:45 2.61 1200 101000 (2016) 547 (2003) 11100 566 645 1020 1150 3640 14200 16400 24500 86600
2020-12-30 16:45 2.61 1200 101000 (2016) 547 (2003) 11100 566 645 1020 1150 3640 14200 16400 24500 86600
2020-12-30 15:45 2.61 1200 101000 (2016) 547 (2003) 11100 566 645 1020 1150 3640 14200 16400 24500 86600
2020-12-30 14:45 2.61 1200 101000 (2016) 547 (2003) 11100 566 645 1020 1150 3640 14200 16400 24500 86600
2020-12-30 13:45 2.61 1200 101000 (2016) 547 (2003) 11100 566 645 1020 1150 3640 14200 16400 24500 86600
2020-12-30 12:45 2.61 1200 101000 (2016) 547 (2003) 11100 566 645 1020 1150 3640 14200 16400 24500 86600
2020-12-30 11:45 2.61 1200 101000 (2016) 547 (2003) 11100 566 645 1020 1150 3640 14200 16400 24500 86600
2020-12-30 10:45 2.61 1200 101000 (2016) 547 (2003) 11100 566 645 1020 1150 3640 14200 16400 24500 86600
2020-12-30 09:45 2.60 1190 101000 (2016) 547 (2003) 11100 566 645 1020 1150 3640 14200 16400 24500 86600
2020-12-30 08:45 2.61 1200 101000 (2016) 547 (2003) 11100 566 645 1020 1150 3640 14200 16400 24500 86600
2020-12-30 07:45 2.60 1190 101000 (2016) 547 (2003) 11100 566 645 1020 1150 3640 14200 16400 24500 86600
2020-12-30 06:45 2.60 1190 101000 (2016) 547 (2003) 11100 566 645 1020 1150 3640 14200 16400 24500 86600
2020-12-30 05:45 2.59 1180 101000 (2016) 547 (2003) 11100 566 645 1020 1150 3640 14200 16400 24500 86600
2020-12-30 04:45 2.61 1200 101000 (2016) 547 (2003) 11100 566 645 1020 1150 3640 14200 16400 24500 86600
2020-12-30 03:45 2.60 1190 101000 (2016) 547 (2003) 11100 566 645 1020 1150 3640 14200 16400 24500 86600
2020-12-30 02:45 2.60 1190 101000 (2016) 547 (2003) 11100 566 645 1020 1150 3640 14200 16400 24500 86600
2020-12-30 01:45 2.59 1180 101000 (2016) 547 (2003) 11100 566 645 1020 1150 3640 14200 16400 24500 86600
2020-12-30 00:45 2.59 1180 101000 (2016) 547 (2003) 11100 566 645 1020 1150 3640 14200 16400 24500 86600
2020-12-29 23:45 2.60 1190 114000 (2016) 548 (2003) 9970 566 647 1060 1160 2030 10800 12300 18300 95000
2020-12-29 22:45 2.59 1180 114000 (2016) 548 (2003) 9970 566 647 1060 1160 2030 10800 12300 18300 95000
2020-12-29 21:45 2.60 1190 114000 (2016) 548 (2003) 9970 566 647 1060 1160 2030 10800 12300 18300 95000
2020-12-29 20:45 2.60 1190 114000 (2016) 548 (2003) 9970 566 647 1060 1160 2030 10800 12300 18300 95000
2020-12-29 19:45 2.60 1190 114000 (2016) 548 (2003) 9970 566 647 1060 1160 2030 10800 12300 18300 95000
2020-12-29 18:45 2.60 1190 114000 (2016) 548 (2003) 9970 566 647 1060 1160 2030 10800 12300 18300 95000
2020-12-29 17:45 2.60 1190 114000 (2016) 548 (2003) 9970 566 647 1060 1160 2030 10800 12300 18300 95000
2020-12-29 16:45 2.60 1190 114000 (2016) 548 (2003) 9970 566 647 1060 1160 2030 10800 12300 18300 95000
2020-12-29 15:45 2.61 1200 114000 (2016) 548 (2003) 9970 566 647 1060 1160 2030 10800 12300 18300 95000
2020-12-29 14:45 2.61 1200 114000 (2016) 548 (2003) 9970 566 647 1060 1160 2030 10800 12300 18300 95000
2020-12-29 13:45 2.62 1210 114000 (2016) 548 (2003) 9970 566 647 1060 1160 2030 10800 12300 18300 95000
2020-12-29 12:45 2.61 1200 114000 (2016) 548 (2003) 9970 566 647 1060 1160 2030 10800 12300 18300 95000
2020-12-29 11:45 2.61 1200 114000 (2016) 548 (2003) 9970 566 647 1060 1160 2030 10800 12300 18300 95000
2020-12-29 10:45 2.61 1200 114000 (2016) 548 (2003) 9970 566 647 1060 1160 2030 10800 12300 18300 95000
2020-12-29 09:45 2.61 1200 114000 (2016) 548 (2003) 9970 566 647 1060 1160 2030 10800 12300 18300 95000
2020-12-29 08:45 2.62 1210 114000 (2016) 548 (2003) 9970 566 647 1060 1160 2030 10800 12300 18300 95000
2020-12-29 07:45 2.62 1210 114000 (2016) 548 (2003) 9970 566 647 1060 1160 2030 10800 12300 18300 95000
2020-12-29 06:45 2.61 1200 114000 (2016) 548 (2003) 9970 566 647 1060 1160 2030 10800 12300 18300 95000
2020-12-29 05:45 2.61 1200 114000 (2016) 548 (2003) 9970 566 647 1060 1160 2030 10800 12300 18300 95000
2020-12-29 04:45 2.60 1190 114000 (2016) 548 (2003) 9970 566 647 1060 1160 2030 10800 12300 18300 95000
2020-12-29 03:45 2.59 1180 114000 (2016) 548 (2003) 9970 566 647 1060 1160 2030 10800 12300 18300 95000
2020-12-29 02:45 2.60 1190 114000 (2016) 548 (2003) 9970 566 647 1060 1160 2030 10800 12300 18300 95000
2020-12-29 01:45 2.59 1180 114000 (2016) 548 (2003) 9970 566 647 1060 1160 2030 10800 12300 18300 95000
2020-12-29 00:45 2.59 1180 114000 (2016) 548 (2003) 9970 566 647 1060 1160 2030 10800 12300 18300 95000
2020-12-28 23:45 2.59 1180 107000 (2016) 560 (2003) 10900 581 667 1060 1200 3210 13300 15700 22300 90200
2020-12-28 22:45 2.59 1180 107000 (2016) 560 (2003) 10900 581 667 1060 1200 3210 13300 15700 22300 90200
2020-12-28 21:45 2.59 1180 107000 (2016) 560 (2003) 10900 581 667 1060 1200 3210 13300 15700 22300 90200
2020-12-28 20:45 2.60 1190 107000 (2016) 560 (2003) 10900 581 667 1060 1200 3210 13300 15700 22300 90200
2020-12-28 19:45 2.60 1190 107000 (2016) 560 (2003) 10900 581 667 1060 1200 3210 13300 15700 22300 90200
2020-12-28 18:45 2.60 1190 107000 (2016) 560 (2003) 10900 581 667 1060 1200 3210 13300 15700 22300 90200
2020-12-28 17:45 2.61 1200 107000 (2016) 560 (2003) 10900 581 667 1060 1200 3210 13300 15700 22300 90200
2020-12-28 16:45 2.61 1200 107000 (2016) 560 (2003) 10900 581 667 1060 1200 3210 13300 15700 22300 90200
2020-12-28 15:45 2.61 1200 107000 (2016) 560 (2003) 10900 581 667 1060 1200 3210 13300 15700 22300 90200
2020-12-28 14:45 2.61 1200 107000 (2016) 560 (2003) 10900 581 667 1060 1200 3210 13300 15700 22300 90200
2020-12-28 13:45 2.62 1210 107000 (2016) 560 (2003) 10900 581 667 1060 1200 3210 13300 15700 22300 90200
2020-12-28 12:45 2.63 1220 107000 (2016) 560 (2003) 10900 581 667 1060 1200 3210 13300 15700 22300 90200
2020-12-28 11:45 2.63 1220 107000 (2016) 560 (2003) 10900 581 667 1060 1200 3210 13300 15700 22300 90200
2020-12-28 10:45 2.64 1240 107000 (2016) 560 (2003) 10900 581 667 1060 1200 3210 13300 15700 22300 90200
2020-12-28 09:45 2.64 1240 107000 (2016) 560 (2003) 10900 581 667 1060 1200 3210 13300 15700 22300 90200
2020-12-28 08:45 2.65 1250 107000 (2016) 560 (2003) 10900 581 667 1060 1200 3210 13300 15700 22300 90200
2020-12-28 07:45 2.66 1260 107000 (2016) 560 (2003) 10900 581 667 1060 1200 3210 13300 15700 22300 90200
2020-12-28 06:45 2.66 1260 107000 (2016) 560 (2003) 10900 581 667 1060 1200 3210 13300 15700 22300 90200
2020-12-28 05:45 2.67 1270 107000 (2016) 560 (2003) 10900 581 667 1060 1200 3210 13300 15700 22300 90200
2020-12-28 04:45 2.68 1290 107000 (2016) 560 (2003) 10900 581 667 1060 1200 3210 13300 15700 22300 90200
2020-12-28 03:45 2.70 1310 107000 (2016) 560 (2003) 10900 581 667 1060 1200 3210 13300 15700 22300 90200
2020-12-28 02:45 2.71 1320 107000 (2016) 560 (2003) 10900 581 667 1060 1200 3210 13300 15700 22300 90200
2020-12-28 01:45 2.73 1350 107000 (2016) 560 (2003) 10900 581 667 1060 1200 3210 13300 15700 22300 90200
2020-12-28 00:45 2.75 1380 107000 (2016) 560 (2003) 10900 581 667 1060 1200 3210 13300 15700 22300 90200
2020-12-27 23:45 2.76 1390 83600 (2016) 565 (2003) 9280 586 670 1060 1230 2040 10700 13400 21600 71300
2020-12-27 22:45 2.78 1420 83600 (2016) 565 (2003) 9280 586 670 1060 1230 2040 10700 13400 21600 71300
2020-12-27 21:45 2.80 1450 83600 (2016) 565 (2003) 9280 586 670 1060 1230 2040 10700 13400 21600 71300
2020-12-27 20:45 2.82 1470 83600 (2016) 565 (2003) 9280 586 670 1060 1230 2040 10700 13400 21600 71300
2020-12-27 19:45 2.85 1520 83600 (2016) 565 (2003) 9280 586 670 1060 1230 2040 10700 13400 21600 71300
2020-12-27 18:45 2.88 1560 83600 (2016) 565 (2003) 9280 586 670 1060 1230 2040 10700 13400 21600 71300
2020-12-27 17:45 2.92 1620 83600 (2016) 565 (2003) 9280 586 670 1060 1230 2040 10700 13400 21600 71300
2020-12-27 16:45 2.97 1700 83600 (2016) 565 (2003) 9280 586 670 1060 1230 2040 10700 13400 21600 71300
2020-12-27 15:45 3.02 1780 83600 (2016) 565 (2003) 9280 586 670 1060 1230 2040 10700 13400 21600 71300
2020-12-27 14:45 3.07 1860 83600 (2016) 565 (2003) 9280 586 670 1060 1230 2040 10700 13400 21600 71300
2020-12-27 13:45 3.12 1940 83600 (2016) 565 (2003) 9280 586 670 1060 1230 2040 10700 13400 21600 71300
2020-12-27 12:45 3.19 2070 83600 (2016) 565 (2003) 9280 586 670 1060 1230 2040 10700 13400 21600 71300
2020-12-27 11:45 3.25 2180 83600 (2016) 565 (2003) 9280 586 670 1060 1230 2040 10700 13400 21600 71300
2020-12-27 10:45 3.33 2340 83600 (2016) 565 (2003) 9280 586 670 1060 1230 2040 10700 13400 21600 71300
2020-12-27 09:45 3.41 2500 83600 (2016) 565 (2003) 9280 586 670 1060 1230 2040 10700 13400 21600 71300
2020-12-27 08:45 3.49 2670 83600 (2016) 565 (2003) 9280 586 670 1060 1230 2040 10700 13400 21600 71300
2020-12-27 07:45 3.59 2910 83600 (2016) 565 (2003) 9280 586 670 1060 1230 2040 10700 13400 21600 71300
2020-12-27 06:45 3.71 3210 83600 (2016) 565 (2003) 9280 586 670 1060 1230 2040 10700 13400 21600 71300
2020-12-27 05:45 3.84 3550 83600 (2016) 565 (2003) 9280 586 670 1060 1230 2040 10700 13400 21600 71300
2020-12-27 04:45 3.98 3910 83600 (2016) 565 (2003) 9280 586 670 1060 1230 2040 10700 13400 21600 71300
2020-12-27 03:45 4.15 4350 83600 (2016) 565 (2003) 9280 586 670 1060 1230 2040 10700 13400 21600 71300
2020-12-27 02:45 4.34 4860 83600 (2016) 565 (2003) 9280 586 670 1060 1230 2040 10700 13400 21600 71300
2020-12-27 01:45 4.56 5450 83600 (2016) 565 (2003) 9280 586 670 1060 1230 2040 10700 13400 21600 71300
2020-12-27 00:45 4.78 6060 83600 (2016) 565 (2003) 9280 586 670 1060 1230 2040 10700 13400 21600 71300
2020-12-26 23:45 5.03 6760 44600 (2016) 571 (2003) 6120 578 634 785 810 1390 9910 13200 18300 39800
2020-12-26 22:45 5.31 7510 44600 (2016) 571 (2003) 6120 578 634 785 810 1390 9910 13200 18300 39800
2020-12-26 21:45 5.60 8350 44600 (2016) 571 (2003) 6120 578 634 785 810 1390 9910 13200 18300 39800
2020-12-26 20:45 5.90 9200 44600 (2016) 571 (2003) 6120 578 634 785 810 1390 9910 13200 18300 39800
2020-12-26 19:45 6.23 10100 44600 (2016) 571 (2003) 6120 578 634 785 810 1390 9910 13200 18300 39800
2020-12-26 18:45 6.57 11100 44600 (2016) 571 (2003) 6120 578 634 785 810 1390 9910 13200 18300 39800
2020-12-26 17:45 6.90 12200 44600 (2016) 571 (2003) 6120 578 634 785 810 1390 9910 13200 18300 39800
2020-12-26 16:45 7.29 13400 44600 (2016) 571 (2003) 6120 578 634 785 810 1390 9910 13200 18300 39800
2020-12-26 15:45 7.65 14600 44600 (2016) 571 (2003) 6120 578 634 785 810 1390 9910 13200 18300 39800
2020-12-26 14:45 8.04 16000 44600 (2016) 571 (2003) 6120 578 634 785 810 1390 9910 13200 18300 39800
2020-12-26 13:45 8.41 17300 44600 (2016) 571 (2003) 6120 578 634 785 810 1390 9910 13200 18300 39800
2020-12-26 12:45 8.80 18800 44600 (2016) 571 (2003) 6120 578 634 785 810 1390 9910 13200 18300 39800
2020-12-26 11:45 9.18 20400 44600 (2016) 571 (2003) 6120 578 634 785 810 1390 9910 13200 18300 39800
2020-12-26 10:45 9.57 22000 44600 (2016) 571 (2003) 6120 578 634 785 810 1390 9910 13200 18300 39800
2020-12-26 09:45 9.95 23400 44600 (2016) 571 (2003) 6120 578 634 785 810 1390 9910 13200 18300 39800
2020-12-26 08:45 10.31 24600 44600 (2016) 571 (2003) 6120 578 634 785 810 1390 9910 13200 18300 39800
2020-12-26 07:45 10.63 25700 44600 (2016) 571 (2003) 6120 578 634 785 810 1390 9910 13200 18300 39800
2020-12-26 06:45 10.91 26700 44600 (2016) 571 (2003) 6120 578 634 785 810 1390 9910 13200 18300 39800
2020-12-26 05:45 11.08 27300 44600 (2016) 571 (2003) 6120 578 634 785 810 1390 9910 13200 18300 39800
2020-12-26 04:45 11.19 27700 44600 (2016) 571 (2003) 6120 578 634 785 810 1390 9910 13200 18300 39800
2020-12-26 03:45 11.11 27400 44600 (2016) 571 (2003) 6120 578 634 785 810 1390 9910 13200 18300 39800
2020-12-26 02:45 10.90 26700 44600 (2016) 571 (2003) 6120 578 634 785 810 1390 9910 13200 18300 39800
2020-12-26 01:45 10.59 25600 44600 (2016) 571 (2003) 6120 578 634 785 810 1390 9910 13200 18300 39800
2020-12-26 00:45 10.18 24100 44600 (2016) 571 (2003) 6120 578 634 785 810 1390 9910 13200 18300 39800
2020-12-25 23:45 9.69 22400 35600 (2016) 594 (2003) 6430 609 690 840 864 1630 10900 17900 19400 32400
2020-12-25 22:45 9.09 20000 35600 (2016) 594 (2003) 6430 609 690 840 864 1630 10900 17900 19400 32400
2020-12-25 21:45 8.41 17300 35600 (2016) 594 (2003) 6430 609 690 840 864 1630 10900 17900 19400 32400
2020-12-25 20:45 7.60 14400 35600 (2016) 594 (2003) 6430 609 690 840 864 1630 10900 17900 19400 32400
2020-12-25 19:45 6.68 11500 35600 (2016) 594 (2003) 6430 609 690 840 864 1630 10900 17900 19400 32400
2020-12-25 18:45 5.56 8230 35600 (2016) 594 (2003) 6430 609 690 840 864 1630 10900 17900 19400 32400
2020-12-25 17:45 4.33 4840 35600 (2016) 594 (2003) 6430 609 690 840 864 1630 10900 17900 19400 32400
2020-12-25 16:45 3.45 2590 35600 (2016) 594 (2003) 6430 609 690 840 864 1630 10900 17900 19400 32400
2020-12-25 15:45 3.20 2090 35600 (2016) 594 (2003) 6430 609 690 840 864 1630 10900 17900 19400 32400
2020-12-25 14:45 3.14 1980 35600 (2016) 594 (2003) 6430 609 690 840 864 1630 10900 17900 19400 32400
2020-12-25 13:45 3.11 1930 35600 (2016) 594 (2003) 6430 609 690 840 864 1630 10900 17900 19400 32400
2020-12-25 12:45 3.07 1860 35600 (2016) 594 (2003) 6430 609 690 840 864 1630 10900 17900 19400 32400
2020-12-25 11:45 3.02 1780 35600 (2016) 594 (2003) 6430 609 690 840 864 1630 10900 17900 19400 32400
2020-12-25 10:45 2.98 1710 35600 (2016) 594 (2003) 6430 609 690 840 864 1630 10900 17900 19400 32400
2020-12-25 09:45 2.94 1650 35600 (2016) 594 (2003) 6430 609 690 840 864 1630 10900 17900 19400 32400
2020-12-25 08:45 2.91 1600 35600 (2016) 594 (2003) 6430 609 690 840 864 1630 10900 17900 19400 32400
2020-12-25 07:45 2.88 1560 35600 (2016) 594 (2003) 6430 609 690 840 864 1630 10900 17900 19400 32400
2020-12-25 06:45 2.84 1500 35600 (2016) 594 (2003) 6430 609 690 840 864 1630 10900 17900 19400 32400
2020-12-25 05:45 2.80 1450 35600 (2016) 594 (2003) 6430 609 690 840 864 1630 10900 17900 19400 32400
2020-12-25 04:45 2.75 1380 35600 (2016) 594 (2003) 6430 609 690 840 864 1630 10900 17900 19400 32400
2020-12-25 03:45 2.71 1320 35600 (2016) 594 (2003) 6430 609 690 840 864 1630 10900 17900 19400 32400
2020-12-25 02:45 2.68 1290 35600 (2016) 594 (2003) 6430 609 690 840 864 1630 10900 17900 19400 32400
2020-12-25 01:45 2.66 1260 35600 (2016) 594 (2003) 6430 609 690 840 864 1630 10900 17900 19400 32400
2020-12-25 00:45 2.66 1260 35600 (2016) 594 (2003) 6430 609 690 840 864 1630 10900 17900 19400 32400
2020-12-24 23:45 2.66 1260 30300 (2016) 471 (1997) 5710 490 587 919 1100 1820 7910 13400 17100 27700
2020-12-24 22:45 2.67 1270 30300 (2016) 471 (1997) 5710 490 587 919 1100 1820 7910 13400 17100 27700
2020-12-24 21:45 2.69 1300 30300 (2016) 471 (1997) 5710 490 587 919 1100 1820 7910 13400 17100 27700
2020-12-24 20:45 2.71 1320 30300 (2016) 471 (1997) 5710 490 587 919 1100 1820 7910 13400 17100 27700
2020-12-24 19:45 2.74 1360 30300 (2016) 471 (1997) 5710 490 587 919 1100 1820 7910 13400 17100 27700
2020-12-24 18:45 2.76 1390 30300 (2016) 471 (1997) 5710 490 587 919 1100 1820 7910 13400 17100 27700
2020-12-24 17:45 2.79 1430 30300 (2016) 471 (1997) 5710 490 587 919 1100 1820 7910 13400 17100 27700
2020-12-24 16:45 2.82 1470 30300 (2016) 471 (1997) 5710 490 587 919 1100 1820 7910 13400 17100 27700
2020-12-24 15:45 2.85 1520 30300 (2016) 471 (1997) 5710 490 587 919 1100 1820 7910 13400 17100 27700
2020-12-24 14:45 2.88 1560 30300 (2016) 471 (1997) 5710 490 587 919 1100 1820 7910 13400 17100 27700
2020-12-24 13:45 2.94 1650 30300 (2016) 471 (1997) 5710 490 587 919 1100 1820 7910 13400 17100 27700
2020-12-24 12:45 2.99 1730 30300 (2016) 471 (1997) 5710 490 587 919 1100 1820 7910 13400 17100 27700
2020-12-24 11:45 3.03 1790 30300 (2016) 471 (1997) 5710 490 587 919 1100 1820 7910 13400 17100 27700
2020-12-24 10:45 3.07 1860 30300 (2016) 471 (1997) 5710 490 587 919 1100 1820 7910 13400 17100 27700
2020-12-24 09:45 3.14 1980 30300 (2016) 471 (1997) 5710 490 587 919 1100 1820 7910 13400 17100 27700
2020-12-24 08:45 3.19 2070 30300 (2016) 471 (1997) 5710 490 587 919 1100 1820 7910 13400 17100 27700
2020-12-24 07:45 3.24 2160 30300 (2016) 471 (1997) 5710 490 587 919 1100 1820 7910 13400 17100 27700
2020-12-24 06:45 3.31 2300 30300 (2016) 471 (1997) 5710 490 587 919 1100 1820 7910 13400 17100 27700
2020-12-24 05:45 3.38 2440 30300 (2016) 471 (1997) 5710 490 587 919 1100 1820 7910 13400 17100 27700
2020-12-24 04:45 3.44 2570 30300 (2016) 471 (1997) 5710 490 587 919 1100 1820 7910 13400 17100 27700
2020-12-24 03:45 3.52 2740 30300 (2016) 471 (1997) 5710 490 587 919 1100 1820 7910 13400 17100 27700
2020-12-24 02:45 3.57 2860 30300 (2016) 471 (1997) 5710 490 587 919 1100 1820 7910 13400 17100 27700
2020-12-24 01:45 3.63 3010 30300 (2016) 471 (1997) 5710 490 587 919 1100 1820 7910 13400 17100 27700
2020-12-24 00:45 3.69 3160 30300 (2016) 471 (1997) 5710 490 587 919 1100 1820 7910 13400 17100 27700
2020-12-23 23:45 3.77 3370 28100 (2016) 553 (2003) 5340 564 625 1060 1150 1680 10100 11600 17000 25900
2020-12-23 22:45 3.81 3480 28100 (2016) 553 (2003) 5340 564 625 1060 1150 1680 10100 11600 17000 25900
2020-12-23 21:45 3.86 3600 28100 (2016) 553 (2003) 5340 564 625 1060 1150 1680 10100 11600 17000 25900
2020-12-23 20:45 3.87 3630 28100 (2016) 553 (2003) 5340 564 625 1060 1150 1680 10100 11600 17000 25900
2020-12-23 19:45 3.87 3630 28100 (2016) 553 (2003) 5340 564 625 1060 1150 1680 10100 11600 17000 25900
2020-12-23 18:45 3.86 3600 28100 (2016) 553 (2003) 5340 564 625 1060 1150 1680 10100 11600 17000 25900
2020-12-23 17:45 3.77 3370 28100 (2016) 553 (2003) 5340 564 625 1060 1150 1680 10100 11600 17000 25900
2020-12-23 16:45 3.65 3060 28100 (2016) 553 (2003) 5340 564 625 1060 1150 1680 10100 11600 17000 25900
2020-12-23 15:45 3.46 2610 28100 (2016) 553 (2003) 5340 564 625 1060 1150 1680 10100 11600 17000 25900
2020-12-23 14:45 3.21 2110 28100 (2016) 553 (2003) 5340 564 625 1060 1150 1680 10100 11600 17000 25900
2020-12-23 13:45 2.95 1660 28100 (2016) 553 (2003) 5340 564 625 1060 1150 1680 10100 11600 17000 25900
2020-12-23 12:45 2.74 1360 28100 (2016) 553 (2003) 5340 564 625 1060 1150 1680 10100 11600 17000 25900
2020-12-23 11:45 2.63 1220 28100 (2016) 553 (2003) 5340 564 625 1060 1150 1680 10100 11600 17000 25900
2020-12-23 10:45 2.60 1190 28100 (2016) 553 (2003) 5340 564 625 1060 1150 1680 10100 11600 17000 25900
2020-12-23 09:45 2.59 1180 28100 (2016) 553 (2003) 5340 564 625 1060 1150 1680 10100 11600 17000 25900
2020-12-23 08:45 2.58 1160 28100 (2016) 553 (2003) 5340 564 625 1060 1150 1680 10100 11600 17000 25900
2020-12-23 07:45 2.58 1160 28100 (2016) 553 (2003) 5340 564 625 1060 1150 1680 10100 11600 17000 25900
2020-12-23 06:45 2.58 1160 28100 (2016) 553 (2003) 5340 564 625 1060 1150 1680 10100 11600 17000 25900
2020-12-23 05:45 2.59 1180 28100 (2016) 553 (2003) 5340 564 625 1060 1150 1680 10100 11600 17000 25900
2020-12-23 04:45 2.57 1150 28100 (2016) 553 (2003) 5340 564 625 1060 1150 1680 10100 11600 17000 25900
2020-12-23 03:45 2.58 1160 28100 (2016) 553 (2003) 5340 564 625 1060 1150 1680 10100 11600 17000 25900
2020-12-23 02:45 2.58 1160 28100 (2016) 553 (2003) 5340 564 625 1060 1150 1680 10100 11600 17000 25900
2020-12-23 01:45 2.58 1160 28100 (2016) 553 (2003) 5340 564 625 1060 1150 1680 10100 11600 17000 25900
2020-12-23 00:45 2.57 1150 28100 (2016) 553 (2003) 5340 564 625 1060 1150 1680 10100 11600 17000 25900
2020-12-22 23:45 2.58 1160 30300 (2016) 567 (2003) 4780 574 708 1150 1170 2130 3470 6640 15500 27400
2020-12-22 22:45 2.58 1160 30300 (2016) 567 (2003) 4780 574 708 1150 1170 2130 3470 6640 15500 27400
2020-12-22 21:45 2.58 1160 30300 (2016) 567 (2003) 4780 574 708 1150 1170 2130 3470 6640 15500 27400
2020-12-22 20:45 2.57 1150 30300 (2016) 567 (2003) 4780 574 708 1150 1170 2130 3470 6640 15500 27400
2020-12-22 19:45 2.58 1160 30300 (2016) 567 (2003) 4780 574 708 1150 1170 2130 3470 6640 15500 27400
2020-12-22 18:45 2.57 1150 30300 (2016) 567 (2003) 4780 574 708 1150 1170 2130 3470 6640 15500 27400
2020-12-22 17:45 2.57 1150 30300 (2016) 567 (2003) 4780 574 708 1150 1170 2130 3470 6640 15500 27400
2020-12-22 16:45 2.58 1160 30300 (2016) 567 (2003) 4780 574 708 1150 1170 2130 3470 6640 15500 27400
2020-12-22 15:45 2.59 1180 30300 (2016) 567 (2003) 4780 574 708 1150 1170 2130 3470 6640 15500 27400
2020-12-22 14:45 2.59 1180 30300 (2016) 567 (2003) 4780 574 708 1150 1170 2130 3470 6640 15500 27400
2020-12-22 13:45 2.59 1180 30300 (2016) 567 (2003) 4780 574 708 1150 1170 2130 3470 6640 15500 27400
2020-12-22 12:45 2.58 1160 30300 (2016) 567 (2003) 4780 574 708 1150 1170 2130 3470 6640 15500 27400
2020-12-22 11:45 2.58 1160 30300 (2016) 567 (2003) 4780 574 708 1150 1170 2130 3470 6640 15500 27400
2020-12-22 10:45 2.59 1180 30300 (2016) 567 (2003) 4780 574 708 1150 1170 2130 3470 6640 15500 27400
2020-12-22 09:45 2.58 1160 30300 (2016) 567 (2003) 4780 574 708 1150 1170 2130 3470 6640 15500 27400
2020-12-22 08:45 2.58 1160 30300 (2016) 567 (2003) 4780 574 708 1150 1170 2130 3470 6640 15500 27400
2020-12-22 07:45 2.57 1150 30300 (2016) 567 (2003) 4780 574 708 1150 1170 2130 3470 6640 15500 27400
2020-12-22 06:45 2.58 1160 30300 (2016) 567 (2003) 4780 574 708 1150 1170 2130 3470 6640 15500 27400
2020-12-22 05:45 2.58 1160 30300 (2016) 567 (2003) 4780 574 708 1150 1170 2130 3470 6640 15500 27400
2020-12-22 04:45 2.58 1160 30300 (2016) 567 (2003) 4780 574 708 1150 1170 2130 3470 6640 15500 27400
2020-12-22 03:45 2.58 1160 30300 (2016) 567 (2003) 4780 574 708 1150 1170 2130 3470 6640 15500 27400
2020-12-22 02:45 2.59 1180 30300 (2016) 567 (2003) 4780 574 708 1150 1170 2130 3470 6640 15500 27400
2020-12-22 01:45 2.59 1180 30300 (2016) 567 (2003) 4780 574 708 1150 1170 2130 3470 6640 15500 27400
2020-12-22 00:45 2.59 1180 30300 (2016) 567 (2003) 4780 574 708 1150 1170 2130 3470 6640 15500 27400
2020-12-21 23:45 2.59 1180 25700 (2016) 610 (2003) 5400 612 700 1200 1320 2620 8090 11400 15500 24200
2020-12-21 22:45 2.59 1180 25700 (2016) 610 (2003) 5400 612 700 1200 1320 2620 8090 11400 15500 24200
2020-12-21 21:45 2.59 1180 25700 (2016) 610 (2003) 5400 612 700 1200 1320 2620 8090 11400 15500 24200
2020-12-21 20:45 2.60 1190 25700 (2016) 610 (2003) 5400 612 700 1200 1320 2620 8090 11400 15500 24200
2020-12-21 19:45 2.60 1190 25700 (2016) 610 (2003) 5400 612 700 1200 1320 2620 8090 11400 15500 24200
2020-12-21 18:45 2.60 1190 25700 (2016) 610 (2003) 5400 612 700 1200 1320 2620 8090 11400 15500 24200
2020-12-21 17:45 2.60 1190 25700 (2016) 610 (2003) 5400 612 700 1200 1320 2620 8090 11400 15500 24200
2020-12-21 16:45 2.60 1190 25700 (2016) 610 (2003) 5400 612 700 1200 1320 2620 8090 11400 15500 24200
2020-12-21 15:45 2.60 1190 25700 (2016) 610 (2003) 5400 612 700 1200 1320 2620 8090 11400 15500 24200
2020-12-21 14:45 2.60 1190 25700 (2016) 610 (2003) 5400 612 700 1200 1320 2620 8090 11400 15500 24200
2020-12-21 13:45 2.61 1200 25700 (2016) 610 (2003) 5400 612 700 1200 1320 2620 8090 11400 15500 24200
2020-12-21 12:45 2.62 1210 25700 (2016) 610 (2003) 5400 612 700 1200 1320 2620 8090 11400 15500 24200
2020-12-21 11:45 2.62 1210 25700 (2016) 610 (2003) 5400 612 700 1200 1320 2620 8090 11400 15500 24200
2020-12-21 10:45 2.62 1210 25700 (2016) 610 (2003) 5400 612 700 1200 1320 2620 8090 11400 15500 24200
2020-12-21 09:45 2.62 1210 25700 (2016) 610 (2003) 5400 612 700 1200 1320 2620 8090 11400 15500 24200
2020-12-21 08:45 2.62 1210 25700 (2016) 610 (2003) 5400 612 700 1200 1320 2620 8090 11400 15500 24200
2020-12-21 07:45 2.62 1210 25700 (2016) 610 (2003) 5400 612 700 1200 1320 2620 8090 11400 15500 24200
2020-12-21 06:45 2.62 1210 25700 (2016) 610 (2003) 5400 612 700 1200 1320 2620 8090 11400 15500 24200
2020-12-21 05:45 2.62 1210 25700 (2016) 610 (2003) 5400 612 700 1200 1320 2620 8090 11400 15500 24200
2020-12-21 04:45 2.62 1210 25700 (2016) 610 (2003) 5400 612 700 1200 1320 2620 8090 11400 15500 24200
2020-12-21 03:45 2.62 1210 25700 (2016) 610 (2003) 5400 612 700 1200 1320 2620 8090 11400 15500 24200
2020-12-21 02:45 2.63 1220 25700 (2016) 610 (2003) 5400 612 700 1200 1320 2620 8090 11400 15500 24200
2020-12-21 01:45 2.63 1220 25700 (2016) 610 (2003) 5400 612 700 1200 1320 2620 8090 11400 15500 24200
2020-12-21 00:45 2.64 1240 25700 (2016) 610 (2003) 5400 612 700 1200 1320 2620 8090 11400 15500 24200
2020-12-20 23:45 2.64 1240 27600 (2016) 638 (2006) 6610 662 790 1100 1170 2750 8940 12300 22700 27200
2020-12-20 22:45 2.65 1250 27600 (2016) 638 (2006) 6610 662 790 1100 1170 2750 8940 12300 22700 27200
2020-12-20 21:45 2.65 1250 27600 (2016) 638 (2006) 6610 662 790 1100 1170 2750 8940 12300 22700 27200
2020-12-20 20:45 2.66 1260 27600 (2016) 638 (2006) 6610 662 790 1100 1170 2750 8940 12300 22700 27200
2020-12-20 19:45 2.67 1270 27600 (2016) 638 (2006) 6610 662 790 1100 1170 2750 8940 12300 22700 27200
2020-12-20 18:45 2.67 1270 27600 (2016) 638 (2006) 6610 662 790 1100 1170 2750 8940 12300 22700 27200
2020-12-20 17:45 2.68 1290 27600 (2016) 638 (2006) 6610 662 790 1100 1170 2750 8940 12300 22700 27200
2020-12-20 16:45 2.69 1300 27600 (2016) 638 (2006) 6610 662 790 1100 1170 2750 8940 12300 22700 27200
2020-12-20 15:45 2.70 1310 27600 (2016) 638 (2006) 6610 662 790 1100 1170 2750 8940 12300 22700 27200
2020-12-20 14:45 2.71 1320 27600 (2016) 638 (2006) 6610 662 790 1100 1170 2750 8940 12300 22700 27200
2020-12-20 13:45 2.73 1350 27600 (2016) 638 (2006) 6610 662 790 1100 1170 2750 8940 12300 22700 27200
2020-12-20 12:45 2.74 1360 27600 (2016) 638 (2006) 6610 662 790 1100 1170 2750 8940 12300 22700 27200
2020-12-20 11:45 2.75 1380 27600 (2016) 638 (2006) 6610 662 790 1100 1170 2750 8940 12300 22700 27200
2020-12-20 10:45 2.77 1400 27600 (2016) 638 (2006) 6610 662 790 1100 1170 2750 8940 12300 22700 27200
2020-12-20 09:45 2.78 1420 27600 (2016) 638 (2006) 6610 662 790 1100 1170 2750 8940 12300 22700 27200
2020-12-20 08:45 2.79 1430 27600 (2016) 638 (2006) 6610 662 790 1100 1170 2750 8940 12300 22700 27200
2020-12-20 07:45 2.81 1460 27600 (2016) 638 (2006) 6610 662 790 1100 1170 2750 8940 12300 22700 27200
2020-12-20 06:45 2.83 1490 27600 (2016) 638 (2006) 6610 662 790 1100 1170 2750 8940 12300 22700 27200
2020-12-20 05:45 2.85 1520 27600 (2016) 638 (2006) 6610 662 790 1100 1170 2750 8940 12300 22700 27200
2020-12-20 04:45 2.88 1560 27600 (2016) 638 (2006) 6610 662 790 1100 1170 2750 8940 12300 22700 27200
2020-12-20 03:45 2.91 1600 27600 (2016) 638 (2006) 6610 662 790 1100 1170 2750 8940 12300 22700 27200
2020-12-20 02:45 2.94 1650 27600 (2016) 638 (2006) 6610 662 790 1100 1170 2750 8940 12300 22700 27200
2020-12-20 01:45 2.97 1700 27600 (2016) 638 (2006) 6610 662 790 1100 1170 2750 8940 12300 22700 27200
2020-12-20 00:45 3.01 1760 27600 (2016) 638 (2006) 6610 662 790 1100 1170 2750 8940 12300 22700 27200
2020-12-19 23:45 3.05 1820 38700 (2016) 640 (2006) 7640 668 899 1180 1200 2300 13100 16000 22100 35900
2020-12-19 22:45 3.10 1910 38700 (2016) 640 (2006) 7640 668 899 1180 1200 2300 13100 16000 22100 35900
2020-12-19 21:45 3.15 2000 38700 (2016) 640 (2006) 7640 668 899 1180 1200 2300 13100 16000 22100 35900
2020-12-19 20:45 3.20 2090 38700 (2016) 640 (2006) 7640 668 899 1180 1200 2300 13100 16000 22100 35900
2020-12-19 19:45 3.25 2180 38700 (2016) 640 (2006) 7640 668 899 1180 1200 2300 13100 16000 22100 35900
2020-12-19 18:45 3.30 2280 38700 (2016) 640 (2006) 7640 668 899 1180 1200 2300 13100 16000 22100 35900
2020-12-19 17:45 3.36 2400 38700 (2016) 640 (2006) 7640 668 899 1180 1200 2300 13100 16000 22100 35900
2020-12-19 16:45 3.42 2520 38700 (2016) 640 (2006) 7640 668 899 1180 1200 2300 13100 16000 22100 35900
2020-12-19 15:45 3.48 2650 38700 (2016) 640 (2006) 7640 668 899 1180 1200 2300 13100 16000 22100 35900
2020-12-19 14:45 3.55 2810 38700 (2016) 640 (2006) 7640 668 899 1180 1200 2300 13100 16000 22100 35900
2020-12-19 13:45 3.61 2960 38700 (2016) 640 (2006) 7640 668 899 1180 1200 2300 13100 16000 22100 35900
2020-12-19 12:45 3.70 3180 38700 (2016) 640 (2006) 7640 668 899 1180 1200 2300 13100 16000 22100 35900
2020-12-19 11:45 3.77 3370 38700 (2016) 640 (2006) 7640 668 899 1180 1200 2300 13100 16000 22100 35900
2020-12-19 10:45 3.85 3580 38700 (2016) 640 (2006) 7640 668 899 1180 1200 2300 13100 16000 22100 35900
2020-12-19 09:45 3.92 3760 38700 (2016) 640 (2006) 7640 668 899 1180 1200 2300 13100 16000 22100 35900
2020-12-19 08:45 4.00 3960 38700 (2016) 640 (2006) 7640 668 899 1180 1200 2300 13100 16000 22100 35900
2020-12-19 07:45 4.08 4170 38700 (2016) 640 (2006) 7640 668 899 1180 1200 2300 13100 16000 22100 35900
2020-12-19 06:45 4.16 4380 38700 (2016) 640 (2006) 7640 668 899 1180 1200 2300 13100 16000 22100 35900
2020-12-19 05:45 4.24 4590 38700 (2016) 640 (2006) 7640 668 899 1180 1200 2300 13100 16000 22100 35900
2020-12-19 04:45 4.33 4840 38700 (2016) 640 (2006) 7640 668 899 1180 1200 2300 13100 16000 22100 35900
2020-12-19 03:45 4.41 5060 38700 (2016) 640 (2006) 7640 668 899 1180 1200 2300 13100 16000 22100 35900
2020-12-19 02:45 4.51 5320 38700 (2016) 640 (2006) 7640 668 899 1180 1200 2300 13100 16000 22100 35900
2020-12-19 01:45 4.60 5560 38700 (2016) 640 (2006) 7640 668 899 1180 1200 2300 13100 16000 22100 35900
2020-12-19 00:45 4.70 5840 38700 (2016) 640 (2006) 7640 668 899 1180 1200 2300 13100 16000 22100 35900
2020-12-18 23:45 4.79 6090 43100 (2016) 629 (2006) 7970 646 764 1180 1480 5740 9100 13500 21200 39200
2020-12-18 22:45 4.88 6330 43100 (2016) 629 (2006) 7970 646 764 1180 1480 5740 9100 13500 21200 39200
2020-12-18 21:45 4.96 6560 43100 (2016) 629 (2006) 7970 646 764 1180 1480 5740 9100 13500 21200 39200
2020-12-18 20:45 5.01 6700 43100 (2016) 629 (2006) 7970 646 764 1180 1480 5740 9100 13500 21200 39200
2020-12-18 19:45 5.02 6730 43100 (2016) 629 (2006) 7970 646 764 1180 1480 5740 9100 13500 21200 39200
2020-12-18 18:45 4.99 6640 43100 (2016) 629 (2006) 7970 646 764 1180 1480 5740 9100 13500 21200 39200
2020-12-18 17:45 4.91 6420 43100 (2016) 629 (2006) 7970 646 764 1180 1480 5740 9100 13500 21200 39200
2020-12-18 16:45 4.77 6030 43100 (2016) 629 (2006) 7970 646 764 1180 1480 5740 9100 13500 21200 39200
2020-12-18 15:45 4.60 5560 43100 (2016) 629 (2006) 7970 646 764 1180 1480 5740 9100 13500 21200 39200
2020-12-18 14:45 4.42 5080 43100 (2016) 629 (2006) 7970 646 764 1180 1480 5740 9100 13500 21200 39200
2020-12-18 13:45 4.27 4670 43100 (2016) 629 (2006) 7970 646 764 1180 1480 5740 9100 13500 21200 39200
2020-12-18 12:45 4.19 4460 43100 (2016) 629 (2006) 7970 646 764 1180 1480 5740 9100 13500 21200 39200
2020-12-18 11:45 4.16 4380 43100 (2016) 629 (2006) 7970 646 764 1180 1480 5740 9100 13500 21200 39200
2020-12-18 10:45 4.15 4350 43100 (2016) 629 (2006) 7970 646 764 1180 1480 5740 9100 13500 21200 39200
2020-12-18 09:45 4.13 4300 43100 (2016) 629 (2006) 7970 646 764 1180 1480 5740 9100 13500 21200 39200
2020-12-18 08:45 4.09 4200 43100 (2016) 629 (2006) 7970 646 764 1180 1480 5740 9100 13500 21200 39200
2020-12-18 07:45 4.02 4020 43100 (2016) 629 (2006) 7970 646 764 1180 1480 5740 9100 13500 21200 39200
2020-12-18 06:45 3.94 3810 43100 (2016) 629 (2006) 7970 646 764 1180 1480 5740 9100 13500 21200 39200
2020-12-18 05:45 3.82 3510 43100 (2016) 629 (2006) 7970 646 764 1180 1480 5740 9100 13500 21200 39200
2020-12-18 04:45 3.69 3160 43100 (2016) 629 (2006) 7970 646 764 1180 1480 5740 9100 13500 21200 39200
2020-12-18 03:45 3.59 2910 43100 (2016) 629 (2006) 7970 646 764 1180 1480 5740 9100 13500 21200 39200
2020-12-18 02:45 3.52 2740 43100 (2016) 629 (2006) 7970 646 764 1180 1480 5740 9100 13500 21200 39200
2020-12-18 01:45 3.51 2720 43100 (2016) 629 (2006) 7970 646 764 1180 1480 5740 9100 13500 21200 39200
2020-12-18 00:45 3.52 2740 43100 (2016) 629 (2006) 7970 646 764 1180 1480 5740 9100 13500 21200 39200
2020-12-17 23:45 3.56 2840 42500 (2016) 555 (2003) 8590 568 740 1280 1680 5460 11100 13000 23000 38800
2020-12-17 22:45 3.59 2910 42500 (2016) 555 (2003) 8590 568 740 1280 1680 5460 11100 13000 23000 38800
2020-12-17 21:45 3.63 3010 42500 (2016) 555 (2003) 8590 568 740 1280 1680 5460 11100 13000 23000 38800
2020-12-17 20:45 3.69 3160 42500 (2016) 555 (2003) 8590 568 740 1280 1680 5460 11100 13000 23000 38800
2020-12-17 19:45 3.75 3320 42500 (2016) 555 (2003) 8590 568 740 1280 1680 5460 11100 13000 23000 38800
2020-12-17 18:45 3.82 3510 42500 (2016) 555 (2003) 8590 568 740 1280 1680 5460 11100 13000 23000 38800
2020-12-17 17:45 3.90 3700 42500 (2016) 555 (2003) 8590 568 740 1280 1680 5460 11100 13000 23000 38800
2020-12-17 16:45 3.99 3940 42500 (2016) 555 (2003) 8590 568 740 1280 1680 5460 11100 13000 23000 38800
2020-12-17 15:45 4.08 4170 42500 (2016) 555 (2003) 8590 568 740 1280 1680 5460 11100 13000 23000 38800
2020-12-17 14:45 4.20 4480 42500 (2016) 555 (2003) 8590 568 740 1280 1680 5460 11100 13000 23000 38800
2020-12-17 13:45 4.30 4750 42500 (2016) 555 (2003) 8590 568 740 1280 1680 5460 11100 13000 23000 38800
2020-12-17 12:45 4.40 5030 42500 (2016) 555 (2003) 8590 568 740 1280 1680 5460 11100 13000 23000 38800
2020-12-17 11:45 4.48 5240 42500 (2016) 555 (2003) 8590 568 740 1280 1680 5460 11100 13000 23000 38800
2020-12-17 10:45 4.54 5400 42500 (2016) 555 (2003) 8590 568 740 1280 1680 5460 11100 13000 23000 38800
2020-12-17 09:45 4.59 5540 42500 (2016) 555 (2003) 8590 568 740 1280 1680 5460 11100 13000 23000 38800
2020-12-17 08:45 4.61 5590 42500 (2016) 555 (2003) 8590 568 740 1280 1680 5460 11100 13000 23000 38800
2020-12-17 07:45 4.60 5560 42500 (2016) 555 (2003) 8590 568 740 1280 1680 5460 11100 13000 23000 38800
2020-12-17 06:45 4.55 5430 42500 (2016) 555 (2003) 8590 568 740 1280 1680 5460 11100 13000 23000 38800
2020-12-17 05:45 4.45 5160 42500 (2016) 555 (2003) 8590 568 740 1280 1680 5460 11100 13000 23000 38800
2020-12-17 04:45 4.30 4750 42500 (2016) 555 (2003) 8590 568 740 1280 1680 5460 11100 13000 23000 38800
2020-12-17 03:45 4.11 4250 42500 (2016) 555 (2003) 8590 568 740 1280 1680 5460 11100 13000 23000 38800
2020-12-17 02:45 3.92 3760 42500 (2016) 555 (2003) 8590 568 740 1280 1680 5460 11100 13000 23000 38800
2020-12-17 01:45 3.74 3290 42500 (2016) 555 (2003) 8590 568 740 1280 1680 5460 11100 13000 23000 38800
2020-12-17 00:45 3.60 2930 42500 (2016) 555 (2003) 8590 568 740 1280 1680 5460 11100 13000 23000 38800
2020-12-16 23:45 3.44 2570 40400 (2016) 603 (2006) 8850 609 800 1300 1790 6540 13200 17200 22300 37300
2020-12-16 22:45 3.27 2220 40400 (2016) 603 (2006) 8850 609 800 1300 1790 6540 13200 17200 22300 37300
2020-12-16 21:45 3.08 1880 40400 (2016) 603 (2006) 8850 609 800 1300 1790 6540 13200 17200 22300 37300
2020-12-16 20:45 2.90 1590 40400 (2016) 603 (2006) 8850 609 800 1300 1790 6540 13200 17200 22300 37300
2020-12-16 19:45 2.78 1420 40400 (2016) 603 (2006) 8850 609 800 1300 1790 6540 13200 17200 22300 37300
2020-12-16 18:45 2.72 1340 40400 (2016) 603 (2006) 8850 609 800 1300 1790 6540 13200 17200 22300 37300
2020-12-16 17:45 2.70 1310 40400 (2016) 603 (2006) 8850 609 800 1300 1790 6540 13200 17200 22300 37300
2020-12-16 16:45 2.70 1310 40400 (2016) 603 (2006) 8850 609 800 1300 1790 6540 13200 17200 22300 37300
2020-12-16 15:45 2.71 1320 40400 (2016) 603 (2006) 8850 609 800 1300 1790 6540 13200 17200 22300 37300
2020-12-16 14:45 2.72 1340 40400 (2016) 603 (2006) 8850 609 800 1300 1790 6540 13200 17200 22300 37300
2020-12-16 13:45 2.73 1350 40400 (2016) 603 (2006) 8850 609 800 1300 1790 6540 13200 17200 22300 37300
2020-12-16 12:45 2.74 1360 40400 (2016) 603 (2006) 8850 609 800 1300 1790 6540 13200 17200 22300 37300
2020-12-16 11:45 2.75 1380 40400 (2016) 603 (2006) 8850 609 800 1300 1790 6540 13200 17200 22300 37300
2020-12-16 10:45 2.76 1390 40400 (2016) 603 (2006) 8850 609 800 1300 1790 6540 13200 17200 22300 37300
2020-12-16 09:45 2.78 1420 40400 (2016) 603 (2006) 8850 609 800 1300 1790 6540 13200 17200 22300 37300
2020-12-16 08:45 2.79 1430 40400 (2016) 603 (2006) 8850 609 800 1300 1790 6540 13200 17200 22300 37300
2020-12-16 07:45 2.81 1460 40400 (2016) 603 (2006) 8850 609 800 1300 1790 6540 13200 17200 22300 37300
2020-12-16 06:45 2.84 1500 40400 (2016) 603 (2006) 8850 609 800 1300 1790 6540 13200 17200 22300 37300
2020-12-16 05:45 2.86 1530 40400 (2016) 603 (2006) 8850 609 800 1300 1790 6540 13200 17200 22300 37300
2020-12-16 04:45 2.89 1570 40400 (2016) 603 (2006) 8850 609 800 1300 1790 6540 13200 17200 22300 37300
2020-12-16 03:45 2.92 1620 40400 (2016) 603 (2006) 8850 609 800 1300 1790 6540 13200 17200 22300 37300
2020-12-16 02:45 2.95 1660 40400 (2016) 603 (2006) 8850 609 800 1300 1790 6540 13200 17200 22300 37300
2020-12-16 01:45 2.99 1730 40400 (2016) 603 (2006) 8850 609 800 1300 1790 6540 13200 17200 22300 37300
2020-12-16 00:45 3.03 1790 40400 (2016) 603 (2006) 8850 609 800 1300 1790 6540 13200 17200 22300 37300
2020-12-15 23:45 3.07 1860 37500 (2016) 615 (2006) 7330 670 982 1280 1330 5450 9530 13000 19600 34600
2020-12-15 22:45 3.13 1960 37500 (2016) 615 (2006) 7330 670 982 1280 1330 5450 9530 13000 19600 34600
2020-12-15 21:45 3.18 2050 37500 (2016) 615 (2006) 7330 670 982 1280 1330 5450 9530 13000 19600 34600
2020-12-15 20:45 3.24 2160 37500 (2016) 615 (2006) 7330 670 982 1280 1330 5450 9530 13000 19600 34600
2020-12-15 19:45 3.30 2280 37500 (2016) 615 (2006) 7330 670 982 1280 1330 5450 9530 13000 19600 34600
2020-12-15 18:45 3.36 2400 37500 (2016) 615 (2006) 7330 670 982 1280 1330 5450 9530 13000 19600 34600
2020-12-15 17:45 3.44 2570 37500 (2016) 615 (2006) 7330 670 982 1280 1330 5450 9530 13000 19600 34600
2020-12-15 16:45 3.52 2740 37500 (2016) 615 (2006) 7330 670 982 1280 1330 5450 9530 13000 19600 34600
2020-12-15 15:45 3.59 2910 37500 (2016) 615 (2006) 7330 670 982 1280 1330 5450 9530 13000 19600 34600
2020-12-15 14:45 3.67 3110 37500 (2016) 615 (2006) 7330 670 982 1280 1330 5450 9530 13000 19600 34600
2020-12-15 13:45 3.77 3370 37500 (2016) 615 (2006) 7330 670 982 1280 1330 5450 9530 13000 19600 34600
2020-12-15 12:45 3.86 3600 37500 (2016) 615 (2006) 7330 670 982 1280 1330 5450 9530 13000 19600 34600
2020-12-15 11:45 3.97 3890 37500 (2016) 615 (2006) 7330 670 982 1280 1330 5450 9530 13000 19600 34600
2020-12-15 10:45 4.08 4170 37500 (2016) 615 (2006) 7330 670 982 1280 1330 5450 9530 13000 19600 34600
2020-12-15 09:45 4.20 4480 37500 (2016) 615 (2006) 7330 670 982 1280 1330 5450 9530 13000 19600 34600
2020-12-15 08:45 4.33 4840 37500 (2016) 615 (2006) 7330 670 982 1280 1330 5450 9530 13000 19600 34600
2020-12-15 07:45 4.45 5160 37500 (2016) 615 (2006) 7330 670 982 1280 1330 5450 9530 13000 19600 34600
2020-12-15 06:45 4.59 5540 37500 (2016) 615 (2006) 7330 670 982 1280 1330 5450 9530 13000 19600 34600
2020-12-15 05:45 4.71 5870 37500 (2016) 615 (2006) 7330 670 982 1280 1330 5450 9530 13000 19600 34600
2020-12-15 04:45 4.84 6220 37500 (2016) 615 (2006) 7330 670 982 1280 1330 5450 9530 13000 19600 34600
2020-12-15 03:45 4.97 6590 37500 (2016) 615 (2006) 7330 670 982 1280 1330 5450 9530 13000 19600 34600
2020-12-15 02:45 5.07 6860 37500 (2016) 615 (2006) 7330 670 982 1280 1330 5450 9530 13000 19600 34600
2020-12-15 01:45 5.16 7100 37500 (2016) 615 (2006) 7330 670 982 1280 1330 5450 9530 13000 19600 34600
2020-12-15 00:45 5.22 7260 37500 (2016) 615 (2006) 7330 670 982 1280 1330 5450 9530 13000 19600 34600
2020-12-14 23:45 5.23 7290 24700 (2005) 511 (2003) 6560 536 861 1430 1520 3840 9380 10200 22300 24200
2020-12-14 22:45 5.20 7210 24700 (2005) 511 (2003) 6560 536 861 1430 1520 3840 9380 10200 22300 24200
2020-12-14 21:45 5.09 6910 24700 (2005) 511 (2003) 6560 536 861 1430 1520 3840 9380 10200 22300 24200
2020-12-14 20:45 4.90 6390 24700 (2005) 511 (2003) 6560 536 861 1430 1520 3840 9380 10200 22300 24200
2020-12-14 19:45 4.56 5450 24700 (2005) 511 (2003) 6560 536 861 1430 1520 3840 9380 10200 22300 24200
2020-12-14 18:45 4.05 4100 24700 (2005) 511 (2003) 6560 536 861 1430 1520 3840 9380 10200 22300 24200
2020-12-14 17:45 3.43 2540 24700 (2005) 511 (2003) 6560 536 861 1430 1520 3840 9380 10200 22300 24200
2020-12-14 16:45 2.98 1710 24700 (2005) 511 (2003) 6560 536 861 1430 1520 3840 9380 10200 22300 24200
2020-12-14 15:45 2.82 1470 24700 (2005) 511 (2003) 6560 536 861 1430 1520 3840 9380 10200 22300 24200
2020-12-14 14:45 2.78 1420 24700 (2005) 511 (2003) 6560 536 861 1430 1520 3840 9380 10200 22300 24200
2020-12-14 13:45 2.78 1420 24700 (2005) 511 (2003) 6560 536 861 1430 1520 3840 9380 10200 22300 24200
2020-12-14 12:45 2.78 1420 24700 (2005) 511 (2003) 6560 536 861 1430 1520 3840 9380 10200 22300 24200
2020-12-14 11:45 2.77 1400 24700 (2005) 511 (2003) 6560 536 861 1430 1520 3840 9380 10200 22300 24200
2020-12-14 10:45 2.77 1400 24700 (2005) 511 (2003) 6560 536 861 1430 1520 3840 9380 10200 22300 24200
2020-12-14 09:45 2.76 1390 24700 (2005) 511 (2003) 6560 536 861 1430 1520 3840 9380 10200 22300 24200
2020-12-14 08:45 2.76 1390 24700 (2005) 511 (2003) 6560 536 861 1430 1520 3840 9380 10200 22300 24200
2020-12-14 07:45 2.76 1390 24700 (2005) 511 (2003) 6560 536 861 1430 1520 3840 9380 10200 22300 24200
2020-12-14 06:45 2.76 1390 24700 (2005) 511 (2003) 6560 536 861 1430 1520 3840 9380 10200 22300 24200
2020-12-14 05:45 2.76 1390 24700 (2005) 511 (2003) 6560 536 861 1430 1520 3840 9380 10200 22300 24200
2020-12-14 04:45 2.76 1390 24700 (2005) 511 (2003) 6560 536 861 1430 1520 3840 9380 10200 22300 24200
2020-12-14 03:45 2.76 1390 24700 (2005) 511 (2003) 6560 536 861 1430 1520 3840 9380 10200 22300 24200
2020-12-14 02:45 2.76 1390 24700 (2005) 511 (2003) 6560 536 861 1430 1520 3840 9380 10200 22300 24200
2020-12-14 01:45 2.76 1390 24700 (2005) 511 (2003) 6560 536 861 1430 1520 3840 9380 10200 22300 24200
2020-12-14 00:45 2.76 1390 24700 (2005) 511 (2003) 6560 536 861 1430 1520 3840 9380 10200 22300 24200
2020-12-13 23:45 2.78 1420 27200 (2005) 548 (2003) 6570 562 828 1240 1490 3870 9150 12500 19000 26100
2020-12-13 22:45 2.78 1420 27200 (2005) 548 (2003) 6570 562 828 1240 1490 3870 9150 12500 19000 26100
2020-12-13 21:45 2.78 1420 27200 (2005) 548 (2003) 6570 562 828 1240 1490 3870 9150 12500 19000 26100
2020-12-13 20:45 2.79 1430 27200 (2005) 548 (2003) 6570 562 828 1240 1490 3870 9150 12500 19000 26100
2020-12-13 19:45 2.79 1430 27200 (2005) 548 (2003) 6570 562 828 1240 1490 3870 9150 12500 19000 26100
2020-12-13 18:45 2.80 1450 27200 (2005) 548 (2003) 6570 562 828 1240 1490 3870 9150 12500 19000 26100
2020-12-13 17:45 2.81 1460 27200 (2005) 548 (2003) 6570 562 828 1240 1490 3870 9150 12500 19000 26100
2020-12-13 16:45 2.81 1460 27200 (2005) 548 (2003) 6570 562 828 1240 1490 3870 9150 12500 19000 26100
2020-12-13 15:45 2.81 1460 27200 (2005) 548 (2003) 6570 562 828 1240 1490 3870 9150 12500 19000 26100
2020-12-13 14:45 2.82 1470 27200 (2005) 548 (2003) 6570 562 828 1240 1490 3870 9150 12500 19000 26100
2020-12-13 13:45 2.83 1490 27200 (2005) 548 (2003) 6570 562 828 1240 1490 3870 9150 12500 19000 26100
2020-12-13 12:45 2.83 1490 27200 (2005) 548 (2003) 6570 562 828 1240 1490 3870 9150 12500 19000 26100
2020-12-13 11:45 2.84 1500 27200 (2005) 548 (2003) 6570 562 828 1240 1490 3870 9150 12500 19000 26100
2020-12-13 10:45 2.85 1520 27200 (2005) 548 (2003) 6570 562 828 1240 1490 3870 9150 12500 19000 26100
2020-12-13 09:45 2.85 1520 27200 (2005) 548 (2003) 6570 562 828 1240 1490 3870 9150 12500 19000 26100
2020-12-13 08:45 2.86 1530 27200 (2005) 548 (2003) 6570 562 828 1240 1490 3870 9150 12500 19000 26100
2020-12-13 07:45 2.86 1530 27200 (2005) 548 (2003) 6570 562 828 1240 1490 3870 9150 12500 19000 26100
2020-12-13 06:45 2.86 1530 27200 (2005) 548 (2003) 6570 562 828 1240 1490 3870 9150 12500 19000 26100
2020-12-13 05:45 2.87 1540 27200 (2005) 548 (2003) 6570 562 828 1240 1490 3870 9150 12500 19000 26100
2020-12-13 04:45 2.87 1540 27200 (2005) 548 (2003) 6570 562 828 1240 1490 3870 9150 12500 19000 26100
2020-12-13 03:45 2.87 1540 27200 (2005) 548 (2003) 6570 562 828 1240 1490 3870 9150 12500 19000 26100
2020-12-13 02:45 2.87 1540 27200 (2005) 548 (2003) 6570 562 828 1240 1490 3870 9150 12500 19000 26100
2020-12-13 01:45 2.87 1540 27200 (2005) 548 (2003) 6570 562 828 1240 1490 3870 9150 12500 19000 26100
2020-12-13 00:45 2.86 1530 27200 (2005) 548 (2003) 6570 562 828 1240 1490 3870 9150 12500 19000 26100
2020-12-12 23:45 2.86 1530 25800 (2005) 621 (2006) 7070 642 745 1240 1270 2880 10500 12700 22800 25700
2020-12-12 22:45 2.86 1530 25800 (2005) 621 (2006) 7070 642 745 1240 1270 2880 10500 12700 22800 25700
2020-12-12 21:45 2.86 1530 25800 (2005) 621 (2006) 7070 642 745 1240 1270 2880 10500 12700 22800 25700
2020-12-12 20:45 2.87 1540 25800 (2005) 621 (2006) 7070 642 745 1240 1270 2880 10500 12700 22800 25700
2020-12-12 19:45 2.88 1560 25800 (2005) 621 (2006) 7070 642 745 1240 1270 2880 10500 12700 22800 25700
2020-12-12 18:45 2.90 1590 25800 (2005) 621 (2006) 7070 642 745 1240 1270 2880 10500 12700 22800 25700
2020-12-12 17:45 2.91 1600 25800 (2005) 621 (2006) 7070 642 745 1240 1270 2880 10500 12700 22800 25700
2020-12-12 16:45 2.94 1650 25800 (2005) 621 (2006) 7070 642 745 1240 1270 2880 10500 12700 22800 25700
2020-12-12 15:45 2.96 1680 25800 (2005) 621 (2006) 7070 642 745 1240 1270 2880 10500 12700 22800 25700
2020-12-12 14:45 2.98 1710 25800 (2005) 621 (2006) 7070 642 745 1240 1270 2880 10500 12700 22800 25700
2020-12-12 13:45 3.01 1760 25800 (2005) 621 (2006) 7070 642 745 1240 1270 2880 10500 12700 22800 25700
2020-12-12 12:45 3.03 1790 25800 (2005) 621 (2006) 7070 642 745 1240 1270 2880 10500 12700 22800 25700
2020-12-12 11:45 3.05 1820 25800 (2005) 621 (2006) 7070 642 745 1240 1270 2880 10500 12700 22800 25700
2020-12-12 10:45 3.07 1860 25800 (2005) 621 (2006) 7070 642 745 1240 1270 2880 10500 12700 22800 25700
2020-12-12 09:45 3.09 1890 25800 (2005) 621 (2006) 7070 642 745 1240 1270 2880 10500 12700 22800 25700
2020-12-12 08:45 3.10 1910 25800 (2005) 621 (2006) 7070 642 745 1240 1270 2880 10500 12700 22800 25700
2020-12-12 07:45 3.11 1930 25800 (2005) 621 (2006) 7070 642 745 1240 1270 2880 10500 12700 22800 25700
2020-12-12 06:45 3.12 1940 25800 (2005) 621 (2006) 7070 642 745 1240 1270 2880 10500 12700 22800 25700
2020-12-12 05:45 3.12 1940 25800 (2005) 621 (2006) 7070 642 745 1240 1270 2880 10500 12700 22800 25700
2020-12-12 04:45 3.13 1960 25800 (2005) 621 (2006) 7070 642 745 1240 1270 2880 10500 12700 22800 25700
2020-12-12 03:45 3.16 2010 25800 (2005) 621 (2006) 7070 642 745 1240 1270 2880 10500 12700 22800 25700
2020-12-12 02:45 3.17 2030 25800 (2005) 621 (2006) 7070 642 745 1240 1270 2880 10500 12700 22800 25700
2020-12-12 01:45 3.19 2070 25800 (2005) 621 (2006) 7070 642 745 1240 1270 2880 10500 12700 22800 25700
2020-12-12 00:45 3.23 2140 25800 (2005) 621 (2006) 7070 642 745 1240 1270 2880 10500 12700 22800 25700
2020-12-11 23:45 3.26 2200 30100 (2005) 623 (2002) 7860 629 720 1220 1350 3200 14900 15700 22900 29200
2020-12-11 22:45 3.31 2300 30100 (2005) 623 (2002) 7860 629 720 1220 1350 3200 14900 15700 22900 29200
2020-12-11 21:45 3.38 2440 30100 (2005) 623 (2002) 7860 629 720 1220 1350 3200 14900 15700 22900 29200
2020-12-11 20:45 3.44 2570 30100 (2005) 623 (2002) 7860 629 720 1220 1350 3200 14900 15700 22900 29200
2020-12-11 19:45 3.52 2740 30100 (2005) 623 (2002) 7860 629 720 1220 1350 3200 14900 15700 22900 29200
2020-12-11 18:45 3.59 2910 30100 (2005) 623 (2002) 7860 629 720 1220 1350 3200 14900 15700 22900 29200
2020-12-11 17:45 3.67 3110 30100 (2005) 623 (2002) 7860 629 720 1220 1350 3200 14900 15700 22900 29200
2020-12-11 16:45 3.76 3340 30100 (2005) 623 (2002) 7860 629 720 1220 1350 3200 14900 15700 22900 29200
2020-12-11 15:45 3.84 3550 30100 (2005) 623 (2002) 7860 629 720 1220 1350 3200 14900 15700 22900 29200
2020-12-11 14:45 3.93 3780 30100 (2005) 623 (2002) 7860 629 720 1220 1350 3200 14900 15700 22900 29200
2020-12-11 13:45 4.01 3990 30100 (2005) 623 (2002) 7860 629 720 1220 1350 3200 14900 15700 22900 29200
2020-12-11 12:45 4.11 4250 30100 (2005) 623 (2002) 7860 629 720 1220 1350 3200 14900 15700 22900 29200
2020-12-11 11:45 4.19 4460 30100 (2005) 623 (2002) 7860 629 720 1220 1350 3200 14900 15700 22900 29200
2020-12-11 10:45 4.27 4670 30100 (2005) 623 (2002) 7860 629 720 1220 1350 3200 14900 15700 22900 29200
2020-12-11 09:45 4.34 4860 30100 (2005) 623 (2002) 7860 629 720 1220 1350 3200 14900 15700 22900 29200
2020-12-11 08:45 4.39 5000 30100 (2005) 623 (2002) 7860 629 720 1220 1350 3200 14900 15700 22900 29200
2020-12-11 07:45 4.42 5080 30100 (2005) 623 (2002) 7860 629 720 1220 1350 3200 14900 15700 22900 29200
2020-12-11 06:45 4.41 5060 30100 (2005) 623 (2002) 7860 629 720 1220 1350 3200 14900 15700 22900 29200
2020-12-11 05:45 4.35 4890 30100 (2005) 623 (2002) 7860 629 720 1220 1350 3200 14900 15700 22900 29200
2020-12-11 04:45 4.23 4560 30100 (2005) 623 (2002) 7860 629 720 1220 1350 3200 14900 15700 22900 29200
2020-12-11 03:45 4.02 4020 30100 (2005) 623 (2002) 7860 629 720 1220 1350 3200 14900 15700 22900 29200
2020-12-11 02:45 3.68 3130 30100 (2005) 623 (2002) 7860 629 720 1220 1350 3200 14900 15700 22900 29200
2020-12-11 01:45 3.25 2180 30100 (2005) 623 (2002) 7860 629 720 1220 1350 3200 14900 15700 22900 29200
2020-12-11 00:45 2.87 1540 30100 (2005) 623 (2002) 7860 629 720 1220 1350 3200 14900 15700 22900 29200
2020-12-10 23:45 2.66 1260 32000 (2005) 623 (2002) 7150 640 716 1170 1540 2670 10200 13700 24200 30500
2020-12-10 22:45 2.59 1180 32000 (2005) 623 (2002) 7150 640 716 1170 1540 2670 10200 13700 24200 30500
2020-12-10 21:45 2.59 1180 32000 (2005) 623 (2002) 7150 640 716 1170 1540 2670 10200 13700 24200 30500
2020-12-10 20:45 2.59 1180 32000 (2005) 623 (2002) 7150 640 716 1170 1540 2670 10200 13700 24200 30500
2020-12-10 19:45 2.59 1180 32000 (2005) 623 (2002) 7150 640 716 1170 1540 2670 10200 13700 24200 30500
2020-12-10 18:45 2.59 1180 32000 (2005) 623 (2002) 7150 640 716 1170 1540 2670 10200 13700 24200 30500
2020-12-10 17:45 2.59 1180 32000 (2005) 623 (2002) 7150 640 716 1170 1540 2670 10200 13700 24200 30500
2020-12-10 16:45 2.59 1180 32000 (2005) 623 (2002) 7150 640 716 1170 1540 2670 10200 13700 24200 30500
2020-12-10 15:45 2.59 1180 32000 (2005) 623 (2002) 7150 640 716 1170 1540 2670 10200 13700 24200 30500
2020-12-10 14:45 2.59 1180 32000 (2005) 623 (2002) 7150 640 716 1170 1540 2670 10200 13700 24200 30500
2020-12-10 13:45 2.60 1190 32000 (2005) 623 (2002) 7150 640 716 1170 1540 2670 10200 13700 24200 30500
2020-12-10 12:45 2.60 1190 32000 (2005) 623 (2002) 7150 640 716 1170 1540 2670 10200 13700 24200 30500
2020-12-10 11:45 2.60 1190 32000 (2005) 623 (2002) 7150 640 716 1170 1540 2670 10200 13700 24200 30500
2020-12-10 10:45 2.60 1190 32000 (2005) 623 (2002) 7150 640 716 1170 1540 2670 10200 13700 24200 30500
2020-12-10 09:45 2.59 1180 32000 (2005) 623 (2002) 7150 640 716 1170 1540 2670 10200 13700 24200 30500
2020-12-10 08:45 2.59 1180 32000 (2005) 623 (2002) 7150 640 716 1170 1540 2670 10200 13700 24200 30500
2020-12-10 07:45 2.59 1180 32000 (2005) 623 (2002) 7150 640 716 1170 1540 2670 10200 13700 24200 30500
2020-12-10 06:45 2.59 1180 32000 (2005) 623 (2002) 7150 640 716 1170 1540 2670 10200 13700 24200 30500
2020-12-10 05:45 2.59 1180 32000 (2005) 623 (2002) 7150 640 716 1170 1540 2670 10200 13700 24200 30500
2020-12-10 04:45 2.59 1180 32000 (2005) 623 (2002) 7150 640 716 1170 1540 2670 10200 13700 24200 30500
2020-12-10 03:45 2.59 1180 32000 (2005) 623 (2002) 7150 640 716 1170 1540 2670 10200 13700 24200 30500
2020-12-10 02:45 2.59 1180 32000 (2005) 623 (2002) 7150 640 716 1170 1540 2670 10200 13700 24200 30500
2020-12-10 01:45 2.59 1180 32000 (2005) 623 (2002) 7150 640 716 1170 1540 2670 10200 13700 24200 30500
2020-12-10 00:45 2.59 1180 32000 (2005) 623 (2002) 7150 640 716 1170 1540 2670 10200 13700 24200 30500
2020-12-09 23:45 2.59 1180 33300 (2005) 637 (2002) 7660 642 670 1030 1320 2530 10500 17300 26600 32400
2020-12-09 22:45 2.59 1180 33300 (2005) 637 (2002) 7660 642 670 1030 1320 2530 10500 17300 26600 32400
2020-12-09 21:45 2.60 1190 33300 (2005) 637 (2002) 7660 642 670 1030 1320 2530 10500 17300 26600 32400
2020-12-09 20:45 2.60 1190 33300 (2005) 637 (2002) 7660 642 670 1030 1320 2530 10500 17300 26600 32400
2020-12-09 19:45 2.60 1190 33300 (2005) 637 (2002) 7660 642 670 1030 1320 2530 10500 17300 26600 32400
2020-12-09 18:45 2.60 1190 33300 (2005) 637 (2002) 7660 642 670 1030 1320 2530 10500 17300 26600 32400
2020-12-09 17:45 2.60 1190 33300 (2005) 637 (2002) 7660 642 670 1030 1320 2530 10500 17300 26600 32400
2020-12-09 16:45 2.60 1190 33300 (2005) 637 (2002) 7660 642 670 1030 1320 2530 10500 17300 26600 32400
2020-12-09 15:45 2.60 1190 33300 (2005) 637 (2002) 7660 642 670 1030 1320 2530 10500 17300 26600 32400
2020-12-09 14:45 2.60 1190 33300 (2005) 637 (2002) 7660 642 670 1030 1320 2530 10500 17300 26600 32400
2020-12-09 13:45 2.61 1200 33300 (2005) 637 (2002) 7660 642 670 1030 1320 2530 10500 17300 26600 32400
2020-12-09 12:45 2.61 1200 33300 (2005) 637 (2002) 7660 642 670 1030 1320 2530 10500 17300 26600 32400
2020-12-09 11:45 2.61 1200 33300 (2005) 637 (2002) 7660 642 670 1030 1320 2530 10500 17300 26600 32400
2020-12-09 10:45 2.61 1200 33300 (2005) 637 (2002) 7660 642 670 1030 1320 2530 10500 17300 26600 32400
2020-12-09 09:45 2.60 1190 33300 (2005) 637 (2002) 7660 642 670 1030 1320 2530 10500 17300 26600 32400
2020-12-09 08:45 2.60 1190 33300 (2005) 637 (2002) 7660 642 670 1030 1320 2530 10500 17300 26600 32400
2020-12-09 07:45 2.59 1180 33300 (2005) 637 (2002) 7660 642 670 1030 1320 2530 10500 17300 26600 32400
2020-12-09 06:45 2.59 1180 33300 (2005) 637 (2002) 7660 642 670 1030 1320 2530 10500 17300 26600 32400
2020-12-09 05:45 2.59 1180 33300 (2005) 637 (2002) 7660 642 670 1030 1320 2530 10500 17300 26600 32400
2020-12-09 04:45 2.59 1180 33300 (2005) 637 (2002) 7660 642 670 1030 1320 2530 10500 17300 26600 32400
2020-12-09 03:45 2.59 1180 33300 (2005) 637 (2002) 7660 642 670 1030 1320 2530 10500 17300 26600 32400
2020-12-09 02:45 2.59 1180 33300 (2005) 637 (2002) 7660 642 670 1030 1320 2530 10500 17300 26600 32400
2020-12-09 01:45 2.59 1180 33300 (2005) 637 (2002) 7660 642 670 1030 1320 2530 10500 17300 26600 32400
2020-12-09 00:45 2.59 1180 33300 (2005) 637 (2002) 7660 642 670 1030 1320 2530 10500 17300 26600 32400
2020-12-08 23:45 2.60 1190 36700 (2005) 573 (2003) 7700 589 653 1230 1350 2890 9070 17300 28200 35300
2020-12-08 22:45 2.60 1190 36700 (2005) 573 (2003) 7700 589 653 1230 1350 2890 9070 17300 28200 35300
2020-12-08 21:45 2.60 1190 36700 (2005) 573 (2003) 7700 589 653 1230 1350 2890 9070 17300 28200 35300
2020-12-08 20:45 2.60 1190 36700 (2005) 573 (2003) 7700 589 653 1230 1350 2890 9070 17300 28200 35300
2020-12-08 19:45 2.60 1190 36700 (2005) 573 (2003) 7700 589 653 1230 1350 2890 9070 17300 28200 35300
2020-12-08 18:45 2.60 1190 36700 (2005) 573 (2003) 7700 589 653 1230 1350 2890 9070 17300 28200 35300
2020-12-08 17:45 2.60 1190 36700 (2005) 573 (2003) 7700 589 653 1230 1350 2890 9070 17300 28200 35300
2020-12-08 16:45 2.60 1190 36700 (2005) 573 (2003) 7700 589 653 1230 1350 2890 9070 17300 28200 35300
2020-12-08 15:45 2.60 1130 36700 (2005) 573 (2003) 7700 589 653 1230 1350 2890 9070 17300 28200 35300
2020-12-08 14:45 2.60 1130 36700 (2005) 573 (2003) 7700 589 653 1230 1350 2890 9070 17300 28200 35300
2020-12-08 13:45 2.60 1130 36700 (2005) 573 (2003) 7700 589 653 1230 1350 2890 9070 17300 28200 35300
2020-12-08 12:45 2.61 1140 36700 (2005) 573 (2003) 7700 589 653 1230 1350 2890 9070 17300 28200 35300
2020-12-08 11:45 2.61 1140 36700 (2005) 573 (2003) 7700 589 653 1230 1350 2890 9070 17300 28200 35300
2020-12-08 10:45 2.60 1130 36700 (2005) 573 (2003) 7700 589 653 1230 1350 2890 9070 17300 28200 35300
2020-12-08 09:45 2.60 1130 36700 (2005) 573 (2003) 7700 589 653 1230 1350 2890 9070 17300 28200 35300
2020-12-08 08:45 2.60 1130 36700 (2005) 573 (2003) 7700 589 653 1230 1350 2890 9070 17300 28200 35300
2020-12-08 07:45 2.60 1130 36700 (2005) 573 (2003) 7700 589 653 1230 1350 2890 9070 17300 28200 35300
2020-12-08 06:45 2.60 1130 36700 (2005) 573 (2003) 7700 589 653 1230 1350 2890 9070 17300 28200 35300
2020-12-08 05:45 2.60 1130 36700 (2005) 573 (2003) 7700 589 653 1230 1350 2890 9070 17300 28200 35300
2020-12-08 04:45 2.60 1130 36700 (2005) 573 (2003) 7700 589 653 1230 1350 2890 9070 17300 28200 35300
2020-12-08 03:45 2.60 1130 36700 (2005) 573 (2003) 7700 589 653 1230 1350 2890 9070 17300 28200 35300
2020-12-08 02:45 2.60 1130 36700 (2005) 573 (2003) 7700 589 653 1230 1350 2890 9070 17300 28200 35300
2020-12-08 01:45 2.60 1130 36700 (2005) 573 (2003) 7700 589 653 1230 1350 2890 9070 17300 28200 35300
2020-12-08 00:45 2.60 1130 36700 (2005) 573 (2003) 7700 589 653 1230 1350 2890 9070 17300 28200 35300
2020-12-07 23:45 2.60 1130 30800 (2005) 559 (2003) 6940 577 663 971 1200 3330 8570 16200 22500 29800
2020-12-07 22:45 2.61 1140 30800 (2005) 559 (2003) 6940 577 663 971 1200 3330 8570 16200 22500 29800
2020-12-07 21:45 2.61 1140 30800 (2005) 559 (2003) 6940 577 663 971 1200 3330 8570 16200 22500 29800
2020-12-07 20:45 2.61 1140 30800 (2005) 559 (2003) 6940 577 663 971 1200 3330 8570 16200 22500 29800
2020-12-07 19:45 2.61 1140 30800 (2005) 559 (2003) 6940 577 663 971 1200 3330 8570 16200 22500 29800
2020-12-07 18:45 2.61 1140 30800 (2005) 559 (2003) 6940 577 663 971 1200 3330 8570 16200 22500 29800
2020-12-07 17:45 2.61 1140 30800 (2005) 559 (2003) 6940 577 663 971 1200 3330 8570 16200 22500 29800
2020-12-07 16:45 2.61 1140 30800 (2005) 559 (2003) 6940 577 663 971 1200 3330 8570 16200 22500 29800
2020-12-07 15:45 2.61 1140 30800 (2005) 559 (2003) 6940 577 663 971 1200 3330 8570 16200 22500 29800
2020-12-07 14:45 2.61 1140 30800 (2005) 559 (2003) 6940 577 663 971 1200 3330 8570 16200 22500 29800
2020-12-07 13:45 2.61 1140 30800 (2005) 559 (2003) 6940 577 663 971 1200 3330 8570 16200 22500 29800
2020-12-07 12:45 2.61 1140 30800 (2005) 559 (2003) 6940 577 663 971 1200 3330 8570 16200 22500 29800
2020-12-07 11:45 2.61 1140 30800 (2005) 559 (2003) 6940 577 663 971 1200 3330 8570 16200 22500 29800
2020-12-07 10:45 2.61 1140 30800 (2005) 559 (2003) 6940 577 663 971 1200 3330 8570 16200 22500 29800
2020-12-07 09:45 2.61 1140 30800 (2005) 559 (2003) 6940 577 663 971 1200 3330 8570 16200 22500 29800
2020-12-07 08:45 2.62 1150 30800 (2005) 559 (2003) 6940 577 663 971 1200 3330 8570 16200 22500 29800
2020-12-07 07:45 2.61 1140 30800 (2005) 559 (2003) 6940 577 663 971 1200 3330 8570 16200 22500 29800
2020-12-07 06:45 2.61 1140 30800 (2005) 559 (2003) 6940 577 663 971 1200 3330 8570 16200 22500 29800
2020-12-07 05:45 2.61 1140 30800 (2005) 559 (2003) 6940 577 663 971 1200 3330 8570 16200 22500 29800
2020-12-07 04:45 2.61 1140 30800 (2005) 559 (2003) 6940 577 663 971 1200 3330 8570 16200 22500 29800
2020-12-07 03:45 2.61 1140 30800 (2005) 559 (2003) 6940 577 663 971 1200 3330 8570 16200 22500 29800
2020-12-07 02:45 2.62 1150 30800 (2005) 559 (2003) 6940 577 663 971 1200 3330 8570 16200 22500 29800
2020-12-07 01:45 2.62 1150 30800 (2005) 559 (2003) 6940 577 663 971 1200 3330 8570 16200 22500 29800
2020-12-07 00:45 2.61 1140 30800 (2005) 559 (2003) 6940 577 663 971 1200 3330 8570 16200 22500 29800
2020-12-06 23:45 2.62 1150 29700 (1997) 568 (2003) 6810 594 739 1010 1160 2000 10100 13900 22500 28700
2020-12-06 22:45 2.62 1150 29700 (1997) 568 (2003) 6810 594 739 1010 1160 2000 10100 13900 22500 28700
2020-12-06 21:45 2.62 1150 29700 (1997) 568 (2003) 6810 594 739 1010 1160 2000 10100 13900 22500 28700
2020-12-06 20:45 2.62 1150 29700 (1997) 568 (2003) 6810 594 739 1010 1160 2000 10100 13900 22500 28700
2020-12-06 19:45 2.62 1150 29700 (1997) 568 (2003) 6810 594 739 1010 1160 2000 10100 13900 22500 28700
2020-12-06 18:45 2.62 1150 29700 (1997) 568 (2003) 6810 594 739 1010 1160 2000 10100 13900 22500 28700
2020-12-06 17:45 2.62 1150 29700 (1997) 568 (2003) 6810 594 739 1010 1160 2000 10100 13900 22500 28700
2020-12-06 16:45 2.62 1150 29700 (1997) 568 (2003) 6810 594 739 1010 1160 2000 10100 13900 22500 28700
2020-12-06 15:45 2.62 1150 29700 (1997) 568 (2003) 6810 594 739 1010 1160 2000 10100 13900 22500 28700
2020-12-06 14:45 2.62 1150 29700 (1997) 568 (2003) 6810 594 739 1010 1160 2000 10100 13900 22500 28700
2020-12-06 13:45 2.63 1160 29700 (1997) 568 (2003) 6810 594 739 1010 1160 2000 10100 13900 22500 28700
2020-12-06 12:45 2.63 1160 29700 (1997) 568 (2003) 6810 594 739 1010 1160 2000 10100 13900 22500 28700
2020-12-06 11:45 2.63 1160 29700 (1997) 568 (2003) 6810 594 739 1010 1160 2000 10100 13900 22500 28700
2020-12-06 10:45 2.63 1160 29700 (1997) 568 (2003) 6810 594 739 1010 1160 2000 10100 13900 22500 28700
2020-12-06 09:45 2.63 1160 29700 (1997) 568 (2003) 6810 594 739 1010 1160 2000 10100 13900 22500 28700
2020-12-06 08:45 2.63 1160 29700 (1997) 568 (2003) 6810 594 739 1010 1160 2000 10100 13900 22500 28700
2020-12-06 07:45 2.63 1160 29700 (1997) 568 (2003) 6810 594 739 1010 1160 2000 10100 13900 22500 28700
2020-12-06 06:45 2.63 1160 29700 (1997) 568 (2003) 6810 594 739 1010 1160 2000 10100 13900 22500 28700
2020-12-06 05:45 2.63 1160 29700 (1997) 568 (2003) 6810 594 739 1010 1160 2000 10100 13900 22500 28700
2020-12-06 04:45 2.63 1160 29700 (1997) 568 (2003) 6810 594 739 1010 1160 2000 10100 13900 22500 28700
2020-12-06 03:45 2.63 1160 29700 (1997) 568 (2003) 6810 594 739 1010 1160 2000 10100 13900 22500 28700
2020-12-06 02:45 2.63 1160 29700 (1997) 568 (2003) 6810 594 739 1010 1160 2000 10100 13900 22500 28700
2020-12-06 01:45 2.63 1160 29700 (1997) 568 (2003) 6810 594 739 1010 1160 2000 10100 13900 22500 28700
2020-12-06 00:45 2.63 1160 29700 (1997) 568 (2003) 6810 594 739 1010 1160 2000 10100 13900 22500 28700
2020-12-05 23:45 2.63 1160 35300 (1997) 578 (2003) 8280 625 824 1090 1250 3600 14000 17900 26000 33600
2020-12-05 22:45 2.63 1160 35300 (1997) 578 (2003) 8280 625 824 1090 1250 3600 14000 17900 26000 33600
2020-12-05 21:45 2.64 1180 35300 (1997) 578 (2003) 8280 625 824 1090 1250 3600 14000 17900 26000 33600
2020-12-05 20:45 2.64 1180 35300 (1997) 578 (2003) 8280 625 824 1090 1250 3600 14000 17900 26000 33600
2020-12-05 19:45 2.64 1180 35300 (1997) 578 (2003) 8280 625 824 1090 1250 3600 14000 17900 26000 33600
2020-12-05 18:45 2.64 1180 35300 (1997) 578 (2003) 8280 625 824 1090 1250 3600 14000 17900 26000 33600
2020-12-05 17:45 2.64 1180 35300 (1997) 578 (2003) 8280 625 824 1090 1250 3600 14000 17900 26000 33600
2020-12-05 16:45 2.64 1180 35300 (1997) 578 (2003) 8280 625 824 1090 1250 3600 14000 17900 26000 33600
2020-12-05 15:45 2.65 1190 35300 (1997) 578 (2003) 8280 625 824 1090 1250 3600 14000 17900 26000 33600
2020-12-05 14:45 2.65 1190 35300 (1997) 578 (2003) 8280 625 824 1090 1250 3600 14000 17900 26000 33600
2020-12-05 13:45 2.66 1200 35300 (1997) 578 (2003) 8280 625 824 1090 1250 3600 14000 17900 26000 33600
2020-12-05 12:45 2.65 1190 35300 (1997) 578 (2003) 8280 625 824 1090 1250 3600 14000 17900 26000 33600
2020-12-05 11:45 2.66 1200 35300 (1997) 578 (2003) 8280 625 824 1090 1250 3600 14000 17900 26000 33600
2020-12-05 10:45 2.66 1200 35300 (1997) 578 (2003) 8280 625 824 1090 1250 3600 14000 17900 26000 33600
2020-12-05 09:45 2.65 1190 35300 (1997) 578 (2003) 8280 625 824 1090 1250 3600 14000 17900 26000 33600
2020-12-05 08:45 2.66 1200 35300 (1997) 578 (2003) 8280 625 824 1090 1250 3600 14000 17900 26000 33600
2020-12-05 07:45 2.65 1190 35300 (1997) 578 (2003) 8280 625 824 1090 1250 3600 14000 17900 26000 33600
2020-12-05 06:45 2.65 1190 35300 (1997) 578 (2003) 8280 625 824 1090 1250 3600 14000 17900 26000 33600
2020-12-05 05:45 2.65 1190 35300 (1997) 578 (2003) 8280 625 824 1090 1250 3600 14000 17900 26000 33600
2020-12-05 04:45 2.66 1200 35300 (1997) 578 (2003) 8280 625 824 1090 1250 3600 14000 17900 26000 33600
2020-12-05 03:45 2.66 1200 35300 (1997) 578 (2003) 8280 625 824 1090 1250 3600 14000 17900 26000 33600
2020-12-05 02:45 2.66 1200 35300 (1997) 578 (2003) 8280 625 824 1090 1250 3600 14000 17900 26000 33600
2020-12-05 01:45 2.66 1200 35300 (1997) 578 (2003) 8280 625 824 1090 1250 3600 14000 17900 26000 33600
2020-12-05 00:45 2.67 1210 35300 (1997) 578 (2003) 8280 625 824 1090 1250 3600 14000 17900 26000 33600
2020-12-04 23:45 2.67 1210 34800 (1997) 653 (2003) 8360 698 930 1100 1330 2850 12300 17600 31100 34200
2020-12-04 22:45 2.68 1220 34800 (1997) 653 (2003) 8360 698 930 1100 1330 2850 12300 17600 31100 34200
2020-12-04 21:45 2.68 1220 34800 (1997) 653 (2003) 8360 698 930 1100 1330 2850 12300 17600 31100 34200
2020-12-04 20:45 2.69 1240 34800 (1997) 653 (2003) 8360 698 930 1100 1330 2850 12300 17600 31100 34200
2020-12-04 19:45 2.69 1240 34800 (1997) 653 (2003) 8360 698 930 1100 1330 2850 12300 17600 31100 34200
2020-12-04 18:45 2.70 1250 34800 (1997) 653 (2003) 8360 698 930 1100 1330 2850 12300 17600 31100 34200
2020-12-04 17:45 2.70 1250 34800 (1997) 653 (2003) 8360 698 930 1100 1330 2850 12300 17600 31100 34200
2020-12-04 16:45 2.71 1260 34800 (1997) 653 (2003) 8360 698 930 1100 1330 2850 12300 17600 31100 34200
2020-12-04 15:45 2.72 1270 34800 (1997) 653 (2003) 8360 698 930 1100 1330 2850 12300 17600 31100 34200
2020-12-04 14:45 2.73 1290 34800 (1997) 653 (2003) 8360 698 930 1100 1330 2850 12300 17600 31100 34200
2020-12-04 13:45 2.73 1290 34800 (1997) 653 (2003) 8360 698 930 1100 1330 2850 12300 17600 31100 34200
2020-12-04 12:45 2.74 1300 34800 (1997) 653 (2003) 8360 698 930 1100 1330 2850 12300 17600 31100 34200
2020-12-04 11:45 2.74 1300 34800 (1997) 653 (2003) 8360 698 930 1100 1330 2850 12300 17600 31100 34200
2020-12-04 10:45 2.75 1310 34800 (1997) 653 (2003) 8360 698 930 1100 1330 2850 12300 17600 31100 34200
2020-12-04 09:45 2.74 1300 34800 (1997) 653 (2003) 8360 698 930 1100 1330 2850 12300 17600 31100 34200
2020-12-04 08:45 2.74 1300 34800 (1997) 653 (2003) 8360 698 930 1100 1330 2850 12300 17600 31100 34200
2020-12-04 07:45 2.73 1290 34800 (1997) 653 (2003) 8360 698 930 1100 1330 2850 12300 17600 31100 34200
2020-12-04 06:45 2.73 1290 34800 (1997) 653 (2003) 8360 698 930 1100 1330 2850 12300 17600 31100 34200
2020-12-04 05:45 2.72 1270 34800 (1997) 653 (2003) 8360 698 930 1100 1330 2850 12300 17600 31100 34200
2020-12-04 04:45 2.72 1270 34800 (1997) 653 (2003) 8360 698 930 1100 1330 2850 12300 17600 31100 34200
2020-12-04 03:45 2.71 1260 34800 (1997) 653 (2003) 8360 698 930 1100 1330 2850 12300 17600 31100 34200
2020-12-04 02:45 2.70 1250 34800 (1997) 653 (2003) 8360 698 930 1100 1330 2850 12300 17600 31100 34200
2020-12-04 01:45 2.69 1240 34800 (1997) 653 (2003) 8360 698 930 1100 1330 2850 12300 17600 31100 34200
2020-12-04 00:45 2.68 1220 34800 (1997) 653 (2003) 8360 698 930 1100 1330 2850 12300 17600 31100 34200
2020-12-03 23:45 2.68 1220 35500 (1997) 682 (2003) 8040 727 912 1050 1130 2320 8150 13400 31500 35200
2020-12-03 22:45 2.68 1220 35500 (1997) 682 (2003) 8040 727 912 1050 1130 2320 8150 13400 31500 35200
2020-12-03 21:45 2.68 1220 35500 (1997) 682 (2003) 8040 727 912 1050 1130 2320 8150 13400 31500 35200
2020-12-03 20:45 2.68 1220 35500 (1997) 682 (2003) 8040 727 912 1050 1130 2320 8150 13400 31500 35200
2020-12-03 19:45 2.68 1220 35500 (1997) 682 (2003) 8040 727 912 1050 1130 2320 8150 13400 31500 35200
2020-12-03 18:45 2.68 1220 35500 (1997) 682 (2003) 8040 727 912 1050 1130 2320 8150 13400 31500 35200
2020-12-03 17:45 2.68 1220 35500 (1997) 682 (2003) 8040 727 912 1050 1130 2320 8150 13400 31500 35200
2020-12-03 16:45 2.68 1220 35500 (1997) 682 (2003) 8040 727 912 1050 1130 2320 8150 13400 31500 35200
2020-12-03 15:45 2.69 1240 35500 (1997) 682 (2003) 8040 727 912 1050 1130 2320 8150 13400 31500 35200
2020-12-03 14:45 2.69 1240 35500 (1997) 682 (2003) 8040 727 912 1050 1130 2320 8150 13400 31500 35200
2020-12-03 13:45 2.69 1240 35500 (1997) 682 (2003) 8040 727 912 1050 1130 2320 8150 13400 31500 35200
2020-12-03 12:45 2.69 1240 35500 (1997) 682 (2003) 8040 727 912 1050 1130 2320 8150 13400 31500 35200
2020-12-03 11:45 2.69 1240 35500 (1997) 682 (2003) 8040 727 912 1050 1130 2320 8150 13400 31500 35200
2020-12-03 10:45 2.69 1240 35500 (1997) 682 (2003) 8040 727 912 1050 1130 2320 8150 13400 31500 35200
2020-12-03 09:45 2.70 1250 35500 (1997) 682 (2003) 8040 727 912 1050 1130 2320 8150 13400 31500 35200
2020-12-03 08:45 2.70 1250 35500 (1997) 682 (2003) 8040 727 912 1050 1130 2320 8150 13400 31500 35200
2020-12-03 07:45 2.70 1250 35500 (1997) 682 (2003) 8040 727 912 1050 1130 2320 8150 13400 31500 35200
2020-12-03 06:45 2.70 1250 35500 (1997) 682 (2003) 8040 727 912 1050 1130 2320 8150 13400 31500 35200
2020-12-03 05:45 2.71 1260 35500 (1997) 682 (2003) 8040 727 912 1050 1130 2320 8150 13400 31500 35200
2020-12-03 04:45 2.70 1250 35500 (1997) 682 (2003) 8040 727 912 1050 1130 2320 8150 13400 31500 35200
2020-12-03 03:45 2.71 1260 35500 (1997) 682 (2003) 8040 727 912 1050 1130 2320 8150 13400 31500 35200
2020-12-03 02:45 2.71 1260 35500 (1997) 682 (2003) 8040 727 912 1050 1130 2320 8150 13400 31500 35200
2020-12-03 01:45 2.71 1260 35500 (1997) 682 (2003) 8040 727 912 1050 1130 2320 8150 13400 31500 35200
2020-12-03 00:45 2.71 1260 35500 (1997) 682 (2003) 8040 727 912 1050 1130 2320 8150 13400 31500 35200
2020-12-02 23:45 2.72 1270 36100 (2005) 736 (2003) 8480 772 1020 1230 1310 1750 8570 15600 34100 36000
2020-12-02 22:45 2.73 1290 36100 (2005) 736 (2003) 8480 772 1020 1230 1310 1750 8570 15600 34100 36000
2020-12-02 21:45 2.73 1290 36100 (2005) 736 (2003) 8480 772 1020 1230 1310 1750 8570 15600 34100 36000
2020-12-02 20:45 2.74 1300 36100 (2005) 736 (2003) 8480 772 1020 1230 1310 1750 8570 15600 34100 36000
2020-12-02 19:45 2.74 1300 36100 (2005) 736 (2003) 8480 772 1020 1230 1310 1750 8570 15600 34100 36000
2020-12-02 18:45 2.75 1310 36100 (2005) 736 (2003) 8480 772 1020 1230 1310 1750 8570 15600 34100 36000
2020-12-02 17:45 2.76 1320 36100 (2005) 736 (2003) 8480 772 1020 1230 1310 1750 8570 15600 34100 36000
2020-12-02 16:45 2.77 1340 36100 (2005) 736 (2003) 8480 772 1020 1230 1310 1750 8570 15600 34100 36000
2020-12-02 15:45 2.78 1350 36100 (2005) 736 (2003) 8480 772 1020 1230 1310 1750 8570 15600 34100 36000
2020-12-02 14:45 2.79 1360 36100 (2005) 736 (2003) 8480 772 1020 1230 1310 1750 8570 15600 34100 36000
2020-12-02 13:45 2.79 1360 36100 (2005) 736 (2003) 8480 772 1020 1230 1310 1750 8570 15600 34100 36000
2020-12-02 12:45 2.80 1380 36100 (2005) 736 (2003) 8480 772 1020 1230 1310 1750 8570 15600 34100 36000
2020-12-02 11:45 2.81 1390 36100 (2005) 736 (2003) 8480 772 1020 1230 1310 1750 8570 15600 34100 36000
2020-12-02 10:45 2.81 1390 36100 (2005) 736 (2003) 8480 772 1020 1230 1310 1750 8570 15600 34100 36000
2020-12-02 09:45 2.83 1420 36100 (2005) 736 (2003) 8480 772 1020 1230 1310 1750 8570 15600 34100 36000
2020-12-02 08:45 2.83 1420 36100 (2005) 736 (2003) 8480 772 1020 1230 1310 1750 8570 15600 34100 36000
2020-12-02 07:45 2.83 1420 36100 (2005) 736 (2003) 8480 772 1020 1230 1310 1750 8570 15600 34100 36000
2020-12-02 06:45 2.83 1420 36100 (2005) 736 (2003) 8480 772 1020 1230 1310 1750 8570 15600 34100 36000
2020-12-02 05:45 2.83 1420 36100 (2005) 736 (2003) 8480 772 1020 1230 1310 1750 8570 15600 34100 36000
2020-12-02 04:45 2.83 1420 36100 (2005) 736 (2003) 8480 772 1020 1230 1310 1750 8570 15600 34100 36000
2020-12-02 03:45 2.83 1420 36100 (2005) 736 (2003) 8480 772 1020 1230 1310 1750 8570 15600 34100 36000
2020-12-02 02:45 2.83 1420 36100 (2005) 736 (2003) 8480 772 1020 1230 1310 1750 8570 15600 34100 36000
2020-12-02 01:45 2.83 1420 36100 (2005) 736 (2003) 8480 772 1020 1230 1310 1750 8570 15600 34100 36000
2020-12-02 00:45 2.83 1420 36100 (2005) 736 (2003) 8480 772 1020 1230 1310 1750 8570 15600 34100 36000
2020-12-01 23:45 2.83 1420 37200 (2005) 633 (2003) 8150 656 755 1070 1180 2710 5810 20200 30000 35800
2020-12-01 22:45 2.84 1430 37200 (2005) 633 (2003) 8150 656 755 1070 1180 2710 5810 20200 30000 35800
2020-12-01 21:45 2.85 1450 37200 (2005) 633 (2003) 8150 656 755 1070 1180 2710 5810 20200 30000 35800
2020-12-01 20:45 2.86 1460 37200 (2005) 633 (2003) 8150 656 755 1070 1180 2710 5810 20200 30000 35800
2020-12-01 19:45 2.87 1470 37200 (2005) 633 (2003) 8150 656 755 1070 1180 2710 5810 20200 30000 35800
2020-12-01 18:45 2.88 1490 37200 (2005) 633 (2003) 8150 656 755 1070 1180 2710 5810 20200 30000 35800
2020-12-01 17:45 2.90 1520 37200 (2005) 633 (2003) 8150 656 755 1070 1180 2710 5810 20200 30000 35800
2020-12-01 16:45 2.92 1540 37200 (2005) 633 (2003) 8150 656 755 1070 1180 2710 5810 20200 30000 35800
2020-12-01 15:45 2.93 1560 37200 (2005) 633 (2003) 8150 656 755 1070 1180 2710 5810 20200 30000 35800
2020-12-01 14:45 2.95 1590 37200 (2005) 633 (2003) 8150 656 755 1070 1180 2710 5810 20200 30000 35800
2020-12-01 13:45 2.97 1620 37200 (2005) 633 (2003) 8150 656 755 1070 1180 2710 5810 20200 30000 35800
2020-12-01 12:45 3.00 1660 37200 (2005) 633 (2003) 8150 656 755 1070 1180 2710 5810 20200 30000 35800
2020-12-01 11:45 3.02 1700 37200 (2005) 633 (2003) 8150 656 755 1070 1180 2710 5810 20200 30000 35800
2020-12-01 10:45 3.04 1730 37200 (2005) 633 (2003) 8150 656 755 1070 1180 2710 5810 20200 30000 35800
2020-12-01 09:45 3.07 1780 37200 (2005) 633 (2003) 8150 656 755 1070 1180 2710 5810 20200 30000 35800
2020-12-01 08:45 3.09 1810 37200 (2005) 633 (2003) 8150 656 755 1070 1180 2710 5810 20200 30000 35800
2020-12-01 07:45 3.12 1860 37200 (2005) 633 (2003) 8150 656 755 1070 1180 2710 5810 20200 30000 35800
2020-12-01 06:45 3.15 1910 37200 (2005) 633 (2003) 8150 656 755 1070 1180 2710 5810 20200 30000 35800
2020-12-01 05:45 3.18 1960 37200 (2005) 633 (2003) 8150 656 755 1070 1180 2710 5810 20200 30000 35800
2020-12-01 04:45 3.21 2010 37200 (2005) 633 (2003) 8150 656 755 1070 1180 2710 5810 20200 30000 35800
2020-12-01 03:45 3.25 2090 37200 (2005) 633 (2003) 8150 656 755 1070 1180 2710 5810 20200 30000 35800
2020-12-01 02:45 3.29 2160 37200 (2005) 633 (2003) 8150 656 755 1070 1180 2710 5810 20200 30000 35800
2020-12-01 01:45 3.33 2240 37200 (2005) 633 (2003) 8150 656 755 1070 1180 2710 5810 20200 30000 35800
2020-12-01 00:45 3.36 2300 37200 (2005) 633 (2003) 8150 656 755 1070 1180 2710 5810 20200 30000 35800
2020-11-30 23:45 3.40 2380 38300 (2005) 552 (2003) 6700 593 764 831 1090 1660 5290 16700 25000 36200
2020-11-30 22:45 3.44 2460 38300 (2005) 552 (2003) 6700 593 764 831 1090 1660 5290 16700 25000 36200
2020-11-30 21:45 3.49 2570 38300 (2005) 552 (2003) 6700 593 764 831 1090 1660 5290 16700 25000 36200
2020-11-30 20:45 3.53 2650 38300 (2005) 552 (2003) 6700 593 764 831 1090 1660 5290 16700 25000 36200
2020-11-30 19:45 3.57 2750 38300 (2005) 552 (2003) 6700 593 764 831 1090 1660 5290 16700 25000 36200
2020-11-30 18:45 3.61 2840 38300 (2005) 552 (2003) 6700 593 764 831 1090 1660 5290 16700 25000 36200
2020-11-30 17:45 3.65 2940 38300 (2005) 552 (2003) 6700 593 764 831 1090 1660 5290 16700 25000 36200
2020-11-30 16:45 3.69 3040 38300 (2005) 552 (2003) 6700 593 764 831 1090 1660 5290 16700 25000 36200
2020-11-30 15:45 3.74 3170 38300 (2005) 552 (2003) 6700 593 764 831 1090 1660 5290 16700 25000 36200
2020-11-30 14:45 3.78 3270 38300 (2005) 552 (2003) 6700 593 764 831 1090 1660 5290 16700 25000 36200
2020-11-30 13:45 3.83 3410 38300 (2005) 552 (2003) 6700 593 764 831 1090 1660 5290 16700 25000 36200
2020-11-30 12:45 3.88 3540 38300 (2005) 552 (2003) 6700 593 764 831 1090 1660 5290 16700 25000 36200
2020-11-30 11:45 3.94 3690 38300 (2005) 552 (2003) 6700 593 764 831 1090 1660 5290 16700 25000 36200
2020-11-30 10:45 4.01 3870 38300 (2005) 552 (2003) 6700 593 764 831 1090 1660 5290 16700 25000 36200
2020-11-30 09:45 4.06 4010 38300 (2005) 552 (2003) 6700 593 764 831 1090 1660 5290 16700 25000 36200
2020-11-30 08:45 4.14 4210 38300 (2005) 552 (2003) 6700 593 764 831 1090 1660 5290 16700 25000 36200
2020-11-30 07:45 4.23 4450 38300 (2005) 552 (2003) 6700 593 764 831 1090 1660 5290 16700 25000 36200
2020-11-30 06:45 4.31 4660 38300 (2005) 552 (2003) 6700 593 764 831 1090 1660 5290 16700 25000 36200
2020-11-30 05:45 4.40 4910 38300 (2005) 552 (2003) 6700 593 764 831 1090 1660 5290 16700 25000 36200
2020-11-30 04:45 4.49 5160 38300 (2005) 552 (2003) 6700 593 764 831 1090 1660 5290 16700 25000 36200
2020-11-30 03:45 4.58 5400 38300 (2005) 552 (2003) 6700 593 764 831 1090 1660 5290 16700 25000 36200
2020-11-30 02:45 4.64 5560 38300 (2005) 552 (2003) 6700 593 764 831 1090 1660 5290 16700 25000 36200
2020-11-30 01:45 4.68 5670 38300 (2005) 552 (2003) 6700 593 764 831 1090 1660 5290 16700 25000 36200
2020-11-30 00:45 4.69 5700 38300 (2005) 552 (2003) 6700 593 764 831 1090 1660 5290 16700 25000 36200
2020-11-29 23:45 4.65 5590 37300 (2005) 573 (2007) 6130 578 625 834 992 1730 3030 11600 24700 35300
2020-11-29 22:45 4.59 5420 37300 (2005) 573 (2007) 6130 578 625 834 992 1730 3030 11600 24700 35300
2020-11-29 21:45 4.48 5130 37300 (2005) 573 (2007) 6130 578 625 834 992 1730 3030 11600 24700 35300
2020-11-29 20:45 4.28 4580 37300 (2005) 573 (2007) 6130 578 625 834 992 1730 3030 11600 24700 35300
2020-11-29 19:45 4.05 3980 37300 (2005) 573 (2007) 6130 578 625 834 992 1730 3030 11600 24700 35300
2020-11-29 18:45 3.79 3300 37300 (2005) 573 (2007) 6130 578 625 834 992 1730 3030 11600 24700 35300
2020-11-29 17:45 3.56 2720 37300 (2005) 573 (2007) 6130 578 625 834 992 1730 3030 11600 24700 35300
2020-11-29 16:45 3.43 2440 37300 (2005) 573 (2007) 6130 578 625 834 992 1730 3030 11600 24700 35300
2020-11-29 15:45 3.38 2340 37300 (2005) 573 (2007) 6130 578 625 834 992 1730 3030 11600 24700 35300
2020-11-29 14:45 3.36 2300 37300 (2005) 573 (2007) 6130 578 625 834 992 1730 3030 11600 24700 35300
2020-11-29 13:45 3.34 2260 37300 (2005) 573 (2007) 6130 578 625 834 992 1730 3030 11600 24700 35300
2020-11-29 12:45 3.33 2240 37300 (2005) 573 (2007) 6130 578 625 834 992 1730 3030 11600 24700 35300
2020-11-29 11:45 3.32 2220 37300 (2005) 573 (2007) 6130 578 625 834 992 1730 3030 11600 24700 35300
2020-11-29 10:45 3.33 2240 37300 (2005) 573 (2007) 6130 578 625 834 992 1730 3030 11600 24700 35300
2020-11-29 09:45 3.34 2260 37300 (2005) 573 (2007) 6130 578 625 834 992 1730 3030 11600 24700 35300
2020-11-29 08:45 3.36 2300 37300 (2005) 573 (2007) 6130 578 625 834 992 1730 3030 11600 24700 35300
2020-11-29 07:45 3.39 2360 37300 (2005) 573 (2007) 6130 578 625 834 992 1730 3030 11600 24700 35300
2020-11-29 06:45 3.43 2440 37300 (2005) 573 (2007) 6130 578 625 834 992 1730 3030 11600 24700 35300
2020-11-29 05:45 3.47 2520 37300 (2005) 573 (2007) 6130 578 625 834 992 1730 3030 11600 24700 35300
2020-11-29 04:45 3.52 2630 37300 (2005) 573 (2007) 6130 578 625 834 992 1730 3030 11600 24700 35300
2020-11-29 03:45 3.57 2750 37300 (2005) 573 (2007) 6130 578 625 834 992 1730 3030 11600 24700 35300
2020-11-29 02:45 3.63 2890 37300 (2005) 573 (2007) 6130 578 625 834 992 1730 3030 11600 24700 35300
2020-11-29 01:45 3.68 3010 37300 (2005) 573 (2007) 6130 578 625 834 992 1730 3030 11600 24700 35300
2020-11-29 00:45 3.73 3140 37300 (2005) 573 (2007) 6130 578 625 834 992 1730 3030 11600 24700 35300
2020-11-28 23:45 3.78 3270 38400 (2005) 553 (2007) 7130 561 670 986 1020 1600 6370 19600 29000 37300
2020-11-28 22:45 3.82 3380 38400 (2005) 553 (2007) 7130 561 670 986 1020 1600 6370 19600 29000 37300
2020-11-28 21:45 3.86 3490 38400 (2005) 553 (2007) 7130 561 670 986 1020 1600 6370 19600 29000 37300
2020-11-28 20:45 3.89 3560 38400 (2005) 553 (2007) 7130 561 670 986 1020 1600 6370 19600 29000 37300
2020-11-28 19:45 3.91 3610 38400 (2005) 553 (2007) 7130 561 670 986 1020 1600 6370 19600 29000 37300
2020-11-28 18:45 3.91 3610 38400 (2005) 553 (2007) 7130 561 670 986 1020 1600 6370 19600 29000 37300
2020-11-28 17:45 3.90 3590 38400 (2005) 553 (2007) 7130 561 670 986 1020 1600 6370 19600 29000 37300
2020-11-28 16:45 3.87 3510 38400 (2005) 553 (2007) 7130 561 670 986 1020 1600 6370 19600 29000 37300
2020-11-28 15:45 3.83 3410 38400 (2005) 553 (2007) 7130 561 670 986 1020 1600 6370 19600 29000 37300
2020-11-28 14:45 3.77 3240 38400 (2005) 553 (2007) 7130 561 670 986 1020 1600 6370 19600 29000 37300
2020-11-28 13:45 3.72 3110 38400 (2005) 553 (2007) 7130 561 670 986 1020 1600 6370 19600 29000 37300
2020-11-28 12:45 3.68 3010 38400 (2005) 553 (2007) 7130 561 670 986 1020 1600 6370 19600 29000 37300
2020-11-28 11:45 3.67 2990 38400 (2005) 553 (2007) 7130 561 670 986 1020 1600 6370 19600 29000 37300
2020-11-28 10:45 3.70 3060 38400 (2005) 553 (2007) 7130 561 670 986 1020 1600 6370 19600 29000 37300
2020-11-28 09:45 3.75 3190 38400 (2005) 553 (2007) 7130 561 670 986 1020 1600 6370 19600 29000 37300
2020-11-28 08:45 3.83 3410 38400 (2005) 553 (2007) 7130 561 670 986 1020 1600 6370 19600 29000 37300
2020-11-28 07:45 3.92 3640 38400 (2005) 553 (2007) 7130 561 670 986 1020 1600 6370 19600 29000 37300
2020-11-28 06:45 4.03 3920 38400 (2005) 553 (2007) 7130 561 670 986 1020 1600 6370 19600 29000 37300
2020-11-28 05:45 4.16 4270 38400 (2005) 553 (2007) 7130 561 670 986 1020 1600 6370 19600 29000 37300
2020-11-28 04:45 4.31 4660 38400 (2005) 553 (2007) 7130 561 670 986 1020 1600 6370 19600 29000 37300
2020-11-28 03:45 4.47 5100 38400 (2005) 553 (2007) 7130 561 670 986 1020 1600 6370 19600 29000 37300
2020-11-28 02:45 4.64 5560 38400 (2005) 553 (2007) 7130 561 670 986 1020 1600 6370 19600 29000 37300
2020-11-28 01:45 4.85 6150 38400 (2005) 553 (2007) 7130 561 670 986 1020 1600 6370 19600 29000 37300
2020-11-28 00:45 5.06 6740 38400 (2005) 553 (2007) 7130 561 670 986 1020 1600 6370 19600 29000 37300
2020-11-27 23:45 5.30 7390 37900 (2005) 550 (2007) 7220 552 567 863 1040 1910 5730 12300 31400 36900
2020-11-27 22:45 5.54 8070 37900 (2005) 550 (2007) 7220 552 567 863 1040 1910 5730 12300 31400 36900
2020-11-27 21:45 5.81 8850 37900 (2005) 550 (2007) 7220 552 567 863 1040 1910 5730 12300 31400 36900
2020-11-27 20:45 6.09 9650 37900 (2005) 550 (2007) 7220 552 567 863 1040 1910 5730 12300 31400 36900
2020-11-27 19:45 6.37 10500 37900 (2005) 550 (2007) 7220 552 567 863 1040 1910 5730 12300 31400 36900
2020-11-27 18:45 6.67 11400 37900 (2005) 550 (2007) 7220 552 567 863 1040 1910 5730 12300 31400 36900
2020-11-27 17:45 6.98 12300 37900 (2005) 550 (2007) 7220 552 567 863 1040 1910 5730 12300 31400 36900
2020-11-27 16:45 7.29 13300 37900 (2005) 550 (2007) 7220 552 567 863 1040 1910 5730 12300 31400 36900
2020-11-27 15:45 7.62 14500 37900 (2005) 550 (2007) 7220 552 567 863 1040 1910 5730 12300 31400 36900
2020-11-27 14:45 7.97 15700 37900 (2005) 550 (2007) 7220 552 567 863 1040 1910 5730 12300 31400 36900
2020-11-27 13:45 8.27 16800 37900 (2005) 550 (2007) 7220 552 567 863 1040 1910 5730 12300 31400 36900
2020-11-27 12:45 8.63 18100 37900 (2005) 550 (2007) 7220 552 567 863 1040 1910 5730 12300 31400 36900
2020-11-27 11:45 8.94 19400 37900 (2005) 550 (2007) 7220 552 567 863 1040 1910 5730 12300 31400 36900
2020-11-27 10:45 9.27 20700 37900 (2005) 550 (2007) 7220 552 567 863 1040 1910 5730 12300 31400 36900
2020-11-27 09:45 9.57 22000 37900 (2005) 550 (2007) 7220 552 567 863 1040 1910 5730 12300 31400 36900
2020-11-27 08:45 9.85 23000 37900 (2005) 550 (2007) 7220 552 567 863 1040 1910 5730 12300 31400 36900
2020-11-27 07:45 10.05 23700 37900 (2005) 550 (2007) 7220 552 567 863 1040 1910 5730 12300 31400 36900
2020-11-27 06:45 10.24 24400 37900 (2005) 550 (2007) 7220 552 567 863 1040 1910 5730 12300 31400 36900
2020-11-27 05:45 10.30 24600 37900 (2005) 550 (2007) 7220 552 567 863 1040 1910 5730 12300 31400 36900
2020-11-27 04:45 10.31 24600 37900 (2005) 550 (2007) 7220 552 567 863 1040 1910 5730 12300 31400 36900
2020-11-27 03:45 10.10 23900 37900 (2005) 550 (2007) 7220 552 567 863 1040 1910 5730 12300 31400 36900
2020-11-27 02:45 9.73 22600 37900 (2005) 550 (2007) 7220 552 567 863 1040 1910 5730 12300 31400 36900
2020-11-27 01:45 9.24 20600 37900 (2005) 550 (2007) 7220 552 567 863 1040 1910 5730 12300 31400 36900
2020-11-27 00:45 8.60 18000 37900 (2005) 550 (2007) 7220 552 567 863 1040 1910 5730 12300 31400 36900
2020-11-26 23:45 7.82 15100 36200 (2005) 543 (2003) 6820 546 573 640 817 1530 5800 10400 30400 35400
2020-11-26 22:45 6.91 12100 36200 (2005) 543 (2003) 6820 546 573 640 817 1530 5800 10400 30400 35400
2020-11-26 21:45 5.86 8990 36200 (2005) 543 (2003) 6820 546 573 640 817 1530 5800 10400 30400 35400
2020-11-26 20:45 4.71 5760 36200 (2005) 543 (2003) 6820 546 573 640 817 1530 5800 10400 30400 35400
2020-11-26 19:45 3.90 3590 36200 (2005) 543 (2003) 6820 546 573 640 817 1530 5800 10400 30400 35400
2020-11-26 18:45 3.70 3060 36200 (2005) 543 (2003) 6820 546 573 640 817 1530 5800 10400 30400 35400
2020-11-26 17:45 3.71 3090 36200 (2005) 543 (2003) 6820 546 573 640 817 1530 5800 10400 30400 35400
2020-11-26 16:45 3.74 3170 36200 (2005) 543 (2003) 6820 546 573 640 817 1530 5800 10400 30400 35400
2020-11-26 15:45 3.79 3300 36200 (2005) 543 (2003) 6820 546 573 640 817 1530 5800 10400 30400 35400
2020-11-26 14:45 3.83 3410 36200 (2005) 543 (2003) 6820 546 573 640 817 1530 5800 10400 30400 35400
2020-11-26 13:45 3.88 3540 36200 (2005) 543 (2003) 6820 546 573 640 817 1530 5800 10400 30400 35400
2020-11-26 12:45 3.93 3660 36200 (2005) 543 (2003) 6820 546 573 640 817 1530 5800 10400 30400 35400
2020-11-26 11:45 3.97 3770 36200 (2005) 543 (2003) 6820 546 573 640 817 1530 5800 10400 30400 35400
2020-11-26 10:45 4.02 3900 36200 (2005) 543 (2003) 6820 546 573 640 817 1530 5800 10400 30400 35400
2020-11-26 09:45 4.06 4010 36200 (2005) 543 (2003) 6820 546 573 640 817 1530 5800 10400 30400 35400
2020-11-26 08:45 4.11 4140 36200 (2005) 543 (2003) 6820 546 573 640 817 1530 5800 10400 30400 35400
2020-11-26 07:45 4.15 4240 36200 (2005) 543 (2003) 6820 546 573 640 817 1530 5800 10400 30400 35400
2020-11-26 06:45 4.19 4340 36200 (2005) 543 (2003) 6820 546 573 640 817 1530 5800 10400 30400 35400
2020-11-26 05:45 4.23 4450 36200 (2005) 543 (2003) 6820 546 573 640 817 1530 5800 10400 30400 35400
2020-11-26 04:45 4.26 4530 36200 (2005) 543 (2003) 6820 546 573 640 817 1530 5800 10400 30400 35400
2020-11-26 03:45 4.29 4610 36200 (2005) 543 (2003) 6820 546 573 640 817 1530 5800 10400 30400 35400
2020-11-26 02:45 4.31 4660 36200 (2005) 543 (2003) 6820 546 573 640 817 1530 5800 10400 30400 35400
2020-11-26 01:45 4.33 4720 36200 (2005) 543 (2003) 6820 546 573 640 817 1530 5800 10400 30400 35400
2020-11-26 00:45 4.36 4800 36200 (2005) 543 (2003) 6820 546 573 640 817 1530 5800 10400 30400 35400
2020-11-25 23:45 4.37 4830 34400 (2005) 560 (2007) 6860 566 595 634 652 1500 5080 9440 32000 34000
2020-11-25 22:45 4.40 4910 34400 (2005) 560 (2007) 6860 566 595 634 652 1500 5080 9440 32000 34000
2020-11-25 21:45 4.42 4970 34400 (2005) 560 (2007) 6860 566 595 634 652 1500 5080 9440 32000 34000
2020-11-25 20:45 4.44 5020 34400 (2005) 560 (2007) 6860 566 595 634 652 1500 5080 9440 32000 34000
2020-11-25 19:45 4.47 5100 34400 (2005) 560 (2007) 6860 566 595 634 652 1500 5080 9440 32000 34000
2020-11-25 18:45 4.49 5160 34400 (2005) 560 (2007) 6860 566 595 634 652 1500 5080 9440 32000 34000
2020-11-25 17:45 4.52 5240 34400 (2005) 560 (2007) 6860 566 595 634 652 1500 5080 9440 32000 34000
2020-11-25 16:45 4.53 5260 34400 (2005) 560 (2007) 6860 566 595 634 652 1500 5080 9440 32000 34000
2020-11-25 15:45 4.53 5260 34400 (2005) 560 (2007) 6860 566 595 634 652 1500 5080 9440 32000 34000
2020-11-25 14:45 4.53 5260 34400 (2005) 560 (2007) 6860 566 595 634 652 1500 5080 9440 32000 34000
2020-11-25 13:45 4.52 5240 34400 (2005) 560 (2007) 6860 566 595 634 652 1500 5080 9440 32000 34000
2020-11-25 12:45 4.50 5180 34400 (2005) 560 (2007) 6860 566 595 634 652 1500 5080 9440 32000 34000
2020-11-25 11:45 4.48 5130 34400 (2005) 560 (2007) 6860 566 595 634 652 1500 5080 9440 32000 34000
2020-11-25 10:45 4.46 5080 34400 (2005) 560 (2007) 6860 566 595 634 652 1500 5080 9440 32000 34000
2020-11-25 09:45 4.42 4970 34400 (2005) 560 (2007) 6860 566 595 634 652 1500 5080 9440 32000 34000
2020-11-25 08:45 4.38 4860 34400 (2005) 560 (2007) 6860 566 595 634 652 1500 5080 9440 32000 34000
2020-11-25 07:45 4.35 4770 34400 (2005) 560 (2007) 6860 566 595 634 652 1500 5080 9440 32000 34000
2020-11-25 06:45 4.34 4750 34400 (2005) 560 (2007) 6860 566 595 634 652 1500 5080 9440 32000 34000
2020-11-25 05:45 4.32 4690 34400 (2005) 560 (2007) 6860 566 595 634 652 1500 5080 9440 32000 34000
2020-11-25 04:45 4.32 4690 34400 (2005) 560 (2007) 6860 566 595 634 652 1500 5080 9440 32000 34000
2020-11-25 03:45 4.29 4610 34400 (2005) 560 (2007) 6860 566 595 634 652 1500 5080 9440 32000 34000
2020-11-25 02:45 4.28 4580 34400 (2005) 560 (2007) 6860 566 595 634 652 1500 5080 9440 32000 34000
2020-11-25 01:45 4.23 4450 34400 (2005) 560 (2007) 6860 566 595 634 652 1500 5080 9440 32000 34000
2020-11-25 00:45 4.20 4370 34400 (2005) 560 (2007) 6860 566 595 634 652 1500 5080 9440 32000 34000
2020-11-24 23:45 4.14 4210 33500 (2010) 567 (2007) 6100 571 603 698 783 1370 5160 6960 30800 33400
2020-11-24 22:45 4.07 4030 33500 (2010) 567 (2007) 6100 571 603 698 783 1370 5160 6960 30800 33400
2020-11-24 21:45 4.04 3950 33500 (2010) 567 (2007) 6100 571 603 698 783 1370 5160 6960 30800 33400
2020-11-24 20:45 4.02 3900 33500 (2010) 567 (2007) 6100 571 603 698 783 1370 5160 6960 30800 33400
2020-11-24 19:45 4.02 3900 33500 (2010) 567 (2007) 6100 571 603 698 783 1370 5160 6960 30800 33400
2020-11-24 18:45 4.05 3980 33500 (2010) 567 (2007) 6100 571 603 698 783 1370 5160 6960 30800 33400
2020-11-24 17:45 4.08 4060 33500 (2010) 567 (2007) 6100 571 603 698 783 1370 5160 6960 30800 33400
2020-11-24 16:45 4.12 4160 33500 (2010) 567 (2007) 6100 571 603 698 783 1370 5160 6960 30800 33400
2020-11-24 15:45 4.15 4240 33500 (2010) 567 (2007) 6100 571 603 698 783 1370 5160 6960 30800 33400
2020-11-24 14:45 4.18 4320 33500 (2010) 567 (2007) 6100 571 603 698 783 1370 5160 6960 30800 33400
2020-11-24 13:45 4.20 4370 33500 (2010) 567 (2007) 6100 571 603 698 783 1370 5160 6960 30800 33400
2020-11-24 12:45 4.20 4370 33500 (2010) 567 (2007) 6100 571 603 698 783 1370 5160 6960 30800 33400
2020-11-24 11:45 4.19 4340 33500 (2010) 567 (2007) 6100 571 603 698 783 1370 5160 6960 30800 33400
2020-11-24 10:45 4.14 4210 33500 (2010) 567 (2007) 6100 571 603 698 783 1370 5160 6960 30800 33400
2020-11-24 09:45 4.08 4060 33500 (2010) 567 (2007) 6100 571 603 698 783 1370 5160 6960 30800 33400
2020-11-24 08:45 4.02 3900 33500 (2010) 567 (2007) 6100 571 603 698 783 1370 5160 6960 30800 33400
2020-11-24 07:45 3.98 3790 33500 (2010) 567 (2007) 6100 571 603 698 783 1370 5160 6960 30800 33400
2020-11-24 06:45 3.94 3690 33500 (2010) 567 (2007) 6100 571 603 698 783 1370 5160 6960 30800 33400
2020-11-24 05:45 3.95 3720 33500 (2010) 567 (2007) 6100 571 603 698 783 1370 5160 6960 30800 33400
2020-11-24 04:45 3.98 3790 33500 (2010) 567 (2007) 6100 571 603 698 783 1370 5160 6960 30800 33400
2020-11-24 03:45 4.04 3950 33500 (2010) 567 (2007) 6100 571 603 698 783 1370 5160 6960 30800 33400
2020-11-24 02:45 4.09 4090 33500 (2010) 567 (2007) 6100 571 603 698 783 1370 5160 6960 30800 33400
2020-11-24 01:45 4.17 4290 33500 (2010) 567 (2007) 6100 571 603 698 783 1370 5160 6960 30800 33400
2020-11-24 00:45 4.25 4500 33500 (2010) 567 (2007) 6100 571 603 698 783 1370 5160 6960 30800 33400
2020-11-23 23:45 4.35 4770 33100 (1999) 574 (2007) 5210 579 598 633 842 1300 5110 7100 23100 32000
2020-11-23 22:45 4.46 5080 33100 (1999) 574 (2007) 5210 579 598 633 842 1300 5110 7100 23100 32000
2020-11-23 21:45 4.61 5480 33100 (1999) 574 (2007) 5210 579 598 633 842 1300 5110 7100 23100 32000
2020-11-23 20:45 4.76 5900 33100 (1999) 574 (2007) 5210 579 598 633 842 1300 5110 7100 23100 32000
2020-11-23 19:45 4.93 6370 33100 (1999) 574 (2007) 5210 579 598 633 842 1300 5110 7100 23100 32000
2020-11-23 18:45 5.11 6870 33100 (1999) 574 (2007) 5210 579 598 633 842 1300 5110 7100 23100 32000
2020-11-23 17:45 5.30 7390 33100 (1999) 574 (2007) 5210 579 598 633 842 1300 5110 7100 23100 32000
2020-11-23 16:45 5.50 7950 33100 (1999) 574 (2007) 5210 579 598 633 842 1300 5110 7100 23100 32000
2020-11-23 15:45 5.70 8540 33100 (1999) 574 (2007) 5210 579 598 633 842 1300 5110 7100 23100 32000
2020-11-23 14:45 5.90 9110 33100 (1999) 574 (2007) 5210 579 598 633 842 1300 5110 7100 23100 32000
2020-11-23 13:45 6.10 9680 33100 (1999) 574 (2007) 5210 579 598 633 842 1300 5110 7100 23100 32000
2020-11-23 12:45 6.30 10300 33100 (1999) 574 (2007) 5210 579 598 633 842 1300 5110 7100 23100 32000
2020-11-23 11:45 6.48 10800 33100 (1999) 574 (2007) 5210 579 598 633 842 1300 5110 7100 23100 32000
2020-11-23 10:45 6.65 11300 33100 (1999) 574 (2007) 5210 579 598 633 842 1300 5110 7100 23100 32000
2020-11-23 09:45 6.78 11700 33100 (1999) 574 (2007) 5210 579 598 633 842 1300 5110 7100 23100 32000
2020-11-23 08:45 6.88 12000 33100 (1999) 574 (2007) 5210 579 598 633 842 1300 5110 7100 23100 32000
2020-11-23 07:45 6.94 12200 33100 (1999) 574 (2007) 5210 579 598 633 842 1300 5110 7100 23100 32000
2020-11-23 06:45 6.93 12200 33100 (1999) 574 (2007) 5210 579 598 633 842 1300 5110 7100 23100 32000
2020-11-23 05:45 6.85 11900 33100 (1999) 574 (2007) 5210 579 598 633 842 1300 5110 7100 23100 32000
2020-11-23 04:45 6.67 11400 33100 (1999) 574 (2007) 5210 579 598 633 842 1300 5110 7100 23100 32000
2020-11-23 03:45 6.39 10500 33100 (1999) 574 (2007) 5210 579 598 633 842 1300 5110 7100 23100 32000
2020-11-23 02:45 6.06 9560 33100 (1999) 574 (2007) 5210 579 598 633 842 1300 5110 7100 23100 32000
2020-11-23 01:45 5.72 8600 33100 (1999) 574 (2007) 5210 579 598 633 842 1300 5110 7100 23100 32000
2020-11-23 00:45 5.49 7920 33100 (1999) 574 (2007) 5210 579 598 633 842 1300 5110 7100 23100 32000
2020-11-22 23:45 5.38 7610 33200 (1999) 551 (2000) 5450 553 576 613 875 1630 3140 4750 26500 32100
2020-11-22 22:45 5.36 7550 33200 (1999) 551 (2000) 5450 553 576 613 875 1630 3140 4750 26500 32100
2020-11-22 21:45 5.37 7580 33200 (1999) 551 (2000) 5450 553 576 613 875 1630 3140 4750 26500 32100
2020-11-22 20:45 5.37 7580 33200 (1999) 551 (2000) 5450 553 576 613 875 1630 3140 4750 26500 32100
2020-11-22 19:45 5.34 7500 33200 (1999) 551 (2000) 5450 553 576 613 875 1630 3140 4750 26500 32100
2020-11-22 18:45 5.27 7300 33200 (1999) 551 (2000) 5450 553 576 613 875 1630 3140 4750 26500 32100
2020-11-22 17:45 5.16 7000 33200 (1999) 551 (2000) 5450 553 576 613 875 1630 3140 4750 26500 32100
2020-11-22 16:45 5.03 6650 33200 (1999) 551 (2000) 5450 553 576 613 875 1630 3140 4750 26500 32100
2020-11-22 15:45 4.91 6310 33200 (1999) 551 (2000) 5450 553 576 613 875 1630 3140 4750 26500 32100
2020-11-22 14:45 4.80 6010 33200 (1999) 551 (2000) 5450 553 576 613 875 1630 3140 4750 26500 32100
2020-11-22 13:45 4.71 5760 33200 (1999) 551 (2000) 5450 553 576 613 875 1630 3140 4750 26500 32100
2020-11-22 12:45 4.59 5420 33200 (1999) 551 (2000) 5450 553 576 613 875 1630 3140 4750 26500 32100
2020-11-22 11:45 4.46 5080 33200 (1999) 551 (2000) 5450 553 576 613 875 1630 3140 4750 26500 32100
2020-11-22 10:45 4.31 4660 33200 (1999) 551 (2000) 5450 553 576 613 875 1630 3140 4750 26500 32100
2020-11-22 09:45 4.14 4210 33200 (1999) 551 (2000) 5450 553 576 613 875 1630 3140 4750 26500 32100
2020-11-22 08:45 3.98 3790 33200 (1999) 551 (2000) 5450 553 576 613 875 1630 3140 4750 26500 32100
2020-11-22 07:45 3.83 3410 33200 (1999) 551 (2000) 5450 553 576 613 875 1630 3140 4750 26500 32100
2020-11-22 06:45 3.69 3040 33200 (1999) 551 (2000) 5450 553 576 613 875 1630 3140 4750 26500 32100
2020-11-22 05:45 3.54 2680 33200 (1999) 551 (2000) 5450 553 576 613 875 1630 3140 4750 26500 32100
2020-11-22 04:45 3.40 2380 33200 (1999) 551 (2000) 5450 553 576 613 875 1630 3140 4750 26500 32100
2020-11-22 03:45 3.27 2120 33200 (1999) 551 (2000) 5450 553 576 613 875 1630 3140 4750 26500 32100
2020-11-22 02:45 3.16 1930 33200 (1999) 551 (2000) 5450 553 576 613 875 1630 3140 4750 26500 32100
2020-11-22 01:45 3.05 1740 33200 (1999) 551 (2000) 5450 553 576 613 875 1630 3140 4750 26500 32100
2020-11-22 00:45 2.96 1600 33200 (1999) 551 (2000) 5450 553 576 613 875 1630 3140 4750 26500 32100
2020-11-21 23:45 2.90 1520 36600 (2010) 563 (2007) 6340 570 598 692 1020 1490 3960 7530 31300 35900
2020-11-21 22:45 2.86 1460 36600 (2010) 563 (2007) 6340 570 598 692 1020 1490 3960 7530 31300 35900
2020-11-21 21:45 2.83 1420 36600 (2010) 563 (2007) 6340 570 598 692 1020 1490 3960 7530 31300 35900
2020-11-21 20:45 2.81 1390 36600 (2010) 563 (2007) 6340 570 598 692 1020 1490 3960 7530 31300 35900
2020-11-21 19:45 2.80 1380 36600 (2010) 563 (2007) 6340 570 598 692 1020 1490 3960 7530 31300 35900
2020-11-21 18:45 2.80 1380 36600 (2010) 563 (2007) 6340 570 598 692 1020 1490 3960 7530 31300 35900
2020-11-21 17:45 2.80 1380 36600 (2010) 563 (2007) 6340 570 598 692 1020 1490 3960 7530 31300 35900
2020-11-21 16:45 2.81 1390 36600 (2010) 563 (2007) 6340 570 598 692 1020 1490 3960 7530 31300 35900
2020-11-21 15:45 2.82 1400 36600 (2010) 563 (2007) 6340 570 598 692 1020 1490 3960 7530 31300 35900
2020-11-21 14:45 2.84 1430 36600 (2010) 563 (2007) 6340 570 598 692 1020 1490 3960 7530 31300 35900
2020-11-21 13:45 2.86 1460 36600 (2010) 563 (2007) 6340 570 598 692 1020 1490 3960 7530 31300 35900
2020-11-21 12:45 2.87 1470 36600 (2010) 563 (2007) 6340 570 598 692 1020 1490 3960 7530 31300 35900
2020-11-21 11:45 2.90 1520 36600 (2010) 563 (2007) 6340 570 598 692 1020 1490 3960 7530 31300 35900
2020-11-21 10:45 2.90 1520 36600 (2010) 563 (2007) 6340 570 598 692 1020 1490 3960 7530 31300 35900
2020-11-21 09:45 2.92 1540 36600 (2010) 563 (2007) 6340 570 598 692 1020 1490 3960 7530 31300 35900
2020-11-21 08:45 2.92 1540 36600 (2010) 563 (2007) 6340 570 598 692 1020 1490 3960 7530 31300 35900
2020-11-21 07:45 2.91 1530 36600 (2010) 563 (2007) 6340 570 598 692 1020 1490 3960 7530 31300 35900
2020-11-21 06:45 2.90 1520 36600 (2010) 563 (2007) 6340 570 598 692 1020 1490 3960 7530 31300 35900
2020-11-21 05:45 2.89 1500 36600 (2010) 563 (2007) 6340 570 598 692 1020 1490 3960 7530 31300 35900
2020-11-21 04:45 2.86 1460 36600 (2010) 563 (2007) 6340 570 598 692 1020 1490 3960 7530 31300 35900
2020-11-21 03:45 2.82 1400 36600 (2010) 563 (2007) 6340 570 598 692 1020 1490 3960 7530 31300 35900
2020-11-21 02:45 2.79 1360 36600 (2010) 563 (2007) 6340 570 598 692 1020 1490 3960 7530 31300 35900
2020-11-21 01:45 2.75 1310 36600 (2010) 563 (2007) 6340 570 598 692 1020 1490 3960 7530 31300 35900
2020-11-21 00:45 2.70 1250 36600 (2010) 563 (2007) 6340 570 598 692 1020 1490 3960 7530 31300 35900
2020-11-20 23:45 2.67 1210 33600 (1999) 571 (2007) 7360 575 597 654 1180 1740 11100 13600 31300 33500
2020-11-20 22:45 2.65 1190 33600 (1999) 571 (2007) 7360 575 597 654 1180 1740 11100 13600 31300 33500
2020-11-20 21:45 2.64 1180 33600 (1999) 571 (2007) 7360 575 597 654 1180 1740 11100 13600 31300 33500
2020-11-20 20:45 2.63 1160 33600 (1999) 571 (2007) 7360 575 597 654 1180 1740 11100 13600 31300 33500
2020-11-20 19:45 2.63 1160 33600 (1999) 571 (2007) 7360 575 597 654 1180 1740 11100 13600 31300 33500
2020-11-20 18:45 2.62 1150 33600 (1999) 571 (2007) 7360 575 597 654 1180 1740 11100 13600 31300 33500
2020-11-20 17:45 2.62 1150 33600 (1999) 571 (2007) 7360 575 597 654 1180 1740 11100 13600 31300 33500
2020-11-20 16:45 2.63 1160 33600 (1999) 571 (2007) 7360 575 597 654 1180 1740 11100 13600 31300 33500
2020-11-20 15:45 2.63 1160 33600 (1999) 571 (2007) 7360 575 597 654 1180 1740 11100 13600 31300 33500
2020-11-20 14:45 2.63 1160 33600 (1999) 571 (2007) 7360 575 597 654 1180 1740 11100 13600 31300 33500
2020-11-20 13:45 2.64 1180 33600 (1999) 571 (2007) 7360 575 597 654 1180 1740 11100 13600 31300 33500
2020-11-20 12:45 2.64 1180 33600 (1999) 571 (2007) 7360 575 597 654 1180 1740 11100 13600 31300 33500
2020-11-20 11:45 2.64 1180 33600 (1999) 571 (2007) 7360 575 597 654 1180 1740 11100 13600 31300 33500
2020-11-20 10:45 2.64 1180 33600 (1999) 571 (2007) 7360 575 597 654 1180 1740 11100 13600 31300 33500
2020-11-20 09:45 2.65 1190 33600 (1999) 571 (2007) 7360 575 597 654 1180 1740 11100 13600 31300 33500
2020-11-20 08:45 2.65 1190 33600 (1999) 571 (2007) 7360 575 597 654 1180 1740 11100 13600 31300 33500
2020-11-20 07:45 2.66 1200 33600 (1999) 571 (2007) 7360 575 597 654 1180 1740 11100 13600 31300 33500
2020-11-20 06:45 2.66 1200 33600 (1999) 571 (2007) 7360 575 597 654 1180 1740 11100 13600 31300 33500
2020-11-20 05:45 2.67 1210 33600 (1999) 571 (2007) 7360 575 597 654 1180 1740 11100 13600 31300 33500
2020-11-20 04:45 2.68 1220 33600 (1999) 571 (2007) 7360 575 597 654 1180 1740 11100 13600 31300 33500
2020-11-20 03:45 2.69 1240 33600 (1999) 571 (2007) 7360 575 597 654 1180 1740 11100 13600 31300 33500
2020-11-20 02:45 2.70 1250 33600 (1999) 571 (2007) 7360 575 597 654 1180 1740 11100 13600 31300 33500
2020-11-20 01:45 2.71 1260 33600 (1999) 571 (2007) 7360 575 597 654 1180 1740 11100 13600 31300 33500
2020-11-20 00:45 2.72 1270 33600 (1999) 571 (2007) 7360 575 597 654 1180 1740 11100 13600 31300 33500
2020-11-19 23:45 2.74 1300 35500 (1999) 593 (2007) 7700 599 636 707 751 1620 13200 17500 32200 35500
2020-11-19 22:45 2.75 1310 35500 (1999) 593 (2007) 7700 599 636 707 751 1620 13200 17500 32200 35500
2020-11-19 21:45 2.76 1320 35500 (1999) 593 (2007) 7700 599 636 707 751 1620 13200 17500 32200 35500
2020-11-19 20:45 2.78 1350 35500 (1999) 593 (2007) 7700 599 636 707 751 1620 13200 17500 32200 35500
2020-11-19 19:45 2.79 1360 35500 (1999) 593 (2007) 7700 599 636 707 751 1620 13200 17500 32200 35500
2020-11-19 18:45 2.81 1390 35500 (1999) 593 (2007) 7700 599 636 707 751 1620 13200 17500 32200 35500
2020-11-19 17:45 2.83 1420 35500 (1999) 593 (2007) 7700 599 636 707 751 1620 13200 17500 32200 35500
2020-11-19 16:45 2.85 1450 35500 (1999) 593 (2007) 7700 599 636 707 751 1620 13200 17500 32200 35500
2020-11-19 15:45 2.87 1470 35500 (1999) 593 (2007) 7700 599 636 707 751 1620 13200 17500 32200 35500
2020-11-19 14:45 2.88 1490 35500 (1999) 593 (2007) 7700 599 636 707 751 1620 13200 17500 32200 35500
2020-11-19 13:45 2.90 1520 35500 (1999) 593 (2007) 7700 599 636 707 751 1620 13200 17500 32200 35500
2020-11-19 12:45 2.90 1520 35500 (1999) 593 (2007) 7700 599 636 707 751 1620 13200 17500 32200 35500
2020-11-19 11:45 2.93 1560 35500 (1999) 593 (2007) 7700 599 636 707 751 1620 13200 17500 32200 35500
2020-11-19 10:45 2.91 1530 35500 (1999) 593 (2007) 7700 599 636 707 751 1620 13200 17500 32200 35500
2020-11-19 09:45 2.87 1470 35500 (1999) 593 (2007) 7700 599 636 707 751 1620 13200 17500 32200 35500
2020-11-19 08:45 2.85 1450 35500 (1999) 593 (2007) 7700 599 636 707 751 1620 13200 17500 32200 35500
2020-11-19 07:45 2.84 1430 35500 (1999) 593 (2007) 7700 599 636 707 751 1620 13200 17500 32200 35500
2020-11-19 06:45 2.80 1380 35500 (1999) 593 (2007) 7700 599 636 707 751 1620 13200 17500 32200 35500
2020-11-19 05:45 2.76 1320 35500 (1999) 593 (2007) 7700 599 636 707 751 1620 13200 17500 32200 35500
2020-11-19 04:45 2.74 1300 35500 (1999) 593 (2007) 7700 599 636 707 751 1620 13200 17500 32200 35500
2020-11-19 03:45 2.71 1260 35500 (1999) 593 (2007) 7700 599 636 707 751 1620 13200 17500 32200 35500
2020-11-19 02:45 2.69 1240 35500 (1999) 593 (2007) 7700 599 636 707 751 1620 13200 17500 32200 35500
2020-11-19 01:45 2.68 1220 35500 (1999) 593 (2007) 7700 599 636 707 751 1620 13200 17500 32200 35500
2020-11-19 00:45 2.67 1210 35500 (1999) 593 (2007) 7700 599 636 707 751 1620 13200 17500 32200 35500
2020-11-18 23:45 2.67 1210 37700 (2010) 541 (2003) 7690 552 600 734 911 1360 7500 23400 32100 37200
2020-11-18 22:45 2.67 1210 37700 (2010) 541 (2003) 7690 552 600 734 911 1360 7500 23400 32100 37200
2020-11-18 21:45 2.68 1220 37700 (2010) 541 (2003) 7690 552 600 734 911 1360 7500 23400 32100 37200
2020-11-18 20:45 2.68 1220 37700 (2010) 541 (2003) 7690 552 600 734 911 1360 7500 23400 32100 37200
2020-11-18 19:45 2.69 1240 37700 (2010) 541 (2003) 7690 552 600 734 911 1360 7500 23400 32100 37200
2020-11-18 18:45 2.69 1240 37700 (2010) 541 (2003) 7690 552 600 734 911 1360 7500 23400 32100 37200
2020-11-18 17:45 2.69 1240 37700 (2010) 541 (2003) 7690 552 600 734 911 1360 7500 23400 32100 37200
2020-11-18 16:45 2.69 1240 37700 (2010) 541 (2003) 7690 552 600 734 911 1360 7500 23400 32100 37200
2020-11-18 15:45 2.70 1250 37700 (2010) 541 (2003) 7690 552 600 734 911 1360 7500 23400 32100 37200
2020-11-18 14:45 2.71 1260 37700 (2010) 541 (2003) 7690 552 600 734 911 1360 7500 23400 32100 37200
2020-11-18 13:45 2.71 1260 37700 (2010) 541 (2003) 7690 552 600 734 911 1360 7500 23400 32100 37200
2020-11-18 12:45 2.70 1250 37700 (2010) 541 (2003) 7690 552 600 734 911 1360 7500 23400 32100 37200
2020-11-18 11:45 2.72 1270 37700 (2010) 541 (2003) 7690 552 600 734 911 1360 7500 23400 32100 37200
2020-11-18 10:45 2.73 1290 37700 (2010) 541 (2003) 7690 552 600 734 911 1360 7500 23400 32100 37200
2020-11-18 09:45 2.72 1270 37700 (2010) 541 (2003) 7690 552 600 734 911 1360 7500 23400 32100 37200
2020-11-18 08:45 2.72 1270 37700 (2010) 541 (2003) 7690 552 600 734 911 1360 7500 23400 32100 37200
2020-11-18 07:45 2.71 1260 37700 (2010) 541 (2003) 7690 552 600 734 911 1360 7500 23400 32100 37200
2020-11-18 06:45 2.71 1260 37700 (2010) 541 (2003) 7690 552 600 734 911 1360 7500 23400 32100 37200
2020-11-18 05:45 2.71 1260 37700 (2010) 541 (2003) 7690 552 600 734 911 1360 7500 23400 32100 37200
2020-11-18 04:45 2.71 1260 37700 (2010) 541 (2003) 7690 552 600 734 911 1360 7500 23400 32100 37200
2020-11-18 03:45 2.72 1270 37700 (2010) 541 (2003) 7690 552 600 734 911 1360 7500 23400 32100 37200
2020-11-18 02:45 2.72 1270 37700 (2010) 541 (2003) 7690 552 600 734 911 1360 7500 23400 32100 37200
2020-11-18 01:45 2.72 1270 37700 (2010) 541 (2003) 7690 552 600 734 911 1360 7500 23400 32100 37200
2020-11-18 00:45 2.72 1270 37700 (2010) 541 (2003) 7690 552 600 734 911 1360 7500 23400 32100 37200
2020-11-17 23:45 2.72 1270 39900 (2010) 528 (2000) 6910 535 578 685 756 1400 5420 9670 31900 39000
2020-11-17 22:45 2.73 1290 39900 (2010) 528 (2000) 6910 535 578 685 756 1400 5420 9670 31900 39000
2020-11-17 21:45 2.73 1290 39900 (2010) 528 (2000) 6910 535 578 685 756 1400 5420 9670 31900 39000
2020-11-17 20:45 2.73 1290 39900 (2010) 528 (2000) 6910 535 578 685 756 1400 5420 9670 31900 39000
2020-11-17 19:45 2.73 1290 39900 (2010) 528 (2000) 6910 535 578 685 756 1400 5420 9670 31900 39000
2020-11-17 18:45 2.74 1300 39900 (2010) 528 (2000) 6910 535 578 685 756 1400 5420 9670 31900 39000
2020-11-17 17:45 2.75 1310 39900 (2010) 528 (2000) 6910 535 578 685 756 1400 5420 9670 31900 39000
2020-11-17 16:45 2.75 1310 39900 (2010) 528 (2000) 6910 535 578 685 756 1400 5420 9670 31900 39000
2020-11-17 15:45 2.75 1310 39900 (2010) 528 (2000) 6910 535 578 685 756 1400 5420 9670 31900 39000
2020-11-17 14:45 2.76 1320 39900 (2010) 528 (2000) 6910 535 578 685 756 1400 5420 9670 31900 39000
2020-11-17 13:45 2.76 1320 39900 (2010) 528 (2000) 6910 535 578 685 756 1400 5420 9670 31900 39000
2020-11-17 12:45 2.77 1340 39900 (2010) 528 (2000) 6910 535 578 685 756 1400 5420 9670 31900 39000
2020-11-17 11:45 2.77 1340 39900 (2010) 528 (2000) 6910 535 578 685 756 1400 5420 9670 31900 39000
2020-11-17 10:45 2.77 1340 39900 (2010) 528 (2000) 6910 535 578 685 756 1400 5420 9670 31900 39000
2020-11-17 09:45 2.77 1340 39900 (2010) 528 (2000) 6910 535 578 685 756 1400 5420 9670 31900 39000
2020-11-17 08:45 2.78 1350 39900 (2010) 528 (2000) 6910 535 578 685 756 1400 5420 9670 31900 39000
2020-11-17 07:45 2.78 1350 39900 (2010) 528 (2000) 6910 535 578 685 756 1400 5420 9670 31900 39000
2020-11-17 06:45 2.78 1350 39900 (2010) 528 (2000) 6910 535 578 685 756 1400 5420 9670 31900 39000
2020-11-17 05:45 2.78 1350 39900 (2010) 528 (2000) 6910 535 578 685 756 1400 5420 9670 31900 39000
2020-11-17 04:45 2.79 1360 39900 (2010) 528 (2000) 6910 535 578 685 756 1400 5420 9670 31900 39000
2020-11-17 03:45 2.79 1360 39900 (2010) 528 (2000) 6910 535 578 685 756 1400 5420 9670 31900 39000
2020-11-17 02:45 2.80 1380 39900 (2010) 528 (2000) 6910 535 578 685 756 1400 5420 9670 31900 39000
2020-11-17 01:45 2.80 1380 39900 (2010) 528 (2000) 6910 535 578 685 756 1400 5420 9670 31900 39000
2020-11-17 00:45 2.81 1390 39900 (2010) 528 (2000) 6910 535 578 685 756 1400 5420 9670 31900 39000
2020-11-16 23:45 2.82 1400 44800 (2010) 525 (2000) 7240 535 609 805 912 1480 6510 10900 32400 43100
2020-11-16 22:45 2.83 1420 44800 (2010) 525 (2000) 7240 535 609 805 912 1480 6510 10900 32400 43100
2020-11-16 21:45 2.84 1430 44800 (2010) 525 (2000) 7240 535 609 805 912 1480 6510 10900 32400 43100
2020-11-16 20:45 2.85 1450 44800 (2010) 525 (2000) 7240 535 609 805 912 1480 6510 10900 32400 43100
2020-11-16 19:45 2.86 1460 44800 (2010) 525 (2000) 7240 535 609 805 912 1480 6510 10900 32400 43100
2020-11-16 18:45 2.87 1470 44800 (2010) 525 (2000) 7240 535 609 805 912 1480 6510 10900 32400 43100
2020-11-16 17:45 2.88 1490 44800 (2010) 525 (2000) 7240 535 609 805 912 1480 6510 10900 32400 43100
2020-11-16 16:45 2.89 1500 44800 (2010) 525 (2000) 7240 535 609 805 912 1480 6510 10900 32400 43100
2020-11-16 15:45 2.91 1530 44800 (2010) 525 (2000) 7240 535 609 805 912 1480 6510 10900 32400 43100
2020-11-16 14:45 2.91 1530 44800 (2010) 525 (2000) 7240 535 609 805 912 1480 6510 10900 32400 43100
2020-11-16 13:45 2.93 1560 44800 (2010) 525 (2000) 7240 535 609 805 912 1480 6510 10900 32400 43100
2020-11-16 12:45 2.95 1590 44800 (2010) 525 (2000) 7240 535 609 805 912 1480 6510 10900 32400 43100
2020-11-16 11:45 2.98 1630 44800 (2010) 525 (2000) 7240 535 609 805 912 1480 6510 10900 32400 43100
2020-11-16 10:45 2.99 1650 44800 (2010) 525 (2000) 7240 535 609 805 912 1480 6510 10900 32400 43100
2020-11-16 09:45 2.99 1650 44800 (2010) 525 (2000) 7240 535 609 805 912 1480 6510 10900 32400 43100
2020-11-16 08:45 3.01 1680 44800 (2010) 525 (2000) 7240 535 609 805 912 1480 6510 10900 32400 43100
2020-11-16 07:45 3.02 1700 44800 (2010) 525 (2000) 7240 535 609 805 912 1480 6510 10900 32400 43100
2020-11-16 06:45 3.04 1730 44800 (2010) 525 (2000) 7240 535 609 805 912 1480 6510 10900 32400 43100
2020-11-16 05:45 3.05 1740 44800 (2010) 525 (2000) 7240 535 609 805 912 1480 6510 10900 32400 43100
2020-11-16 04:45 3.08 1790 44800 (2010) 525 (2000) 7240 535 609 805 912 1480 6510 10900 32400 43100
2020-11-16 03:45 3.10 1820 44800 (2010) 525 (2000) 7240 535 609 805 912 1480 6510 10900 32400 43100
2020-11-16 02:45 3.11 1840 44800 (2010) 525 (2000) 7240 535 609 805 912 1480 6510 10900 32400 43100
2020-11-16 01:45 3.13 1880 44800 (2010) 525 (2000) 7240 535 609 805 912 1480 6510 10900 32400 43100
2020-11-16 00:45 3.15 1910 44800 (2010) 525 (2000) 7240 535 609 805 912 1480 6510 10900 32400 43100
2020-11-15 23:45 3.16 1930 37100 (1999) 528 (2007) 6900 530 541 841 1150 1680 8670 12500 27200 36000
2020-11-15 22:45 3.17 1940 37100 (1999) 528 (2007) 6900 530 541 841 1150 1680 8670 12500 27200 36000
2020-11-15 21:45 3.16 1930 37100 (1999) 528 (2007) 6900 530 541 841 1150 1680 8670 12500 27200 36000
2020-11-15 20:45 3.15 1910 37100 (1999) 528 (2007) 6900 530 541 841 1150 1680 8670 12500 27200 36000
2020-11-15 19:45 3.12 1860 37100 (1999) 528 (2007) 6900 530 541 841 1150 1680 8670 12500 27200 36000
2020-11-15 18:45 3.07 1780 37100 (1999) 528 (2007) 6900 530 541 841 1150 1680 8670 12500 27200 36000
2020-11-15 17:45 3.01 1680 37100 (1999) 528 (2007) 6900 530 541 841 1150 1680 8670 12500 27200 36000
2020-11-15 16:45 2.94 1570 37100 (1999) 528 (2007) 6900 530 541 841 1150 1680 8670 12500 27200 36000
2020-11-15 15:45 2.87 1470 37100 (1999) 528 (2007) 6900 530 541 841 1150 1680 8670 12500 27200 36000
2020-11-15 14:45 2.83 1420 37100 (1999) 528 (2007) 6900 530 541 841 1150 1680 8670 12500 27200 36000
2020-11-15 13:45 2.81 1390 37100 (1999) 528 (2007) 6900 530 541 841 1150 1680 8670 12500 27200 36000
2020-11-15 12:45 2.80 1380 37100 (1999) 528 (2007) 6900 530 541 841 1150 1680 8670 12500 27200 36000
2020-11-15 11:45 2.79 1360 37100 (1999) 528 (2007) 6900 530 541 841 1150 1680 8670 12500 27200 36000
2020-11-15 10:45 2.77 1340 37100 (1999) 528 (2007) 6900 530 541 841 1150 1680 8670 12500 27200 36000
2020-11-15 09:45 2.77 1340 37100 (1999) 528 (2007) 6900 530 541 841 1150 1680 8670 12500 27200 36000
2020-11-15 08:45 2.77 1340 37100 (1999) 528 (2007) 6900 530 541 841 1150 1680 8670 12500 27200 36000
2020-11-15 07:45 2.77 1340 37100 (1999) 528 (2007) 6900 530 541 841 1150 1680 8670 12500 27200 36000
2020-11-15 06:45 2.75 1310 37100 (1999) 528 (2007) 6900 530 541 841 1150 1680 8670 12500 27200 36000
2020-11-15 05:45 2.74 1300 37100 (1999) 528 (2007) 6900 530 541 841 1150 1680 8670 12500 27200 36000
2020-11-15 04:45 2.73 1290 37100 (1999) 528 (2007) 6900 530 541 841 1150 1680 8670 12500 27200 36000
2020-11-15 03:45 2.75 1310 37100 (1999) 528 (2007) 6900 530 541 841 1150 1680 8670 12500 27200 36000
2020-11-15 02:45 2.77 1340 37100 (1999) 528 (2007) 6900 530 541 841 1150 1680 8670 12500 27200 36000
2020-11-15 01:45 2.76 1320 37100 (1999) 528 (2007) 6900 530 541 841 1150 1680 8670 12500 27200 36000
2020-11-15 00:45 2.77 1340 37100 (1999) 528 (2007) 6900 530 541 841 1150 1680 8670 12500 27200 36000
2020-11-14 23:45 2.79 1360 37300 (1999) 482 (2007) 7030 492 549 626 1050 1920 12000 15100 23300 34900
2020-11-14 22:45 2.81 1390 37300 (1999) 482 (2007) 7030 492 549 626 1050 1920 12000 15100 23300 34900
2020-11-14 21:45 2.83 1420 37300 (1999) 482 (2007) 7030 492 549 626 1050 1920 12000 15100 23300 34900
2020-11-14 20:45 2.85 1450 37300 (1999) 482 (2007) 7030 492 549 626 1050 1920 12000 15100 23300 34900
2020-11-14 19:45 2.91 1530 37300 (1999) 482 (2007) 7030 492 549 626 1050 1920 12000 15100 23300 34900
2020-11-14 18:45 2.89 1500 37300 (1999) 482 (2007) 7030 492 549 626 1050 1920 12000 15100 23300 34900
2020-11-14 17:45 2.92 1540 37300 (1999) 482 (2007) 7030 492 549 626 1050 1920 12000 15100 23300 34900
2020-11-14 16:45 2.94 1570 37300 (1999) 482 (2007) 7030 492 549 626 1050 1920 12000 15100 23300 34900
2020-11-14 15:45 2.97 1620 37300 (1999) 482 (2007) 7030 492 549 626 1050 1920 12000 15100 23300 34900
2020-11-14 14:45 3.00 1660 37300 (1999) 482 (2007) 7030 492 549 626 1050 1920 12000 15100 23300 34900
2020-11-14 13:45 3.02 1700 37300 (1999) 482 (2007) 7030 492 549 626 1050 1920 12000 15100 23300 34900
2020-11-14 12:45 3.05 1740 37300 (1999) 482 (2007) 7030 492 549 626 1050 1920 12000 15100 23300 34900
2020-11-14 11:45 3.05 1740 37300 (1999) 482 (2007) 7030 492 549 626 1050 1920 12000 15100 23300 34900
2020-11-14 10:45 3.05 1740 37300 (1999) 482 (2007) 7030 492 549 626 1050 1920 12000 15100 23300 34900
2020-11-14 09:45 3.05 1740 37300 (1999) 482 (2007) 7030 492 549 626 1050 1920 12000 15100 23300 34900
2020-11-14 08:45 3.02 1700 37300 (1999) 482 (2007) 7030 492 549 626 1050 1920 12000 15100 23300 34900
2020-11-14 07:45 2.99 1650 37300 (1999) 482 (2007) 7030 492 549 626 1050 1920 12000 15100 23300 34900
2020-11-14 06:45 2.95 1590 37300 (1999) 482 (2007) 7030 492 549 626 1050 1920 12000 15100 23300 34900
2020-11-14 05:45 2.88 1490 37300 (1999) 482 (2007) 7030 492 549 626 1050 1920 12000 15100 23300 34900
2020-11-14 04:45 2.82 1400 37300 (1999) 482 (2007) 7030 492 549 626 1050 1920 12000 15100 23300 34900
2020-11-14 03:45 2.75 1310 37300 (1999) 482 (2007) 7030 492 549 626 1050 1920 12000 15100 23300 34900
2020-11-14 02:45 2.66 1200 37300 (1999) 482 (2007) 7030 492 549 626 1050 1920 12000 15100 23300 34900
2020-11-14 01:45 2.60 1130 37300 (1999) 482 (2007) 7030 492 549 626 1050 1920 12000 15100 23300 34900
2020-11-14 00:45 2.55 1070 37300 (1999) 482 (2007) 7030 492 549 626 1050 1920 12000 15100 23300 34900
2020-11-13 23:45 2.53 1050 37900 (1999) 489 (2007) 7340 499 553 970 1070 1640 13500 18200 24000 35500
2020-11-13 22:45 2.51 1030 37900 (1999) 489 (2007) 7340 499 553 970 1070 1640 13500 18200 24000 35500
2020-11-13 21:45 2.50 1020 37900 (1999) 489 (2007) 7340 499 553 970 1070 1640 13500 18200 24000 35500
2020-11-13 20:45 2.50 1020 37900 (1999) 489 (2007) 7340 499 553 970 1070 1640 13500 18200 24000 35500
2020-11-13 19:45 2.50 1020 37900 (1999) 489 (2007) 7340 499 553 970 1070 1640 13500 18200 24000 35500
2020-11-13 18:45 2.50 1020 37900 (1999) 489 (2007) 7340 499 553 970 1070 1640 13500 18200 24000 35500
2020-11-13 17:45 2.51 1030 37900 (1999) 489 (2007) 7340 499 553 970 1070 1640 13500 18200 24000 35500
2020-11-13 16:45 2.51 1030 37900 (1999) 489 (2007) 7340 499 553 970 1070 1640 13500 18200 24000 35500
2020-11-13 15:45 2.51 1030 37900 (1999) 489 (2007) 7340 499 553 970 1070 1640 13500 18200 24000 35500
2020-11-13 14:45 2.51 1030 37900 (1999) 489 (2007) 7340 499 553 970 1070 1640 13500 18200 24000 35500
2020-11-13 13:45 2.51 1030 37900 (1999) 489 (2007) 7340 499 553 970 1070 1640 13500 18200 24000 35500
2020-11-13 12:45 2.51 1030 37900 (1999) 489 (2007) 7340 499 553 970 1070 1640 13500 18200 24000 35500
2020-11-13 11:45 2.52 1040 37900 (1999) 489 (2007) 7340 499 553 970 1070 1640 13500 18200 24000 35500
2020-11-13 10:45 2.52 1040 37900 (1999) 489 (2007) 7340 499 553 970 1070 1640 13500 18200 24000 35500
2020-11-13 09:45 2.51 1030 37900 (1999) 489 (2007) 7340 499 553 970 1070 1640 13500 18200 24000 35500
2020-11-13 08:45 2.51 1030 37900 (1999) 489 (2007) 7340 499 553 970 1070 1640 13500 18200 24000 35500
2020-11-13 07:45 2.51 1030 37900 (1999) 489 (2007) 7340 499 553 970 1070 1640 13500 18200 24000 35500
2020-11-13 06:45 2.51 1030 37900 (1999) 489 (2007) 7340 499 553 970 1070 1640 13500 18200 24000 35500
2020-11-13 05:45 2.51 1030 37900 (1999) 489 (2007) 7340 499 553 970 1070 1640 13500 18200 24000 35500
2020-11-13 04:45 2.51 1030 37900 (1999) 489 (2007) 7340 499 553 970 1070 1640 13500 18200 24000 35500
2020-11-13 03:45 2.51 1030 37900 (1999) 489 (2007) 7340 499 553 970 1070 1640 13500 18200 24000 35500
2020-11-13 02:45 2.51 1030 37900 (1999) 489 (2007) 7340 499 553 970 1070 1640 13500 18200 24000 35500
2020-11-13 01:45 2.51 1030 37900 (1999) 489 (2007) 7340 499 553 970 1070 1640 13500 18200 24000 35500
2020-11-13 00:45 2.50 1020 37900 (1999) 489 (2007) 7340 499 553 970 1070 1640 13500 18200 24000 35500
2020-11-12 23:45 2.51 1030 38500 (1999) 484 (2007) 7220 500 580 702 773 1380 12400 16400 29300 37300
2020-11-12 22:45 2.51 1030 38500 (1999) 484 (2007) 7220 500 580 702 773 1380 12400 16400 29300 37300
2020-11-12 21:45 2.52 1040 38500 (1999) 484 (2007) 7220 500 580 702 773 1380 12400 16400 29300 37300
2020-11-12 20:45 2.52 1040 38500 (1999) 484 (2007) 7220 500 580 702 773 1380 12400 16400 29300 37300
2020-11-12 19:45 2.52 1040 38500 (1999) 484 (2007) 7220 500 580 702 773 1380 12400 16400 29300 37300
2020-11-12 18:45 2.52 1040 38500 (1999) 484 (2007) 7220 500 580 702 773 1380 12400 16400 29300 37300
2020-11-12 17:45 2.52 1040 38500 (1999) 484 (2007) 7220 500 580 702 773 1380 12400 16400 29300 37300
2020-11-12 16:45 2.52 1040 38500 (1999) 484 (2007) 7220 500 580 702 773 1380 12400 16400 29300 37300
2020-11-12 15:45 2.52 1040 38500 (1999) 484 (2007) 7220 500 580 702 773 1380 12400 16400 29300 37300
2020-11-12 14:45 2.52 1040 38500 (1999) 484 (2007) 7220 500 580 702 773 1380 12400 16400 29300 37300
2020-11-12 13:45 2.54 1060 38500 (1999) 484 (2007) 7220 500 580 702 773 1380 12400 16400 29300 37300
2020-11-12 12:45 2.53 1050 38500 (1999) 484 (2007) 7220 500 580 702 773 1380 12400 16400 29300 37300
2020-11-12 11:45 2.54 1060 38500 (1999) 484 (2007) 7220 500 580 702 773 1380 12400 16400 29300 37300
2020-11-12 10:45 2.53 1050 38500 (1999) 484 (2007) 7220 500 580 702 773 1380 12400 16400 29300 37300
2020-11-12 09:45 2.53 1050 38500 (1999) 484 (2007) 7220 500 580 702 773 1380 12400 16400 29300 37300
2020-11-12 08:45 2.53 1050 38500 (1999) 484 (2007) 7220 500 580 702 773 1380 12400 16400 29300 37300
2020-11-12 07:45 2.52 1040 38500 (1999) 484 (2007) 7220 500 580 702 773 1380 12400 16400 29300 37300
2020-11-12 06:45 2.53 1050 38500 (1999) 484 (2007) 7220 500 580 702 773 1380 12400 16400 29300 37300
2020-11-12 05:45 2.53 1050 38500 (1999) 484 (2007) 7220 500 580 702 773 1380 12400 16400 29300 37300
2020-11-12 04:45 2.53 1050 38500 (1999) 484 (2007) 7220 500 580 702 773 1380 12400 16400 29300 37300
2020-11-12 03:45 2.52 1040 38500 (1999) 484 (2007) 7220 500 580 702 773 1380 12400 16400 29300 37300
2020-11-12 02:45 2.53 1050 38500 (1999) 484 (2007) 7220 500 580 702 773 1380 12400 16400 29300 37300
2020-11-12 01:45 2.53 1050 38500 (1999) 484 (2007) 7220 500 580 702 773 1380 12400 16400 29300 37300
2020-11-12 00:45 2.53 1050 38500 (1999) 484 (2007) 7220 500 580 702 773 1380 12400 16400 29300 37300
2020-11-11 23:45 2.53 1050 37400 (1999) 474 (2007) 6960 509 659 728 874 1420 6590 15300 31800 36800
2020-11-11 22:45 2.53 1050 37400 (1999) 474 (2007) 6960 509 659 728 874 1420 6590 15300 31800 36800
2020-11-11 21:45 2.54 1060 37400 (1999) 474 (2007) 6960 509 659 728 874 1420 6590 15300 31800 36800
2020-11-11 20:45 2.54 1060 37400 (1999) 474 (2007) 6960 509 659 728 874 1420 6590 15300 31800 36800
2020-11-11 19:45 2.54 1060 37400 (1999) 474 (2007) 6960 509 659 728 874 1420 6590 15300 31800 36800
2020-11-11 18:45 2.54 1060 37400 (1999) 474 (2007) 6960 509 659 728 874 1420 6590 15300 31800 36800
2020-11-11 17:45 2.55 1070 37400 (1999) 474 (2007) 6960 509 659 728 874 1420 6590 15300 31800 36800
2020-11-11 16:45 2.55 1070 37400 (1999) 474 (2007) 6960 509 659 728 874 1420 6590 15300 31800 36800
2020-11-11 15:45 2.55 1070 37400 (1999) 474 (2007) 6960 509 659 728 874 1420 6590 15300 31800 36800
2020-11-11 14:45 2.55 1070 37400 (1999) 474 (2007) 6960 509 659 728 874 1420 6590 15300 31800 36800
2020-11-11 13:45 2.56 1080 37400 (1999) 474 (2007) 6960 509 659 728 874 1420 6590 15300 31800 36800
2020-11-11 12:45 2.56 1080 37400 (1999) 474 (2007) 6960 509 659 728 874 1420 6590 15300 31800 36800
2020-11-11 11:45 2.56 1080 37400 (1999) 474 (2007) 6960 509 659 728 874 1420 6590 15300 31800 36800
2020-11-11 10:45 2.56 1080 37400 (1999) 474 (2007) 6960 509 659 728 874 1420 6590 15300 31800 36800
2020-11-11 09:45 2.56 1080 37400 (1999) 474 (2007) 6960 509 659 728 874 1420 6590 15300 31800 36800
2020-11-11 08:45 2.56 1080 37400 (1999) 474 (2007) 6960 509 659 728 874 1420 6590 15300 31800 36800
2020-11-11 07:45 2.55 1070 37400 (1999) 474 (2007) 6960 509 659 728 874 1420 6590 15300 31800 36800
2020-11-11 06:45 2.55 1070 37400 (1999) 474 (2007) 6960 509 659 728 874 1420 6590 15300 31800 36800
2020-11-11 05:45 2.55 1070 37400 (1999) 474 (2007) 6960 509 659 728 874 1420 6590 15300 31800 36800
2020-11-11 04:45 2.55 1070 37400 (1999) 474 (2007) 6960 509 659 728 874 1420 6590 15300 31800 36800
2020-11-11 03:45 2.55 1070 37400 (1999) 474 (2007) 6960 509 659 728 874 1420 6590 15300 31800 36800
2020-11-11 02:45 2.55 1070 37400 (1999) 474 (2007) 6960 509 659 728 874 1420 6590 15300 31800 36800
2020-11-11 01:45 2.55 1070 37400 (1999) 474 (2007) 6960 509 659 728 874 1420 6590 15300 31800 36800
2020-11-11 00:45 2.55 1070 37400 (1999) 474 (2007) 6960 509 659 728 874 1420 6590 15300 31800 36800
2020-11-10 23:45 2.54 1060 37700 (1999) 481 (2007) 6300 509 630 840 915 1410 3630 7720 30800 36700
2020-11-10 22:45 2.55 1070 37700 (1999) 481 (2007) 6300 509 630 840 915 1410 3630 7720 30800 36700
2020-11-10 21:45 2.56 1080 37700 (1999) 481 (2007) 6300 509 630 840 915 1410 3630 7720 30800 36700
2020-11-10 20:45 2.54 1060 37700 (1999) 481 (2007) 6300 509 630 840 915 1410 3630 7720 30800 36700
2020-11-10 19:45 2.55 1070 37700 (1999) 481 (2007) 6300 509 630 840 915 1410 3630 7720 30800 36700
2020-11-10 18:45 2.55 1070 37700 (1999) 481 (2007) 6300 509 630 840 915 1410 3630 7720 30800 36700
2020-11-10 17:45 2.55 1070 37700 (1999) 481 (2007) 6300 509 630 840 915 1410 3630 7720 30800 36700
2020-11-10 16:45 2.55 1070 37700 (1999) 481 (2007) 6300 509 630 840 915 1410 3630 7720 30800 36700
2020-11-10 15:45 2.56 1080 37700 (1999) 481 (2007) 6300 509 630 840 915 1410 3630 7720 30800 36700
2020-11-10 14:45 2.55 1070 37700 (1999) 481 (2007) 6300 509 630 840 915 1410 3630 7720 30800 36700
2020-11-10 13:45 2.54 1060 37700 (1999) 481 (2007) 6300 509 630 840 915 1410 3630 7720 30800 36700
2020-11-10 12:45 2.55 1070 37700 (1999) 481 (2007) 6300 509 630 840 915 1410 3630 7720 30800 36700
2020-11-10 11:45 2.55 1070 37700 (1999) 481 (2007) 6300 509 630 840 915 1410 3630 7720 30800 36700
2020-11-10 10:45 2.56 1080 37700 (1999) 481 (2007) 6300 509 630 840 915 1410 3630 7720 30800 36700
2020-11-10 09:45 2.54 1060 37700 (1999) 481 (2007) 6300 509 630 840 915 1410 3630 7720 30800 36700
2020-11-10 08:45 2.54 1060 37700 (1999) 481 (2007) 6300 509 630 840 915 1410 3630 7720 30800 36700
2020-11-10 07:45 2.53 1050 37700 (1999) 481 (2007) 6300 509 630 840 915 1410 3630 7720 30800 36700
2020-11-10 06:45 2.53 1050 37700 (1999) 481 (2007) 6300 509 630 840 915 1410 3630 7720 30800 36700
2020-11-10 05:45 2.53 1050 37700 (1999) 481 (2007) 6300 509 630 840 915 1410 3630 7720 30800 36700
2020-11-10 04:45 2.53 1050 37700 (1999) 481 (2007) 6300 509 630 840 915 1410 3630 7720 30800 36700
2020-11-10 03:45 2.53 1050 37700 (1999) 481 (2007) 6300 509 630 840 915 1410 3630 7720 30800 36700
2020-11-10 02:45 2.52 1040 37700 (1999) 481 (2007) 6300 509 630 840 915 1410 3630 7720 30800 36700
2020-11-10 01:45 2.52 1040 37700 (1999) 481 (2007) 6300 509 630 840 915 1410 3630 7720 30800 36700
2020-11-10 00:45 2.52 1040 37700 (1999) 481 (2007) 6300 509 630 840 915 1410 3630 7720 30800 36700
2020-11-09 23:45 2.52 1040 38100 (1999) 494 (2007) 6880 512 586 885 1090 1670 3890 13400 31200 37400
2020-11-09 22:45 2.52 1040 38100 (1999) 494 (2007) 6880 512 586 885 1090 1670 3890 13400 31200 37400
2020-11-09 21:45 2.52 1040 38100 (1999) 494 (2007) 6880 512 586 885 1090 1670 3890 13400 31200 37400
2020-11-09 20:45 2.52 1040 38100 (1999) 494 (2007) 6880 512 586 885 1090 1670 3890 13400 31200 37400
2020-11-09 19:45 2.52 1040 38100 (1999) 494 (2007) 6880 512 586 885 1090 1670 3890 13400 31200 37400
2020-11-09 18:45 2.52 1040 38100 (1999) 494 (2007) 6880 512 586 885 1090 1670 3890 13400 31200 37400
2020-11-09 17:45 2.53 1050 38100 (1999) 494 (2007) 6880 512 586 885 1090 1670 3890 13400 31200 37400
2020-11-09 16:45 2.53 1050 38100 (1999) 494 (2007) 6880 512 586 885 1090 1670 3890 13400 31200 37400
2020-11-09 15:45 2.53 1050 38100 (1999) 494 (2007) 6880 512 586 885 1090 1670 3890 13400 31200 37400
2020-11-09 14:45 2.54 1060 38100 (1999) 494 (2007) 6880 512 586 885 1090 1670 3890 13400 31200 37400
2020-11-09 13:45 2.53 1050 38100 (1999) 494 (2007) 6880 512 586 885 1090 1670 3890 13400 31200 37400
2020-11-09 12:45 2.54 1060 38100 (1999) 494 (2007) 6880 512 586 885 1090 1670 3890 13400 31200 37400
2020-11-09 11:45 2.53 1050 38100 (1999) 494 (2007) 6880 512 586 885 1090 1670 3890 13400 31200 37400
2020-11-09 10:45 2.54 1060 38100 (1999) 494 (2007) 6880 512 586 885 1090 1670 3890 13400 31200 37400
2020-11-09 09:45 2.53 1050 38100 (1999) 494 (2007) 6880 512 586 885 1090 1670 3890 13400 31200 37400
2020-11-09 08:45 2.53 1050 38100 (1999) 494 (2007) 6880 512 586 885 1090 1670 3890 13400 31200 37400
2020-11-09 07:45 2.52 1040 38100 (1999) 494 (2007) 6880 512 586 885 1090 1670 3890 13400 31200 37400
2020-11-09 06:45 2.52 1040 38100 (1999) 494 (2007) 6880 512 586 885 1090 1670 3890 13400 31200 37400
2020-11-09 05:45 2.52 1040 38100 (1999) 494 (2007) 6880 512 586 885 1090 1670 3890 13400 31200 37400
2020-11-09 04:45 2.52 1040 38100 (1999) 494 (2007) 6880 512 586 885 1090 1670 3890 13400 31200 37400
2020-11-09 03:45 2.52 1040 38100 (1999) 494 (2007) 6880 512 586 885 1090 1670 3890 13400 31200 37400
2020-11-09 02:45 2.52 1040 38100 (1999) 494 (2007) 6880 512 586 885 1090 1670 3890 13400 31200 37400
2020-11-09 01:45 2.52 1040 38100 (1999) 494 (2007) 6880 512 586 885 1090 1670 3890 13400 31200 37400
2020-11-09 00:45 2.52 1040 38100 (1999) 494 (2007) 6880 512 586 885 1090 1670 3890 13400 31200 37400
2020-11-08 23:45 2.52 1040 40300 (1999) 498 (2007) 6950 508 554 887 1170 2380 3580 8980 33400 39100
2020-11-08 22:45 2.52 1040 40300 (1999) 498 (2007) 6950 508 554 887 1170 2380 3580 8980 33400 39100
2020-11-08 21:45 2.53 1050 40300 (1999) 498 (2007) 6950 508 554 887 1170 2380 3580 8980 33400 39100
2020-11-08 20:45 2.53 1050 40300 (1999) 498 (2007) 6950 508 554 887 1170 2380 3580 8980 33400 39100
2020-11-08 19:45 2.53 1050 40300 (1999) 498 (2007) 6950 508 554 887 1170 2380 3580 8980 33400 39100
2020-11-08 18:45 2.53 1050 40300 (1999) 498 (2007) 6950 508 554 887 1170 2380 3580 8980 33400 39100
2020-11-08 17:45 2.53 1050 40300 (1999) 498 (2007) 6950 508 554 887 1170 2380 3580 8980 33400 39100
2020-11-08 16:45 2.54 1060 40300 (1999) 498 (2007) 6950 508 554 887 1170 2380 3580 8980 33400 39100
2020-11-08 15:45 2.54 1060 40300 (1999) 498 (2007) 6950 508 554 887 1170 2380 3580 8980 33400 39100
2020-11-08 14:45 2.54 1060 40300 (1999) 498 (2007) 6950 508 554 887 1170 2380 3580 8980 33400 39100
2020-11-08 13:45 2.54 1060 40300 (1999) 498 (2007) 6950 508 554 887 1170 2380 3580 8980 33400 39100
2020-11-08 12:45 2.55 1070 40300 (1999) 498 (2007) 6950 508 554 887 1170 2380 3580 8980 33400 39100
2020-11-08 11:45 2.55 1070 40300 (1999) 498 (2007) 6950 508 554 887 1170 2380 3580 8980 33400 39100
2020-11-08 10:45 2.55 1070 40300 (1999) 498 (2007) 6950 508 554 887 1170 2380 3580 8980 33400 39100
2020-11-08 09:45 2.55 1070 40300 (1999) 498 (2007) 6950 508 554 887 1170 2380 3580 8980 33400 39100
2020-11-08 08:45 2.54 1060 40300 (1999) 498 (2007) 6950 508 554 887 1170 2380 3580 8980 33400 39100
2020-11-08 07:45 2.54 1060 40300 (1999) 498 (2007) 6950 508 554 887 1170 2380 3580 8980 33400 39100
2020-11-08 06:45 2.54 1060 40300 (1999) 498 (2007) 6950 508 554 887 1170 2380 3580 8980 33400 39100
2020-11-08 05:45 2.54 1060 40300 (1999) 498 (2007) 6950 508 554 887 1170 2380 3580 8980 33400 39100
2020-11-08 04:45 2.54 1060 40300 (1999) 498 (2007) 6950 508 554 887 1170 2380 3580 8980 33400 39100
2020-11-08 03:45 2.55 1070 40300 (1999) 498 (2007) 6950 508 554 887 1170 2380 3580 8980 33400 39100
2020-11-08 02:45 2.55 1070 40300 (1999) 498 (2007) 6950 508 554 887 1170 2380 3580 8980 33400 39100
2020-11-08 01:45 2.56 1080 40300 (1999) 498 (2007) 6950 508 554 887 1170 2380 3580 8980 33400 39100
2020-11-08 00:45 2.56 1080 40300 (1999) 498 (2007) 6950 508 554 887 1170 2380 3580 8980 33400 39100
2020-11-07 23:45 2.56 1080 43000 (1999) 491 (2007) 7100 500 550 912 1170 1760 6710 8270 31100 41300
2020-11-07 22:45 2.57 1100 43000 (1999) 491 (2007) 7100 500 550 912 1170 1760 6710 8270 31100 41300
2020-11-07 21:45 2.57 1100 43000 (1999) 491 (2007) 7100 500 550 912 1170 1760 6710 8270 31100 41300
2020-11-07 20:45 2.58 1110 43000 (1999) 491 (2007) 7100 500 550 912 1170 1760 6710 8270 31100 41300
2020-11-07 19:45 2.58 1110 43000 (1999) 491 (2007) 7100 500 550 912 1170 1760 6710 8270 31100 41300
2020-11-07 18:45 2.59 1120 43000 (1999) 491 (2007) 7100 500 550 912 1170 1760 6710 8270 31100 41300
2020-11-07 17:45 2.60 1130 43000 (1999) 491 (2007) 7100 500 550 912 1170 1760 6710 8270 31100 41300
2020-11-07 16:45 2.62 1150 43000 (1999) 491 (2007) 7100 500 550 912 1170 1760 6710 8270 31100 41300
2020-11-07 15:45 2.63 1160 43000 (1999) 491 (2007) 7100 500 550 912 1170 1760 6710 8270 31100 41300
2020-11-07 14:45 2.65 1190 43000 (1999) 491 (2007) 7100 500 550 912 1170 1760 6710 8270 31100 41300
2020-11-07 13:45 2.65 1190 43000 (1999) 491 (2007) 7100 500 550 912 1170 1760 6710 8270 31100 41300
2020-11-07 12:45 2.68 1220 43000 (1999) 491 (2007) 7100 500 550 912 1170 1760 6710 8270 31100 41300
2020-11-07 11:45 2.69 1240 43000 (1999) 491 (2007) 7100 500 550 912 1170 1760 6710 8270 31100 41300
2020-11-07 10:45 2.70 1250 43000 (1999) 491 (2007) 7100 500 550 912 1170 1760 6710 8270 31100 41300
2020-11-07 09:45 2.71 1260 43000 (1999) 491 (2007) 7100 500 550 912 1170 1760 6710 8270 31100 41300
2020-11-07 08:45 2.72 1270 43000 (1999) 491 (2007) 7100 500 550 912 1170 1760 6710 8270 31100 41300
2020-11-07 07:45 2.73 1290 43000 (1999) 491 (2007) 7100 500 550 912 1170 1760 6710 8270 31100 41300
2020-11-07 06:45 2.74 1300 43000 (1999) 491 (2007) 7100 500 550 912 1170 1760 6710 8270 31100 41300
2020-11-07 05:45 2.75 1310 43000 (1999) 491 (2007) 7100 500 550 912 1170 1760 6710 8270 31100 41300
2020-11-07 04:45 2.76 1320 43000 (1999) 491 (2007) 7100 500 550 912 1170 1760 6710 8270 31100 41300
2020-11-07 03:45 2.77 1340 43000 (1999) 491 (2007) 7100 500 550 912 1170 1760 6710 8270 31100 41300
2020-11-07 02:45 2.77 1340 43000 (1999) 491 (2007) 7100 500 550 912 1170 1760 6710 8270 31100 41300
2020-11-07 01:45 2.77 1340 43000 (1999) 491 (2007) 7100 500 550 912 1170 1760 6710 8270 31100 41300
2020-11-07 00:45 2.76 1320 43000 (1999) 491 (2007) 7100 500 550 912 1170 1760 6710 8270 31100 41300
2020-11-06 23:45 2.74 1300 44500 (1999) 485 (2007) 6930 507 608 1140 1320 1720 7720 9200 28100 42400
2020-11-06 22:45 2.73 1290 44500 (1999) 485 (2007) 6930 507 608 1140 1320 1720 7720 9200 28100 42400
2020-11-06 21:45 2.70 1250 44500 (1999) 485 (2007) 6930 507 608 1140 1320 1720 7720 9200 28100 42400
2020-11-06 20:45 2.68 1220 44500 (1999) 485 (2007) 6930 507 608 1140 1320 1720 7720 9200 28100 42400
2020-11-06 19:45 2.65 1190 44500 (1999) 485 (2007) 6930 507 608 1140 1320 1720 7720 9200 28100 42400
2020-11-06 18:45 2.62 1150 44500 (1999) 485 (2007) 6930 507 608 1140 1320 1720 7720 9200 28100 42400
2020-11-06 17:45 2.60 1130 44500 (1999) 485 (2007) 6930 507 608 1140 1320 1720 7720 9200 28100 42400
2020-11-06 16:45 2.58 1110 44500 (1999) 485 (2007) 6930 507 608 1140 1320 1720 7720 9200 28100 42400
2020-11-06 15:45 2.57 1100 44500 (1999) 485 (2007) 6930 507 608 1140 1320 1720 7720 9200 28100 42400
2020-11-06 14:45 2.58 1110 44500 (1999) 485 (2007) 6930 507 608 1140 1320 1720 7720 9200 28100 42400
2020-11-06 13:45 2.57 1100 44500 (1999) 485 (2007) 6930 507 608 1140 1320 1720 7720 9200 28100 42400
2020-11-06 12:45 2.58 1110 44500 (1999) 485 (2007) 6930 507 608 1140 1320 1720 7720 9200 28100 42400
2020-11-06 11:45 2.58 1110 44500 (1999) 485 (2007) 6930 507 608 1140 1320 1720 7720 9200 28100 42400
2020-11-06 10:45 2.57 1100 44500 (1999) 485 (2007) 6930 507 608 1140 1320 1720 7720 9200 28100 42400
2020-11-06 09:45 2.57 1100 44500 (1999) 485 (2007) 6930 507 608 1140 1320 1720 7720 9200 28100 42400
2020-11-06 08:45 2.57 1100 44500 (1999) 485 (2007) 6930 507 608 1140 1320 1720 7720 9200 28100 42400
2020-11-06 07:45 2.57 1100 44500 (1999) 485 (2007) 6930 507 608 1140 1320 1720 7720 9200 28100 42400
2020-11-06 06:45 2.56 1080 44500 (1999) 485 (2007) 6930 507 608 1140 1320 1720 7720 9200 28100 42400
2020-11-06 05:45 2.56 1080 44500 (1999) 485 (2007) 6930 507 608 1140 1320 1720 7720 9200 28100 42400
2020-11-06 04:45 2.56 1080 44500 (1999) 485 (2007) 6930 507 608 1140 1320 1720 7720 9200 28100 42400
2020-11-06 03:45 2.56 1080 44500 (1999) 485 (2007) 6930 507 608 1140 1320 1720 7720 9200 28100 42400
2020-11-06 02:45 2.56 1080 44500 (1999) 485 (2007) 6930 507 608 1140 1320 1720 7720 9200 28100 42400
2020-11-06 01:45 2.56 1080 44500 (1999) 485 (2007) 6930 507 608 1140 1320 1720 7720 9200 28100 42400
2020-11-06 00:45 2.57 1100 44500 (1999) 485 (2007) 6930 507 608 1140 1320 1720 7720 9200 28100 42400
2020-11-05 23:45 2.56 1080 43700 (1999) 489 (2007) 7030 510 622 808 1190 2300 4780 11400 28400 41800
2020-11-05 22:45 2.57 1100 43700 (1999) 489 (2007) 7030 510 622 808 1190 2300 4780 11400 28400 41800
2020-11-05 21:45 2.57 1100 43700 (1999) 489 (2007) 7030 510 622 808 1190 2300 4780 11400 28400 41800
2020-11-05 20:45 2.57 1100 43700 (1999) 489 (2007) 7030 510 622 808 1190 2300 4780 11400 28400 41800
2020-11-05 19:45 2.57 1100 43700 (1999) 489 (2007) 7030 510 622 808 1190 2300 4780 11400 28400 41800
2020-11-05 18:45 2.57 1100 43700 (1999) 489 (2007) 7030 510 622 808 1190 2300 4780 11400 28400 41800
2020-11-05 17:45 2.58 1110 43700 (1999) 489 (2007) 7030 510 622 808 1190 2300 4780 11400 28400 41800
2020-11-05 16:45 2.58 1110 43700 (1999) 489 (2007) 7030 510 622 808 1190 2300 4780 11400 28400 41800
2020-11-05 15:45 2.58 1110 43700 (1999) 489 (2007) 7030 510 622 808 1190 2300 4780 11400 28400 41800
2020-11-05 14:45 2.58 1110 43700 (1999) 489 (2007) 7030 510 622 808 1190 2300 4780 11400 28400 41800
2020-11-05 13:45 2.59 1120 43700 (1999) 489 (2007) 7030 510 622 808 1190 2300 4780 11400 28400 41800
2020-11-05 12:45 2.59 1120 43700 (1999) 489 (2007) 7030 510 622 808 1190 2300 4780 11400 28400 41800
2020-11-05 11:45 2.59 1120 43700 (1999) 489 (2007) 7030 510 622 808 1190 2300 4780 11400 28400 41800
2020-11-05 10:45 2.60 1130 43700 (1999) 489 (2007) 7030 510 622 808 1190 2300 4780 11400 28400 41800
2020-11-05 09:45 2.59 1120 43700 (1999) 489 (2007) 7030 510 622 808 1190 2300 4780 11400 28400 41800
2020-11-05 08:45 2.59 1120 43700 (1999) 489 (2007) 7030 510 622 808 1190 2300 4780 11400 28400 41800
2020-11-05 07:45 2.58 1110 43700 (1999) 489 (2007) 7030 510 622 808 1190 2300 4780 11400 28400 41800
2020-11-05 06:45 2.58 1110 43700 (1999) 489 (2007) 7030 510 622 808 1190 2300 4780 11400 28400 41800
2020-11-05 05:45 2.58 1110 43700 (1999) 489 (2007) 7030 510 622 808 1190 2300 4780 11400 28400 41800
2020-11-05 04:45 2.59 1120 43700 (1999) 489 (2007) 7030 510 622 808 1190 2300 4780 11400 28400 41800
2020-11-05 03:45 2.59 1120 43700 (1999) 489 (2007) 7030 510 622 808 1190 2300 4780 11400 28400 41800
2020-11-05 02:45 2.59 1120 43700 (1999) 489 (2007) 7030 510 622 808 1190 2300 4780 11400 28400 41800
2020-11-05 01:45 2.59 1120 43700 (1999) 489 (2007) 7030 510 622 808 1190 2300 4780 11400 28400 41800
2020-11-05 00:45 2.59 1120 43700 (1999) 489 (2007) 7030 510 622 808 1190 2300 4780 11400 28400 41800
2020-11-04 23:45 2.60 1130 41000 (1999) 490 (2007) 7410 507 602 921 1200 1930 6780 9850 33300 39700
2020-11-04 22:45 2.60 1130 41000 (1999) 490 (2007) 7410 507 602 921 1200 1930 6780 9850 33300 39700
2020-11-04 21:45 2.60 1130 41000 (1999) 490 (2007) 7410 507 602 921 1200 1930 6780 9850 33300 39700
2020-11-04 20:45 2.60 1130 41000 (1999) 490 (2007) 7410 507 602 921 1200 1930 6780 9850 33300 39700
2020-11-04 19:45 2.60 1130 41000 (1999) 490 (2007) 7410 507 602 921 1200 1930 6780 9850 33300 39700
2020-11-04 18:45 2.61 1140 41000 (1999) 490 (2007) 7410 507 602 921 1200 1930 6780 9850 33300 39700
2020-11-04 17:45 2.61 1140 41000 (1999) 490 (2007) 7410 507 602 921 1200 1930 6780 9850 33300 39700
2020-11-04 16:45 2.61 1140 41000 (1999) 490 (2007) 7410 507 602 921 1200 1930 6780 9850 33300 39700
2020-11-04 15:45 2.62 1150 41000 (1999) 490 (2007) 7410 507 602 921 1200 1930 6780 9850 33300 39700
2020-11-04 14:45 2.61 1140 41000 (1999) 490 (2007) 7410 507 602 921 1200 1930 6780 9850 33300 39700
2020-11-04 13:45 2.63 1160 41000 (1999) 490 (2007) 7410 507 602 921 1200 1930 6780 9850 33300 39700
2020-11-04 12:45 2.63 1160 41000 (1999) 490 (2007) 7410 507 602 921 1200 1930 6780 9850 33300 39700
2020-11-04 11:45 2.62 1150 41000 (1999) 490 (2007) 7410 507 602 921 1200 1930 6780 9850 33300 39700
2020-11-04 10:45 2.62 1150 41000 (1999) 490 (2007) 7410 507 602 921 1200 1930 6780 9850 33300 39700
2020-11-04 09:45 2.62 1150 41000 (1999) 490 (2007) 7410 507 602 921 1200 1930 6780 9850 33300 39700
2020-11-04 08:45 2.62 1150 41000 (1999) 490 (2007) 7410 507 602 921 1200 1930 6780 9850 33300 39700
2020-11-04 07:45 2.61 1140 41000 (1999) 490 (2007) 7410 507 602 921 1200 1930 6780 9850 33300 39700
2020-11-04 06:45 2.61 1140 41000 (1999) 490 (2007) 7410 507 602 921 1200 1930 6780 9850 33300 39700
2020-11-04 05:45 2.61 1140 41000 (1999) 490 (2007) 7410 507 602 921 1200 1930 6780 9850 33300 39700
2020-11-04 04:45 2.61 1140 41000 (1999) 490 (2007) 7410 507 602 921 1200 1930 6780 9850 33300 39700
2020-11-04 03:45 2.61 1140 41000 (1999) 490 (2007) 7410 507 602 921 1200 1930 6780 9850 33300 39700
2020-11-04 02:45 2.61 1140 41000 (1999) 490 (2007) 7410 507 602 921 1200 1930 6780 9850 33300 39700
2020-11-04 01:45 2.61 1140 41000 (1999) 490 (2007) 7410 507 602 921 1200 1930 6780 9850 33300 39700
2020-11-04 00:45 2.61 1140 41000 (1999) 490 (2007) 7410 507 602 921 1200 1930 6780 9850 33300 39700
2020-11-03 23:45 2.61 1140 37200 (1999) 492 (2007) 7730 509 648 1010 1220 1940 8680 10200 34500 36700
2020-11-03 22:45 2.61 1140 37200 (1999) 492 (2007) 7730 509 648 1010 1220 1940 8680 10200 34500 36700
2020-11-03 21:45 2.62 1150 37200 (1999) 492 (2007) 7730 509 648 1010 1220 1940 8680 10200 34500 36700
2020-11-03 20:45 2.62 1150 37200 (1999) 492 (2007) 7730 509 648 1010 1220 1940 8680 10200 34500 36700
2020-11-03 19:45 2.62 1150 37200 (1999) 492 (2007) 7730 509 648 1010 1220 1940 8680 10200 34500 36700
2020-11-03 18:45 2.62 1150 37200 (1999) 492 (2007) 7730 509 648 1010 1220 1940 8680 10200 34500 36700
2020-11-03 17:45 2.62 1150 37200 (1999) 492 (2007) 7730 509 648 1010 1220 1940 8680 10200 34500 36700
2020-11-03 16:45 2.63 1160 37200 (1999) 492 (2007) 7730 509 648 1010 1220 1940 8680 10200 34500 36700
2020-11-03 15:45 2.63 1160 37200 (1999) 492 (2007) 7730 509 648 1010 1220 1940 8680 10200 34500 36700
2020-11-03 14:45 2.63 1160 37200 (1999) 492 (2007) 7730 509 648 1010 1220 1940 8680 10200 34500 36700
2020-11-03 13:45 2.64 1180 37200 (1999) 492 (2007) 7730 509 648 1010 1220 1940 8680 10200 34500 36700
2020-11-03 12:45 2.64 1180 37200 (1999) 492 (2007) 7730 509 648 1010 1220 1940 8680 10200 34500 36700
2020-11-03 11:45 2.64 1180 37200 (1999) 492 (2007) 7730 509 648 1010 1220 1940 8680 10200 34500 36700
2020-11-03 10:45 2.64 1180 37200 (1999) 492 (2007) 7730 509 648 1010 1220 1940 8680 10200 34500 36700
2020-11-03 09:45 2.64 1180 37200 (1999) 492 (2007) 7730 509 648 1010 1220 1940 8680 10200 34500 36700
2020-11-03 08:45 2.64 1180 37200 (1999) 492 (2007) 7730 509 648 1010 1220 1940 8680 10200 34500 36700
2020-11-03 07:45 2.64 1180 37200 (1999) 492 (2007) 7730 509 648 1010 1220 1940 8680 10200 34500 36700
2020-11-03 06:45 2.63 1160 37200 (1999) 492 (2007) 7730 509 648 1010 1220 1940 8680 10200 34500 36700
2020-11-03 05:45 2.63 1160 37200 (1999) 492 (2007) 7730 509 648 1010 1220 1940 8680 10200 34500 36700
2020-11-03 04:45 2.64 1180 37200 (1999) 492 (2007) 7730 509 648 1010 1220 1940 8680 10200 34500 36700
2020-11-03 03:45 2.64 1180 37200 (1999) 492 (2007) 7730 509 648 1010 1220 1940 8680 10200 34500 36700
2020-11-03 02:45 2.64 1180 37200 (1999) 492 (2007) 7730 509 648 1010 1220 1940 8680 10200 34500 36700
2020-11-03 01:45 2.64 1180 37200 (1999) 492 (2007) 7730 509 648 1010 1220 1940 8680 10200 34500 36700
2020-11-03 00:45 2.64 1180 37200 (1999) 492 (2007) 7730 509 648 1010 1220 1940 8680 10200 34500 36700
2020-11-02 23:45 2.65 1190 35800 (1999) 488 (2007) 7620 503 652 995 1040 1670 11200 12300 31600 35100
2020-11-02 22:45 2.65 1190 35800 (1999) 488 (2007) 7620 503 652 995 1040 1670 11200 12300 31600 35100
2020-11-02 21:45 2.65 1190 35800 (1999) 488 (2007) 7620 503 652 995 1040 1670 11200 12300 31600 35100
2020-11-02 20:45 2.65 1190 35800 (1999) 488 (2007) 7620 503 652 995 1040 1670 11200 12300 31600 35100
2020-11-02 19:45 2.65 1190 35800 (1999) 488 (2007) 7620 503 652 995 1040 1670 11200 12300 31600 35100
2020-11-02 18:45 2.66 1200 35800 (1999) 488 (2007) 7620 503 652 995 1040 1670 11200 12300 31600 35100
2020-11-02 17:45 2.66 1200 35800 (1999) 488 (2007) 7620 503 652 995 1040 1670 11200 12300 31600 35100
2020-11-02 16:45 2.66 1200 35800 (1999) 488 (2007) 7620 503 652 995 1040 1670 11200 12300 31600 35100
2020-11-02 15:45 2.67 1210 35800 (1999) 488 (2007) 7620 503 652 995 1040 1670 11200 12300 31600 35100
2020-11-02 14:45 2.68 1220 35800 (1999) 488 (2007) 7620 503 652 995 1040 1670 11200 12300 31600 35100
2020-11-02 13:45 2.68 1220 35800 (1999) 488 (2007) 7620 503 652 995 1040 1670 11200 12300 31600 35100
2020-11-02 12:45 2.68 1220 35800 (1999) 488 (2007) 7620 503 652 995 1040 1670 11200 12300 31600 35100
2020-11-02 11:45 2.68 1220 35800 (1999) 488 (2007) 7620 503 652 995 1040 1670 11200 12300 31600 35100
2020-11-02 10:45 2.68 1220 35800 (1999) 488 (2007) 7620 503 652 995 1040 1670 11200 12300 31600 35100
2020-11-02 09:45 2.69 1240 35800 (1999) 488 (2007) 7620 503 652 995 1040 1670 11200 12300 31600 35100
2020-11-02 08:45 2.69 1240 35800 (1999) 488 (2007) 7620 503 652 995 1040 1670 11200 12300 31600 35100
2020-11-02 07:45 2.69 1240 35800 (1999) 488 (2007) 7620 503 652 995 1040 1670 11200 12300 31600 35100
2020-11-02 06:45 2.69 1240 35800 (1999) 488 (2007) 7620 503 652 995 1040 1670 11200 12300 31600 35100
2020-11-02 05:45 2.69 1240 35800 (1999) 488 (2007) 7620 503 652 995 1040 1670 11200 12300 31600 35100
2020-11-02 04:45 2.69 1240 35800 (1999) 488 (2007) 7620 503 652 995 1040 1670 11200 12300 31600 35100
2020-11-02 03:45 2.70 1250 35800 (1999) 488 (2007) 7620 503 652 995 1040 1670 11200 12300 31600 35100
2020-11-02 02:45 2.70 1250 35800 (1999) 488 (2007) 7620 503 652 995 1040 1670 11200 12300 31600 35100
2020-11-02 01:45 2.70 1250 35800 (1999) 488 (2007) 7620 503 652 995 1040 1670 11200 12300 31600 35100
2020-11-02 00:45 2.71 1260 35800 (1999) 488 (2007) 7620 503 652 995 1040 1670 11200 12300 31600 35100
2020-11-01 23:45 2.71 1260 36900 (2010) 486 (2007) 7960 501 589 755 1090 1390 14300 15100 32800 36600
2020-11-01 22:45 2.72 1270 36900 (2010) 486 (2007) 7960 501 589 755 1090 1390 14300 15100 32800 36600
2020-11-01 21:45 2.72 1270 36900 (2010) 486 (2007) 7960 501 589 755 1090 1390 14300 15100 32800 36600
2020-11-01 20:45 2.73 1290 36900 (2010) 486 (2007) 7960 501 589 755 1090 1390 14300 15100 32800 36600
2020-11-01 19:45 2.73 1290 36900 (2010) 486 (2007) 7960 501 589 755 1090 1390 14300 15100 32800 36600
2020-11-01 18:45 2.73 1290 36900 (2010) 486 (2007) 7960 501 589 755 1090 1390 14300 15100 32800 36600
2020-11-01 17:45 2.74 1300 36900 (2010) 486 (2007) 7960 501 589 755 1090 1390 14300 15100 32800 36600
2020-11-01 16:45 2.74 1300 36900 (2010) 486 (2007) 7960 501 589 755 1090 1390 14300 15100 32800 36600
2020-11-01 15:45 2.75 1310 36900 (2010) 486 (2007) 7960 501 589 755 1090 1390 14300 15100 32800 36600
2020-11-01 14:45 2.75 1310 36900 (2010) 486 (2007) 7960 501 589 755 1090 1390 14300 15100 32800 36600
2020-11-01 13:45 2.75 1310 36900 (2010) 486 (2007) 7960 501 589 755 1090 1390 14300 15100 32800 36600
2020-11-01 12:45 1320 36900 (2010) 486 (2007) 7960 501 589 755 1090 1390 14300 15100 32800 36600
2020-11-01 07:45 2.80 1380 36900 (2010) 486 (2007) 7960 501 589 755 1090 1390 14300 15100 32800 36600
2020-11-01 06:45 2.80 1380 36900 (2010) 486 (2007) 7960 501 589 755 1090 1390 14300 15100 32800 36600
2020-11-01 05:45 2.81 1390 36900 (2010) 486 (2007) 7960 501 589 755 1090 1390 14300 15100 32800 36600
2020-11-01 04:45 1400 36900 (2010) 486 (2007) 7960 501 589 755 1090 1390 14300 15100 32800 36600
2020-11-01 03:45 2.82 1400 36900 (2010) 486 (2007) 7960 501 589 755 1090 1390 14300 15100 32800 36600
2020-11-01 00:45 2.85 1450 36900 (2010) 486 (2007) 7960 501 589 755 1090 1390 14300 15100 32800 36600
2020-10-31 23:45 2.86 1460 45900 (2010) 512 (2007) 8660 525 602 966 1080 1510 16300 18000 31700 43800
2020-10-31 22:45 2.87 1470 45900 (2010) 512 (2007) 8660 525 602 966 1080 1510 16300 18000 31700 43800
2020-10-31 21:45 2.88 1490 45900 (2010) 512 (2007) 8660 525 602 966 1080 1510 16300 18000 31700 43800
2020-10-31 20:45 2.89 1500 45900 (2010) 512 (2007) 8660 525 602 966 1080 1510 16300 18000 31700 43800
2020-10-31 19:45 2.90 1520 45900 (2010) 512 (2007) 8660 525 602 966 1080 1510 16300 18000 31700 43800
2020-10-31 18:45 2.91 1530 45900 (2010) 512 (2007) 8660 525 602 966 1080 1510 16300 18000 31700 43800
2020-10-31 17:45 2.92 1540 45900 (2010) 512 (2007) 8660 525 602 966 1080 1510 16300 18000 31700 43800
2020-10-31 16:45 2.94 1570 45900 (2010) 512 (2007) 8660 525 602 966 1080 1510 16300 18000 31700 43800
2020-10-31 15:45 2.94 1570 45900 (2010) 512 (2007) 8660 525 602 966 1080 1510 16300 18000 31700 43800
2020-10-31 14:45 2.95 1590 45900 (2010) 512 (2007) 8660 525 602 966 1080 1510 16300 18000 31700 43800
2020-10-31 13:45 2.98 1630 45900 (2010) 512 (2007) 8660 525 602 966 1080 1510 16300 18000 31700 43800
2020-10-31 12:45 2.98 1630 45900 (2010) 512 (2007) 8660 525 602 966 1080 1510 16300 18000 31700 43800
2020-10-31 11:45 3.00 1660 45900 (2010) 512 (2007) 8660 525 602 966 1080 1510 16300 18000 31700 43800
2020-10-31 10:45 3.01 1680 45900 (2010) 512 (2007) 8660 525 602 966 1080 1510 16300 18000 31700 43800
2020-10-31 09:45 3.02 1700 45900 (2010) 512 (2007) 8660 525 602 966 1080 1510 16300 18000 31700 43800
2020-10-31 08:45 3.03 1710 45900 (2010) 512 (2007) 8660 525 602 966 1080 1510 16300 18000 31700 43800
2020-10-31 07:45 3.03 1710 45900 (2010) 512 (2007) 8660 525 602 966 1080 1510 16300 18000 31700 43800
2020-10-31 06:45 3.05 1740 45900 (2010) 512 (2007) 8660 525 602 966 1080 1510 16300 18000 31700 43800
2020-10-31 05:45 3.06 1760 45900 (2010) 512 (2007) 8660 525 602 966 1080 1510 16300 18000 31700 43800
2020-10-31 04:45 3.08 1790 45900 (2010) 512 (2007) 8660 525 602 966 1080 1510 16300 18000 31700 43800
2020-10-31 03:45 3.11 1840 45900 (2010) 512 (2007) 8660 525 602 966 1080 1510 16300 18000 31700 43800
2020-10-31 02:45 3.12 1860 45900 (2010) 512 (2007) 8660 525 602 966 1080 1510 16300 18000 31700 43800
2020-10-31 01:45 3.15 1910 45900 (2010) 512 (2007) 8660 525 602 966 1080 1510 16300 18000 31700 43800
2020-10-31 00:45 3.17 1940 45900 (2010) 512 (2007) 8660 525 602 966 1080 1510 16300 18000 31700 43800
2020-10-30 23:45 3.20 2000 49400 (2010) 558 (2006) 8320 561 724 1080 1180 1870 12000 17200 28900 46200
2020-10-30 22:45 3.22 2030 49400 (2010) 558 (2006) 8320 561 724 1080 1180 1870 12000 17200 28900 46200
2020-10-30 21:45 3.24 2070 49400 (2010) 558 (2006) 8320 561 724 1080 1180 1870 12000 17200 28900 46200
2020-10-30 20:45 3.27 2120 49400 (2010) 558 (2006) 8320 561 724 1080 1180 1870 12000 17200 28900 46200
2020-10-30 19:45 3.30 2180 49400 (2010) 558 (2006) 8320 561 724 1080 1180 1870 12000 17200 28900 46200
2020-10-30 18:45 3.33 2240 49400 (2010) 558 (2006) 8320 561 724 1080 1180 1870 12000 17200 28900 46200
2020-10-30 17:45 3.36 2300 49400 (2010) 558 (2006) 8320 561 724 1080 1180 1870 12000 17200 28900 46200
2020-10-30 16:45 3.40 2380 49400 (2010) 558 (2006) 8320 561 724 1080 1180 1870 12000 17200 28900 46200
2020-10-30 15:45 3.43 2440 49400 (2010) 558 (2006) 8320 561 724 1080 1180 1870 12000 17200 28900 46200
2020-10-30 14:45 3.45 2480 49400 (2010) 558 (2006) 8320 561 724 1080 1180 1870 12000 17200 28900 46200
2020-10-30 13:45 3.49 2570 49400 (2010) 558 (2006) 8320 561 724 1080 1180 1870 12000 17200 28900 46200
2020-10-30 12:45 3.51 2610 49400 (2010) 558 (2006) 8320 561 724 1080 1180 1870 12000 17200 28900 46200
2020-10-30 11:45 3.53 2650 49400 (2010) 558 (2006) 8320 561 724 1080 1180 1870 12000 17200 28900 46200
2020-10-30 10:45 3.54 2680 49400 (2010) 558 (2006) 8320 561 724 1080 1180 1870 12000 17200 28900 46200
2020-10-30 09:45 3.55 2700 49400 (2010) 558 (2006) 8320 561 724 1080 1180 1870 12000 17200 28900 46200
2020-10-30 08:45 3.56 2720 49400 (2010) 558 (2006) 8320 561 724 1080 1180 1870 12000 17200 28900 46200
2020-10-30 07:45 3.56 2720 49400 (2010) 558 (2006) 8320 561 724 1080 1180 1870 12000 17200 28900 46200
2020-10-30 06:45 3.55 2700 49400 (2010) 558 (2006) 8320 561 724 1080 1180 1870 12000 17200 28900 46200
2020-10-30 05:45 3.55 2700 49400 (2010) 558 (2006) 8320 561 724 1080 1180 1870 12000 17200 28900 46200
2020-10-30 04:45 3.55 2700 49400 (2010) 558 (2006) 8320 561 724 1080 1180 1870 12000 17200 28900 46200
2020-10-30 03:45 3.54 2680 49400 (2010) 558 (2006) 8320 561 724 1080 1180 1870 12000 17200 28900 46200
2020-10-30 02:45 3.53 2650 49400 (2010) 558 (2006) 8320 561 724 1080 1180 1870 12000 17200 28900 46200
2020-10-30 01:45 3.51 2610 49400 (2010) 558 (2006) 8320 561 724 1080 1180 1870 12000 17200 28900 46200
2020-10-30 00:45 3.48 2540 49400 (2010) 558 (2006) 8320 561 724 1080 1180 1870 12000 17200 28900 46200
2020-10-29 23:45 3.45 2480 37600 (2010) 570 (2006) 6480 598 748 1050 1250 1640 8030 9830 27600 36800
2020-10-29 22:45 3.42 2420 37600 (2010) 570 (2006) 6480 598 748 1050 1250 1640 8030 9830 27600 36800
2020-10-29 21:45 3.38 2340 37600 (2010) 570 (2006) 6480 598 748 1050 1250 1640 8030 9830 27600 36800
2020-10-29 20:45 3.35 2280 37600 (2010) 570 (2006) 6480 598 748 1050 1250 1640 8030 9830 27600 36800
2020-10-29 19:45 3.32 2220 37600 (2010) 570 (2006) 6480 598 748 1050 1250 1640 8030 9830 27600 36800
2020-10-29 18:45 3.29 2160 37600 (2010) 570 (2006) 6480 598 748 1050 1250 1640 8030 9830 27600 36800
2020-10-29 17:45 3.26 2110 37600 (2010) 570 (2006) 6480 598 748 1050 1250 1640 8030 9830 27600 36800
2020-10-29 16:45 3.24 2070 37600 (2010) 570 (2006) 6480 598 748 1050 1250 1640 8030 9830 27600 36800
2020-10-29 15:45 3.22 2030 37600 (2010) 570 (2006) 6480 598 748 1050 1250 1640 8030 9830 27600 36800
2020-10-29 14:45 3.20 2000 37600 (2010) 570 (2006) 6480 598 748 1050 1250 1640 8030 9830 27600 36800
2020-10-29 13:45 3.18 1960 37600 (2010) 570 (2006) 6480 598 748 1050 1250 1640 8030 9830 27600 36800
2020-10-29 12:45 3.16 1930 37600 (2010) 570 (2006) 6480 598 748 1050 1250 1640 8030 9830 27600 36800
2020-10-29 11:45 3.14 1890 37600 (2010) 570 (2006) 6480 598 748 1050 1250 1640 8030 9830 27600 36800
2020-10-29 10:45 3.12 1860 37600 (2010) 570 (2006) 6480 598 748 1050 1250 1640 8030 9830 27600 36800
2020-10-29 09:45 3.10 1820 37600 (2010) 570 (2006) 6480 598 748 1050 1250 1640 8030 9830 27600 36800
2020-10-29 08:45 3.07 1780 37600 (2010) 570 (2006) 6480 598 748 1050 1250 1640 8030 9830 27600 36800
2020-10-29 07:45 3.05 1740 37600 (2010) 570 (2006) 6480 598 748 1050 1250 1640 8030 9830 27600 36800
2020-10-29 06:45 3.03 1710 37600 (2010) 570 (2006) 6480 598 748 1050 1250 1640 8030 9830 27600 36800
2020-10-29 05:45 3.01 1680 37600 (2010) 570 (2006) 6480 598 748 1050 1250 1640 8030 9830 27600 36800
2020-10-29 04:45 3.00 1660 37600 (2010) 570 (2006) 6480 598 748 1050 1250 1640 8030 9830 27600 36800
2020-10-29 03:45 2.98 1630 37600 (2010) 570 (2006) 6480 598 748 1050 1250 1640 8030 9830 27600 36800
2020-10-29 02:45 2.96 1600 37600 (2010) 570 (2006) 6480 598 748 1050 1250 1640 8030 9830 27600 36800
2020-10-29 01:45 2.96 1600 37600 (2010) 570 (2006) 6480 598 748 1050 1250 1640 8030 9830 27600 36800
2020-10-29 00:45 2.96 1600 37600 (2010) 570 (2006) 6480 598 748 1050 1250 1640 8030 9830 27600 36800
2020-10-28 23:45 2.94 1570 38600 (2010) 587 (2006) 6070 588 651 798 968 1480 7410 9420 25700 37600
2020-10-28 22:45 2.93 1560 38600 (2010) 587 (2006) 6070 588 651 798 968 1480 7410 9420 25700 37600
2020-10-28 21:45 2.93 1560 38600 (2010) 587 (2006) 6070 588 651 798 968 1480 7410 9420 25700 37600
2020-10-28 20:45 2.92 1540 38600 (2010) 587 (2006) 6070 588 651 798 968 1480 7410 9420 25700 37600
2020-10-28 19:45 2.92 1540 38600 (2010) 587 (2006) 6070 588 651 798 968 1480 7410 9420 25700 37600
2020-10-28 18:45 2.92 1540 38600 (2010) 587 (2006) 6070 588 651 798 968 1480 7410 9420 25700 37600
2020-10-28 17:45 2.91 1530 38600 (2010) 587 (2006) 6070 588 651 798 968 1480 7410 9420 25700 37600
2020-10-28 16:45 2.92 1540 38600 (2010) 587 (2006) 6070 588 651 798 968 1480 7410 9420 25700 37600
2020-10-28 15:45 2.92 1540 38600 (2010) 587 (2006) 6070 588 651 798 968 1480 7410 9420 25700 37600
2020-10-28 14:45 2.92 1540 38600 (2010) 587 (2006) 6070 588 651 798 968 1480 7410 9420 25700 37600
2020-10-28 13:45 2.92 1540 38600 (2010) 587 (2006) 6070 588 651 798 968 1480 7410 9420 25700 37600
2020-10-28 12:45 2.92 1540 38600 (2010) 587 (2006) 6070 588 651 798 968 1480 7410 9420 25700 37600
2020-10-28 11:45 2.91 1530 38600 (2010) 587 (2006) 6070 588 651 798 968 1480 7410 9420 25700 37600
2020-10-28 10:45 2.91 1530 38600 (2010) 587 (2006) 6070 588 651 798 968 1480 7410 9420 25700 37600
2020-10-28 09:45 2.91 1530 38600 (2010) 587 (2006) 6070 588 651 798 968 1480 7410 9420 25700 37600
2020-10-28 08:45 2.91 1530 38600 (2010) 587 (2006) 6070 588 651 798 968 1480 7410 9420 25700 37600
2020-10-28 07:45 2.90 1520 38600 (2010) 587 (2006) 6070 588 651 798 968 1480 7410 9420 25700 37600
2020-10-28 06:45 2.90 1520 38600 (2010) 587 (2006) 6070 588 651 798 968 1480 7410 9420 25700 37600
2020-10-28 05:45 2.89 1500 38600 (2010) 587 (2006) 6070 588 651 798 968 1480 7410 9420 25700 37600
2020-10-28 04:45 2.89 1500 38600 (2010) 587 (2006) 6070 588 651 798 968 1480 7410 9420 25700 37600
2020-10-28 03:45 2.89 1500 38600 (2010) 587 (2006) 6070 588 651 798 968 1480 7410 9420 25700 37600
2020-10-28 02:45 2.89 1500 38600 (2010) 587 (2006) 6070 588 651 798 968 1480 7410 9420 25700 37600
2020-10-28 01:45 2.88 1490 38600 (2010) 587 (2006) 6070 588 651 798 968 1480 7410 9420 25700 37600
2020-10-28 00:45 2.88 1490 38600 (2010) 587 (2006) 6070 588 651 798 968 1480 7410 9420 25700 37600
2020-10-27 23:45 2.87 1470 37000 (2010) 562 (2003) 5830 581 683 896 1040 1390 6240 7510 25500 36600
2020-10-27 22:45 2.87 1470 37000 (2010) 562 (2003) 5830 581 683 896 1040 1390 6240 7510 25500 36600
2020-10-27 21:45 2.86 1460 37000 (2010) 562 (2003) 5830 581 683 896 1040 1390 6240 7510 25500 36600
2020-10-27 20:45 2.85 1450 37000 (2010) 562 (2003) 5830 581 683 896 1040 1390 6240 7510 25500 36600
2020-10-27 19:45 2.85 1450 37000 (2010) 562 (2003) 5830 581 683 896 1040 1390 6240 7510 25500 36600
2020-10-27 18:45 2.84 1430 37000 (2010) 562 (2003) 5830 581 683 896 1040 1390 6240 7510 25500 36600
2020-10-27 17:45 2.84 1430 37000 (2010) 562 (2003) 5830 581 683 896 1040 1390 6240 7510 25500 36600
2020-10-27 16:45 2.83 1420 37000 (2010) 562 (2003) 5830 581 683 896 1040 1390 6240 7510 25500 36600
2020-10-27 15:45 2.84 1430 37000 (2010) 562 (2003) 5830 581 683 896 1040 1390 6240 7510 25500 36600
2020-10-27 14:45 2.83 1420 37000 (2010) 562 (2003) 5830 581 683 896 1040 1390 6240 7510 25500 36600
2020-10-27 13:45 2.82 1400 37000 (2010) 562 (2003) 5830 581 683 896 1040 1390 6240 7510 25500 36600
2020-10-27 12:45 2.81 1390 37000 (2010) 562 (2003) 5830 581 683 896 1040 1390 6240 7510 25500 36600
2020-10-27 11:45 2.81 1390 37000 (2010) 562 (2003) 5830 581 683 896 1040 1390 6240 7510 25500 36600
2020-10-27 10:45 2.80 1380 37000 (2010) 562 (2003) 5830 581 683 896 1040 1390 6240 7510 25500 36600
2020-10-27 09:45 2.79 1360 37000 (2010) 562 (2003) 5830 581 683 896 1040 1390 6240 7510 25500 36600
2020-10-27 08:45 2.78 1350 37000 (2010) 562 (2003) 5830 581 683 896 1040 1390 6240 7510 25500 36600
2020-10-27 07:45 2.77 1340 37000 (2010) 562 (2003) 5830 581 683 896 1040 1390 6240 7510 25500 36600
2020-10-27 06:45 2.75 1310 37000 (2010) 562 (2003) 5830 581 683 896 1040 1390 6240 7510 25500 36600
2020-10-27 05:45 2.75 1310 37000 (2010) 562 (2003) 5830 581 683 896 1040 1390 6240 7510 25500 36600
2020-10-27 04:45 2.74 1300 37000 (2010) 562 (2003) 5830 581 683 896 1040 1390 6240 7510 25500 36600
2020-10-27 03:45 2.72 1270 37000 (2010) 562 (2003) 5830 581 683 896 1040 1390 6240 7510 25500 36600
2020-10-27 02:45 2.71 1260 37000 (2010) 562 (2003) 5830 581 683 896 1040 1390 6240 7510 25500 36600
2020-10-27 01:45 2.70 1250 37000 (2010) 562 (2003) 5830 581 683 896 1040 1390 6240 7510 25500 36600
2020-10-27 00:45 2.69 1240 37000 (2010) 562 (2003) 5830 581 683 896 1040 1390 6240 7510 25500 36600
2020-10-26 23:45 2.68 1220 40400 (1999) 582 (2003) 7030 628 828 942 1290 1630 6040 13500 29100 39600
2020-10-26 22:45 2.67 1210 40400 (1999) 582 (2003) 7030 628 828 942 1290 1630 6040 13500 29100 39600
2020-10-26 21:45 2.66 1200 40400 (1999) 582 (2003) 7030 628 828 942 1290 1630 6040 13500 29100 39600
2020-10-26 20:45 2.66 1200 40400 (1999) 582 (2003) 7030 628 828 942 1290 1630 6040 13500 29100 39600
2020-10-26 19:45 2.65 1190 40400 (1999) 582 (2003) 7030 628 828 942 1290 1630 6040 13500 29100 39600
2020-10-26 18:45 2.64 1180 40400 (1999) 582 (2003) 7030 628 828 942 1290 1630 6040 13500 29100 39600
2020-10-26 17:45 2.64 1180 40400 (1999) 582 (2003) 7030 628 828 942 1290 1630 6040 13500 29100 39600
2020-10-26 16:45 2.63 1160 40400 (1999) 582 (2003) 7030 628 828 942 1290 1630 6040 13500 29100 39600
2020-10-26 15:45 2.62 1150 40400 (1999) 582 (2003) 7030 628 828 942 1290 1630 6040 13500 29100 39600
2020-10-26 14:45 2.62 1150 40400 (1999) 582 (2003) 7030 628 828 942 1290 1630 6040 13500 29100 39600
2020-10-26 13:45 2.60 1130 40400 (1999) 582 (2003) 7030 628 828 942 1290 1630 6040 13500 29100 39600
2020-10-26 12:45 2.60 1130 40400 (1999) 582 (2003) 7030 628 828 942 1290 1630 6040 13500 29100 39600
2020-10-26 11:45 2.59 1120 40400 (1999) 582 (2003) 7030 628 828 942 1290 1630 6040 13500 29100 39600
2020-10-26 10:45 2.58 1110 40400 (1999) 582 (2003) 7030 628 828 942 1290 1630 6040 13500 29100 39600
2020-10-26 09:45 2.58 1110 40400 (1999) 582 (2003) 7030 628 828 942 1290 1630 6040 13500 29100 39600
2020-10-26 08:45 2.57 1100 40400 (1999) 582 (2003) 7030 628 828 942 1290 1630 6040 13500 29100 39600
2020-10-26 07:45 2.56 1080 40400 (1999) 582 (2003) 7030 628 828 942 1290 1630 6040 13500 29100 39600
2020-10-26 06:45 2.57 1100 40400 (1999) 582 (2003) 7030 628 828 942 1290 1630 6040 13500 29100 39600
2020-10-26 05:45 2.57 1100 40400 (1999) 582 (2003) 7030 628 828 942 1290 1630 6040 13500 29100 39600
2020-10-26 04:45 2.57 1100 40400 (1999) 582 (2003) 7030 628 828 942 1290 1630 6040 13500 29100 39600
2020-10-26 03:45 2.57 1100 40400 (1999) 582 (2003) 7030 628 828 942 1290 1630 6040 13500 29100 39600
2020-10-26 02:45 2.57 1100 40400 (1999) 582 (2003) 7030 628 828 942 1290 1630 6040 13500 29100 39600
2020-10-26 01:45 2.57 1100 40400 (1999) 582 (2003) 7030 628 828 942 1290 1630 6040 13500 29100 39600
2020-10-26 00:45 2.57 1100 40400 (1999) 582 (2003) 7030 628 828 942 1290 1630 6040 13500 29100 39600
2020-10-25 23:45 2.57 1100 41700 (1999) 568 (2007) 8240 571 605 1150 1240 2450 11600 16900 29600 40200
2020-10-25 22:45 2.57 1100 41700 (1999) 568 (2007) 8240 571 605 1150 1240 2450 11600 16900 29600 40200
2020-10-25 21:45 2.58 1110 41700 (1999) 568 (2007) 8240 571 605 1150 1240 2450 11600 16900 29600 40200
2020-10-25 20:45 2.58 1110 41700 (1999) 568 (2007) 8240 571 605 1150 1240 2450 11600 16900 29600 40200
2020-10-25 19:45 2.58 1110 41700 (1999) 568 (2007) 8240 571 605 1150 1240 2450 11600 16900 29600 40200
2020-10-25 18:45 2.58 1110 41700 (1999) 568 (2007) 8240 571 605 1150 1240 2450 11600 16900 29600 40200
2020-10-25 17:45 2.58 1110 41700 (1999) 568 (2007) 8240 571 605 1150 1240 2450 11600 16900 29600 40200
2020-10-25 16:45 2.58 1110 41700 (1999) 568 (2007) 8240 571 605 1150 1240 2450 11600 16900 29600 40200
2020-10-25 15:45 2.59 1120 41700 (1999) 568 (2007) 8240 571 605 1150 1240 2450 11600 16900 29600 40200
2020-10-25 14:45 2.59 1120 41700 (1999) 568 (2007) 8240 571 605 1150 1240 2450 11600 16900 29600 40200
2020-10-25 13:45 2.58 1110 41700 (1999) 568 (2007) 8240 571 605 1150 1240 2450 11600 16900 29600 40200
2020-10-25 12:45 2.58 1110 41700 (1999) 568 (2007) 8240 571 605 1150 1240 2450 11600 16900 29600 40200
2020-10-25 11:45 2.59 1120 41700 (1999) 568 (2007) 8240 571 605 1150 1240 2450 11600 16900 29600 40200
2020-10-25 10:45 2.58 1110 41700 (1999) 568 (2007) 8240 571 605 1150 1240 2450 11600 16900 29600 40200
2020-10-25 09:45 2.59 1120 41700 (1999) 568 (2007) 8240 571 605 1150 1240 2450 11600 16900 29600 40200
2020-10-25 08:45 2.58 1110 41700 (1999) 568 (2007) 8240 571 605 1150 1240 2450 11600 16900 29600 40200
2020-10-25 07:45 2.59 1120 41700 (1999) 568 (2007) 8240 571 605 1150 1240 2450 11600 16900 29600 40200
2020-10-25 06:45 2.59 1120 41700 (1999) 568 (2007) 8240 571 605 1150 1240 2450 11600 16900 29600 40200
2020-10-25 05:45 2.59 1120 41700 (1999) 568 (2007) 8240 571 605 1150 1240 2450 11600 16900 29600 40200
2020-10-25 04:45 2.59 1120 41700 (1999) 568 (2007) 8240 571 605 1150 1240 2450 11600 16900 29600 40200
2020-10-25 03:45 2.59 1120 41700 (1999) 568 (2007) 8240 571 605 1150 1240 2450 11600 16900 29600 40200
2020-10-25 02:45 2.59 1120 41700 (1999) 568 (2007) 8240 571 605 1150 1240 2450 11600 16900 29600 40200
2020-10-25 01:45 2.59 1120 41700 (1999) 568 (2007) 8240 571 605 1150 1240 2450 11600 16900 29600 40200
2020-10-25 00:45 2.59 1120 41700 (1999) 568 (2007) 8240 571 605 1150 1240 2450 11600 16900 29600 40200
2020-10-24 23:45 2.59 1120 43200 (1999) 480 (2007) 8040 491 591 1050 1170 1770 14400 17900 28900 41300
2020-10-24 22:45 2.59 1120 43200 (1999) 480 (2007) 8040 491 591 1050 1170 1770 14400 17900 28900 41300
2020-10-24 21:45 2.59 1120 43200 (1999) 480 (2007) 8040 491 591 1050 1170 1770 14400 17900 28900 41300
2020-10-24 20:45 2.59 1120 43200 (1999) 480 (2007) 8040 491 591 1050 1170 1770 14400 17900 28900 41300
2020-10-24 19:45 2.59 1120 43200 (1999) 480 (2007) 8040 491 591 1050 1170 1770 14400 17900 28900 41300
2020-10-24 18:45 2.60 1130 43200 (1999) 480 (2007) 8040 491 591 1050 1170 1770 14400 17900 28900 41300
2020-10-24 17:45 2.60 1130 43200 (1999) 480 (2007) 8040 491 591 1050 1170 1770 14400 17900 28900 41300
2020-10-24 16:45 2.60 1130 43200 (1999) 480 (2007) 8040 491 591 1050 1170 1770 14400 17900 28900 41300
2020-10-24 15:45 2.60 1130 43200 (1999) 480 (2007) 8040 491 591 1050 1170 1770 14400 17900 28900 41300
2020-10-24 14:45 2.60 1130 43200 (1999) 480 (2007) 8040 491 591 1050 1170 1770 14400 17900 28900 41300
2020-10-24 13:45 2.61 1140 43200 (1999) 480 (2007) 8040 491 591 1050 1170 1770 14400 17900 28900 41300
2020-10-24 12:45 2.61 1140 43200 (1999) 480 (2007) 8040 491 591 1050 1170 1770 14400 17900 28900 41300
2020-10-24 11:45 2.61 1140 43200 (1999) 480 (2007) 8040 491 591 1050 1170 1770 14400 17900 28900 41300
2020-10-24 10:45 2.61 1140 43200 (1999) 480 (2007) 8040 491 591 1050 1170 1770 14400 17900 28900 41300
2020-10-24 09:45 2.61 1140 43200 (1999) 480 (2007) 8040 491 591 1050 1170 1770 14400 17900 28900 41300
2020-10-24 08:45 2.61 1140 43200 (1999) 480 (2007) 8040 491 591 1050 1170 1770 14400 17900 28900 41300
2020-10-24 07:45 2.62 1150 43200 (1999) 480 (2007) 8040 491 591 1050 1170 1770 14400 17900 28900 41300
2020-10-24 06:45 2.62 1150 43200 (1999) 480 (2007) 8040 491 591 1050 1170 1770 14400 17900 28900 41300
2020-10-24 05:45 2.62 1150 43200 (1999) 480 (2007) 8040 491 591 1050 1170 1770 14400 17900 28900 41300
2020-10-24 04:45 2.63 1160 43200 (1999) 480 (2007) 8040 491 591 1050 1170 1770 14400 17900 28900 41300
2020-10-24 03:45 2.63 1160 43200 (1999) 480 (2007) 8040 491 591 1050 1170 1770 14400 17900 28900 41300
2020-10-24 02:45 2.62 1150 43200 (1999) 480 (2007) 8040 491 591 1050 1170 1770 14400 17900 28900 41300
2020-10-24 01:45 2.63 1160 43200 (1999) 480 (2007) 8040 491 591 1050 1170 1770 14400 17900 28900 41300
2020-10-24 00:45 2.63 1160 43200 (1999) 480 (2007) 8040 491 591 1050 1170 1770 14400 17900 28900 41300
2020-10-23 23:45 2.63 1160 49000 (1999) 513 (2003) 7790 529 686 1050 1130 1570 9250 17300 28800 46300
2020-10-23 22:45 2.63 1160 49000 (1999) 513 (2003) 7790 529 686 1050 1130 1570 9250 17300 28800 46300
2020-10-23 21:45 2.64 1180 49000 (1999) 513 (2003) 7790 529 686 1050 1130 1570 9250 17300 28800 46300
2020-10-23 20:45 2.64 1180 49000 (1999) 513 (2003) 7790 529 686 1050 1130 1570 9250 17300 28800 46300
2020-10-23 19:45 2.64 1180 49000 (1999) 513 (2003) 7790 529 686 1050 1130 1570 9250 17300 28800 46300
2020-10-23 18:45 2.64 1180 49000 (1999) 513 (2003) 7790 529 686 1050 1130 1570 9250 17300 28800 46300
2020-10-23 17:45 2.65 1190 49000 (1999) 513 (2003) 7790 529 686 1050 1130 1570 9250 17300 28800 46300
2020-10-23 16:45 2.65 1190 49000 (1999) 513 (2003) 7790 529 686 1050 1130 1570 9250 17300 28800 46300
2020-10-23 15:45 2.65 1190 49000 (1999) 513 (2003) 7790 529 686 1050 1130 1570 9250 17300 28800 46300
2020-10-23 14:45 2.65 1190 49000 (1999) 513 (2003) 7790 529 686 1050 1130 1570 9250 17300 28800 46300
2020-10-23 13:45 2.66 1200 49000 (1999) 513 (2003) 7790 529 686 1050 1130 1570 9250 17300 28800 46300
2020-10-23 12:45 2.66 1200 49000 (1999) 513 (2003) 7790 529 686 1050 1130 1570 9250 17300 28800 46300
2020-10-23 11:45 2.67 1210 49000 (1999) 513 (2003) 7790 529 686 1050 1130 1570 9250 17300 28800 46300
2020-10-23 10:45 2.65 1190 49000 (1999) 513 (2003) 7790 529 686 1050 1130 1570 9250 17300 28800 46300
2020-10-23 09:45 2.65 1190 49000 (1999) 513 (2003) 7790 529 686 1050 1130 1570 9250 17300 28800 46300
2020-10-23 08:45 2.65 1190 49000 (1999) 513 (2003) 7790 529 686 1050 1130 1570 9250 17300 28800 46300
2020-10-23 07:45 2.66 1200 49000 (1999) 513 (2003) 7790 529 686 1050 1130 1570 9250 17300 28800 46300
2020-10-23 06:45 2.66 1200 49000 (1999) 513 (2003) 7790 529 686 1050 1130 1570 9250 17300 28800 46300
2020-10-23 05:45 2.67 1210 49000 (1999) 513 (2003) 7790 529 686 1050 1130 1570 9250 17300 28800 46300
2020-10-23 04:45 2.68 1220 49000 (1999) 513 (2003) 7790 529 686 1050 1130 1570 9250 17300 28800 46300
2020-10-23 03:45 2.68 1220 49000 (1999) 513 (2003) 7790 529 686 1050 1130 1570 9250 17300 28800 46300
2020-10-23 02:45 2.68 1220 49000 (1999) 513 (2003) 7790 529 686 1050 1130 1570 9250 17300 28800 46300
2020-10-23 01:45 2.68 1220 49000 (1999) 513 (2003) 7790 529 686 1050 1130 1570 9250 17300 28800 46300
2020-10-23 00:45 2.69 1240 49000 (1999) 513 (2003) 7790 529 686 1050 1130 1570 9250 17300 28800 46300
2020-10-22 23:45 2.69 1240 50800 (1999) 507 (2000) 8090 508 603 1020 1130 1400 13800 17100 27100 47000
2020-10-22 22:45 2.69 1240 50800 (1999) 507 (2000) 8090 508 603 1020 1130 1400 13800 17100 27100 47000
2020-10-22 21:45 2.70 1250 50800 (1999) 507 (2000) 8090 508 603 1020 1130 1400 13800 17100 27100 47000
2020-10-22 20:45 2.70 1250 50800 (1999) 507 (2000) 8090 508 603 1020 1130 1400 13800 17100 27100 47000
2020-10-22 19:45 2.71 1260 50800 (1999) 507 (2000) 8090 508 603 1020 1130 1400 13800 17100 27100 47000
2020-10-22 18:45 2.72 1270 50800 (1999) 507 (2000) 8090 508 603 1020 1130 1400 13800 17100 27100 47000
2020-10-22 17:45 2.73 1290 50800 (1999) 507 (2000) 8090 508 603 1020 1130 1400 13800 17100 27100 47000
2020-10-22 16:45 2.74 1300 50800 (1999) 507 (2000) 8090 508 603 1020 1130 1400 13800 17100 27100 47000
2020-10-22 15:45 2.74 1300 50800 (1999) 507 (2000) 8090 508 603 1020 1130 1400 13800 17100 27100 47000
2020-10-22 14:45 2.75 1310 50800 (1999) 507 (2000) 8090 508 603 1020 1130 1400 13800 17100 27100 47000
2020-10-22 13:45 2.75 1310 50800 (1999) 507 (2000) 8090 508 603 1020 1130 1400 13800 17100 27100 47000
2020-10-22 12:45 2.75 1310 50800 (1999) 507 (2000) 8090 508 603 1020 1130 1400 13800 17100 27100 47000
2020-10-22 11:45 2.76 1320 50800 (1999) 507 (2000) 8090 508 603 1020 1130 1400 13800 17100 27100 47000
2020-10-22 10:45 2.75 1310 50800 (1999) 507 (2000) 8090 508 603 1020 1130 1400 13800 17100 27100 47000
2020-10-22 09:45 2.76 1320 50800 (1999) 507 (2000) 8090 508 603 1020 1130 1400 13800 17100 27100 47000
2020-10-22 08:45 2.75 1310 50800 (1999) 507 (2000) 8090 508 603 1020 1130 1400 13800 17100 27100 47000
2020-10-22 07:45 2.75 1310 50800 (1999) 507 (2000) 8090 508 603 1020 1130 1400 13800 17100 27100 47000
2020-10-22 06:45 2.75 1310 50800 (1999) 507 (2000) 8090 508 603 1020 1130 1400 13800 17100 27100 47000
2020-10-22 05:45 2.76 1320 50800 (1999) 507 (2000) 8090 508 603 1020 1130 1400 13800 17100 27100 47000
2020-10-22 04:45 2.77 1340 50800 (1999) 507 (2000) 8090 508 603 1020 1130 1400 13800 17100 27100 47000
2020-10-22 03:45 2.77 1340 50800 (1999) 507 (2000) 8090 508 603 1020 1130 1400 13800 17100 27100 47000
2020-10-22 02:45 2.78 1350 50800 (1999) 507 (2000) 8090 508 603 1020 1130 1400 13800 17100 27100 47000
2020-10-22 01:45 2.78 1350 50800 (1999) 507 (2000) 8090 508 603 1020 1130 1400 13800 17100 27100 47000
2020-10-22 00:45 2.79 1360 50800 (1999) 507 (2000) 8090 508 603 1020 1130 1400 13800 17100 27100 47000
2020-10-21 23:45 2.79 1360 52100 (1999) 447 (1998) 8120 460 514 1070 1210 1450 8620 17500 29900 48400
2020-10-21 22:45 2.79 1360 52100 (1999) 447 (1998) 8120 460 514 1070 1210 1450 8620 17500 29900 48400
2020-10-21 21:45 2.80 1380 52100 (1999) 447 (1998) 8120 460 514 1070 1210 1450 8620 17500 29900 48400
2020-10-21 20:45 2.80 1380 52100 (1999) 447 (1998) 8120 460 514 1070 1210 1450 8620 17500 29900 48400
2020-10-21 19:45 2.80 1380 52100 (1999) 447 (1998) 8120 460 514 1070 1210 1450 8620 17500 29900 48400
2020-10-21 18:45 2.80 1380 52100 (1999) 447 (1998) 8120 460 514 1070 1210 1450 8620 17500 29900 48400
2020-10-21 17:45 2.81 1390 52100 (1999) 447 (1998) 8120 460 514 1070 1210 1450 8620 17500 29900 48400
2020-10-21 16:45 2.80 1380 52100 (1999) 447 (1998) 8120 460 514 1070 1210 1450 8620 17500 29900 48400
2020-10-21 15:45 2.80 1380 52100 (1999) 447 (1998) 8120 460 514 1070 1210 1450 8620 17500 29900 48400
2020-10-21 14:45 2.80 1380 52100 (1999) 447 (1998) 8120 460 514 1070 1210 1450 8620 17500 29900 48400
2020-10-21 13:45 2.79 1360 52100 (1999) 447 (1998) 8120 460 514 1070 1210 1450 8620 17500 29900 48400
2020-10-21 12:45 2.79 1360 52100 (1999) 447 (1998) 8120 460 514 1070 1210 1450 8620 17500 29900 48400
2020-10-21 11:45 2.78 1350 52100 (1999) 447 (1998) 8120 460 514 1070 1210 1450 8620 17500 29900 48400
2020-10-21 10:45 2.77 1340 52100 (1999) 447 (1998) 8120 460 514 1070 1210 1450 8620 17500 29900 48400
2020-10-21 09:45 2.76 1320 52100 (1999) 447 (1998) 8120 460 514 1070 1210 1450 8620 17500 29900 48400
2020-10-21 08:45 2.75 1310 52100 (1999) 447 (1998) 8120 460 514 1070 1210 1450 8620 17500 29900 48400
2020-10-21 07:45 2.74 1300 52100 (1999) 447 (1998) 8120 460 514 1070 1210 1450 8620 17500 29900 48400
2020-10-21 06:45 2.73 1290 52100 (1999) 447 (1998) 8120 460 514 1070 1210 1450 8620 17500 29900 48400
2020-10-21 05:45 2.72 1270 52100 (1999) 447 (1998) 8120 460 514 1070 1210 1450 8620 17500 29900 48400
2020-10-21 04:45 2.71 1260 52100 (1999) 447 (1998) 8120 460 514 1070 1210 1450 8620 17500 29900 48400
2020-10-21 03:45 2.69 1240 52100 (1999) 447 (1998) 8120 460 514 1070 1210 1450 8620 17500 29900 48400
2020-10-21 02:45 2.68 1220 52100 (1999) 447 (1998) 8120 460 514 1070 1210 1450 8620 17500 29900 48400
2020-10-21 01:45 2.67 1210 52100 (1999) 447 (1998) 8120 460 514 1070 1210 1450 8620 17500 29900 48400
2020-10-21 00:45 2.66 1200 52100 (1999) 447 (1998) 8120 460 514 1070 1210 1450 8620 17500 29900 48400
2020-10-20 23:45 2.66 1200 53500 (1999) 442 (1998) 8610 457 530 847 1150 2690 10300 17100 31700 50100
2020-10-20 22:45 2.66 1200 53500 (1999) 442 (1998) 8610 457 530 847 1150 2690 10300 17100 31700 50100
2020-10-20 21:45 2.65 1190 53500 (1999) 442 (1998) 8610 457 530 847 1150 2690 10300 17100 31700 50100
2020-10-20 20:45 2.65 1190 53500 (1999) 442 (1998) 8610 457 530 847 1150 2690 10300 17100 31700